<?xml version='1.0' encoding='UTF-8'?><gpx version="1.1" creator="JPX - https://github.com/jenetics/jpx" xmlns="http://www.topografix.com/GPX/1/1"><trk><trkseg><trkpt lat="43.11785979428929" lon="12.169734991265951"><ele>265.0</ele><time>2026-04-16T12:43:47.999Z</time></trkpt><trkpt lat="43.117849798956634" lon="12.169829152787607"><ele>265.0</ele><time>2026-04-16T12:43:50.999Z</time></trkpt><trkpt lat="43.11784408848539" lon="12.169931232518815"><ele>265.0</ele><time>2026-04-16T12:43:52.999Z</time></trkpt><trkpt lat="43.11782492143977" lon="12.170074933319034"><ele>265.0</ele><time>2026-04-16T12:43:55.999Z</time></trkpt><trkpt lat="43.117804320595376" lon="12.170156638520416"><ele>265.0</ele><time>2026-04-16T12:43:56.999Z</time></trkpt><trkpt lat="43.11776904115924" lon="12.170325555587487"><ele>265.0</ele><time>2026-04-16T12:43:58.999Z</time></trkpt><trkpt lat="43.11775365010989" lon="12.17043583786035"><ele>265.3333333333333</ele><time>2026-04-16T12:43:59.999Z</time></trkpt><trkpt lat="43.11773256706466" lon="12.170564334605222"><ele>265.66666666666663</ele><time>2026-04-16T12:44:00.999Z</time></trkpt><trkpt lat="43.117705758563915" lon="12.170701316780328"><ele>266.0</ele><time>2026-04-16T12:44:01.999Z</time></trkpt><trkpt lat="43.11767488161813" lon="12.170800087889004"><ele>266.3333333333333</ele><time>2026-04-16T12:44:02.999Z</time></trkpt><trkpt lat="43.11762903026904" lon="12.170888155392113"><ele>266.6666666666667</ele><time>2026-04-16T12:44:03.999Z</time></trkpt><trkpt lat="43.11758922251681" lon="12.170959759100363"><ele>267.0</ele><time>2026-04-16T12:44:04.999Z</time></trkpt><trkpt lat="43.117530891401756" lon="12.1710747555274"><ele>267.2</ele><time>2026-04-16T12:44:06.999Z</time></trkpt><trkpt lat="43.11748003370474" lon="12.171200694217834"><ele>267.4</ele><time>2026-04-16T12:44:08.999Z</time></trkpt><trkpt lat="43.11758487977911" lon="12.17134705244132"><ele>267.6</ele><time>2026-04-16T12:44:09.999Z</time></trkpt><trkpt lat="43.11760138003166" lon="12.171436853015583"><ele>267.8</ele><time>2026-04-16T12:44:10.999Z</time></trkpt><trkpt lat="43.1175927165494" lon="12.171545398340038"><ele>268.0</ele><time>2026-04-16T12:44:11.999Z</time></trkpt><trkpt lat="43.117571041128045" lon="12.171665170284673"><ele>268.2</ele><time>2026-04-16T12:44:12.999Z</time></trkpt><trkpt lat="43.117526618838305" lon="12.171792254441456"><ele>268.4</ele><time>2026-04-16T12:44:13.999Z</time></trkpt><trkpt lat="43.117469121804746" lon="12.171904830791666"><ele>268.59999999999997</ele><time>2026-04-16T12:44:14.999Z</time></trkpt><trkpt lat="43.11743841390659" lon="12.172045178650245"><ele>268.8</ele><time>2026-04-16T12:44:15.999Z</time></trkpt><trkpt lat="43.1174027417006" lon="12.172220554070986"><ele>269.0</ele><time>2026-04-16T12:44:16.999Z</time></trkpt><trkpt lat="43.11734178190302" lon="12.172347489751711"><ele>270.59999999999997</ele><time>2026-04-16T12:44:17.999Z</time></trkpt><trkpt lat="43.117283967179524" lon="12.172448349962727"><ele>272.2</ele><time>2026-04-16T12:44:18.999Z</time></trkpt><trkpt lat="43.11724558326174" lon="12.172556757773068"><ele>273.79999999999995</ele><time>2026-04-16T12:44:20Z</time></trkpt><trkpt lat="43.117178275314174" lon="12.172686197710853"><ele>275.4</ele><time>2026-04-16T12:44:21Z</time></trkpt><trkpt lat="43.11707169890077" lon="12.172802721547814"><ele>277.0</ele><time>2026-04-16T12:44:22Z</time></trkpt><trkpt lat="43.11698250426244" lon="12.172893699158895"><ele>277.0</ele><time>2026-04-16T12:44:23Z</time></trkpt><trkpt lat="43.11692915039329" lon="12.172959862538665"><ele>277.0</ele><time>2026-04-16T12:44:24Z</time></trkpt><trkpt lat="43.11689492762828" lon="12.173059319519357"><ele>277.0</ele><time>2026-04-16T12:44:25Z</time></trkpt><trkpt lat="43.11686109918831" lon="12.17313207048301"><ele>277.0</ele><time>2026-04-16T12:44:26Z</time></trkpt><trkpt lat="43.11679108224871" lon="12.173198326378794"><ele>277.0</ele><time>2026-04-16T12:44:27Z</time></trkpt><trkpt lat="43.11670677212172" lon="12.173260502895916"><ele>277.0</ele><time>2026-04-16T12:44:28Z</time></trkpt><trkpt lat="43.11660867268984" lon="12.173299115193135"><ele>279.0</ele><time>2026-04-16T12:44:29Z</time></trkpt><trkpt lat="43.116495803930285" lon="12.173399980209687"><ele>281.0</ele><time>2026-04-16T12:44:30Z</time></trkpt><trkpt lat="43.11637933221628" lon="12.173468300784629"><ele>283.0</ele><time>2026-04-16T12:44:31Z</time></trkpt><trkpt lat="43.11629620942907" lon="12.173534470032795"><ele>285.0</ele><time>2026-04-16T12:44:32Z</time></trkpt><trkpt lat="43.116233665236734" lon="12.173612965478059"><ele>287.0</ele><time>2026-04-16T12:44:33Z</time></trkpt><trkpt lat="43.116149604175725" lon="12.173699481320043"><ele>287.0</ele><time>2026-04-16T12:44:35Z</time></trkpt><trkpt lat="43.11611291963228" lon="12.173817535513352"><ele>287.0</ele><time>2026-04-16T12:44:37Z</time></trkpt><trkpt lat="43.11611254837367" lon="12.173927388754615"><ele>287.0</ele><time>2026-04-16T12:44:39Z</time></trkpt><trkpt lat="43.11613413701166" lon="12.174080413970628"><ele>287.0</ele><time>2026-04-16T12:44:41Z</time></trkpt><trkpt lat="43.11607127957627" lon="12.174173500071479"><ele>287.0</ele><time>2026-04-16T12:44:42Z</time></trkpt><trkpt lat="43.11612060124988" lon="12.174267651065115"><ele>287.8</ele><time>2026-04-16T12:44:43Z</time></trkpt><trkpt lat="43.11616484164431" lon="12.174431038141885"><ele>288.6</ele><time>2026-04-16T12:44:45Z</time></trkpt><trkpt lat="43.1161976995488" lon="12.174518129260692"><ele>289.40000000000003</ele><time>2026-04-16T12:44:46Z</time></trkpt><trkpt lat="43.1162306432469" lon="12.174605447776027"><ele>290.2</ele><time>2026-04-16T12:44:47Z</time></trkpt><trkpt lat="43.116267103770305" lon="12.174710162800471"><ele>291.0</ele><time>2026-04-16T12:44:48Z</time></trkpt><trkpt lat="43.11631310876325" lon="12.174844712591366"><ele>289.25</ele><time>2026-04-16T12:44:49Z</time></trkpt><trkpt lat="43.116366398377004" lon="12.174993577508882"><ele>287.5</ele><time>2026-04-16T12:44:50Z</time></trkpt><trkpt lat="43.116425963744646" lon="12.175145205284643"><ele>285.75</ele><time>2026-04-16T12:44:51Z</time></trkpt><trkpt lat="43.116480730002884" lon="12.175275801748327"><ele>284.0</ele><time>2026-04-16T12:44:52Z</time></trkpt><trkpt lat="43.116534414215074" lon="12.175395300327262"><ele>285.4</ele><time>2026-04-16T12:44:53Z</time></trkpt><trkpt lat="43.11658994265641" lon="12.175516657045819"><ele>286.79999999999995</ele><time>2026-04-16T12:44:54Z</time></trkpt><trkpt lat="43.11665342263043" lon="12.17564720424533"><ele>288.20000000000005</ele><time>2026-04-16T12:44:55Z</time></trkpt><trkpt lat="43.116718094330686" lon="12.1757729520494"><ele>289.6</ele><time>2026-04-16T12:44:56Z</time></trkpt><trkpt lat="43.11678613633253" lon="12.175896553150098"><ele>291.0</ele><time>2026-04-16T12:44:57Z</time></trkpt><trkpt lat="43.11685436153263" lon="12.176007885924363"><ele>291.0</ele><time>2026-04-16T12:44:58Z</time></trkpt><trkpt lat="43.116927131521315" lon="12.176117393373566"><ele>291.0</ele><time>2026-04-16T12:44:59Z</time></trkpt><trkpt lat="43.11703155468461" lon="12.17626806531573"><ele>291.0</ele><time>2026-04-16T12:45:01Z</time></trkpt><trkpt lat="43.11707783641886" lon="12.176351152465726"><ele>291.0</ele><time>2026-04-16T12:45:02Z</time></trkpt><trkpt lat="43.117121005951084" lon="12.176428004488999"><ele>291.0</ele><time>2026-04-16T12:45:03Z</time></trkpt><trkpt lat="43.117183700244254" lon="12.176538993967698"><ele>288.8</ele><time>2026-04-16T12:45:05Z</time></trkpt><trkpt lat="43.11719035895521" lon="12.176659887426826"><ele>286.6</ele><time>2026-04-16T12:45:08Z</time></trkpt><trkpt lat="43.117131492004816" lon="12.176697071145467"><ele>284.4</ele><time>2026-04-16T12:45:09Z</time></trkpt><trkpt lat="43.11704703937567" lon="12.176661336459585"><ele>282.2</ele><time>2026-04-16T12:45:10Z</time></trkpt><trkpt lat="43.11694806959786" lon="12.176629608729252"><ele>280.0</ele><time>2026-04-16T12:45:11Z</time></trkpt><trkpt lat="43.11682299344109" lon="12.17659313470534"><ele>280.0</ele><time>2026-04-16T12:45:12Z</time></trkpt><trkpt lat="43.11670231847148" lon="12.17657614920928"><ele>280.0</ele><time>2026-04-16T12:45:13Z</time></trkpt><trkpt lat="43.11660076464642" lon="12.176537393856314"><ele>280.0</ele><time>2026-04-16T12:45:14Z</time></trkpt><trkpt lat="43.11650569002109" lon="12.17650892597364"><ele>280.0</ele><time>2026-04-16T12:45:15Z</time></trkpt><trkpt lat="43.11641657101694" lon="12.176495870122483"><ele>280.0</ele><time>2026-04-16T12:45:16Z</time></trkpt><trkpt lat="43.11633844622538" lon="12.176499468108435"><ele>279.8</ele><time>2026-04-16T12:45:17Z</time></trkpt><trkpt lat="43.11623248251829" lon="12.176509925129864"><ele>279.6</ele><time>2026-04-16T12:45:19Z</time></trkpt><trkpt lat="43.11625489987335" lon="12.176685001801472"><ele>279.4</ele><time>2026-04-16T12:45:23Z</time></trkpt><trkpt lat="43.116263426293905" lon="12.176773422558545"><ele>279.2</ele><time>2026-04-16T12:45:24Z</time></trkpt><trkpt lat="43.1162931716646" lon="12.176874532510075"><ele>279.0</ele><time>2026-04-16T12:45:25Z</time></trkpt><trkpt lat="43.11633241774414" lon="12.17702871444019"><ele>277.8</ele><time>2026-04-16T12:45:27Z</time></trkpt><trkpt lat="43.11634795219057" lon="12.177166546843345"><ele>276.59999999999997</ele><time>2026-04-16T12:45:29Z</time></trkpt><trkpt lat="43.11636376409169" lon="12.177346185998557"><ele>275.4</ele><time>2026-04-16T12:45:31Z</time></trkpt><trkpt lat="43.11636724522109" lon="12.177437226707642"><ele>274.2</ele><time>2026-04-16T12:45:32Z</time></trkpt><trkpt lat="43.11634604853921" lon="12.177578337735383"><ele>273.0</ele><time>2026-04-16T12:45:34Z</time></trkpt><trkpt lat="43.1162913632065" lon="12.177653722263043"><ele>272.5</ele><time>2026-04-16T12:45:37Z</time></trkpt><trkpt lat="43.11624283235363" lon="12.177741845981114"><ele>272.0</ele><time>2026-04-16T12:45:39Z</time></trkpt><trkpt lat="43.1161932339487" lon="12.177843425143788"><ele>271.5</ele><time>2026-04-16T12:45:41.999Z</time></trkpt><trkpt lat="43.11614246095611" lon="12.177917261349968"><ele>271.0</ele><time>2026-04-16T12:45:43.999Z</time></trkpt><trkpt lat="43.11629719123809" lon="12.178259606633613"><ele>271.0</ele><time>2026-04-16T12:45:45.999Z</time></trkpt><trkpt lat="43.11631168436526" lon="12.178390059605622"><ele>271.0</ele><time>2026-04-16T12:45:47.999Z</time></trkpt><trkpt lat="43.116319166128896" lon="12.178492216176796"><ele>271.0</ele><time>2026-04-16T12:45:48.999Z</time></trkpt><trkpt lat="43.116300377159234" lon="12.178602875506256"><ele>271.0</ele><time>2026-04-16T12:45:49.999Z</time></trkpt><trkpt lat="43.11626541404201" lon="12.178718419471164"><ele>271.0</ele><time>2026-04-16T12:45:50.999Z</time></trkpt><trkpt lat="43.11623205664678" lon="12.178840170498265"><ele>271.0</ele><time>2026-04-16T12:45:51.999Z</time></trkpt><trkpt lat="43.11620528599247" lon="12.178951676342194"><ele>271.8333333333333</ele><time>2026-04-16T12:45:52.999Z</time></trkpt><trkpt lat="43.11616346303064" lon="12.17903371425772"><ele>272.66666666666663</ele><time>2026-04-16T12:45:53.999Z</time></trkpt><trkpt lat="43.116098959666594" lon="12.179112887638638"><ele>273.5</ele><time>2026-04-16T12:45:54.999Z</time></trkpt><trkpt lat="43.11605747436722" lon="12.179194679329493"><ele>274.3333333333333</ele><time>2026-04-16T12:45:55.999Z</time></trkpt><trkpt lat="43.11599494950624" lon="12.179343732217392"><ele>275.1666666666667</ele><time>2026-04-16T12:45:57.999Z</time></trkpt><trkpt lat="43.11595547178483" lon="12.17943558392761"><ele>276.0</ele><time>2026-04-16T12:45:58.999Z</time></trkpt><trkpt lat="43.115912878865984" lon="12.179510407307902"><ele>276.0</ele><time>2026-04-16T12:45:59.999Z</time></trkpt><trkpt lat="43.11586612547045" lon="12.17957650070868"><ele>276.0</ele><time>2026-04-16T12:46:00.999Z</time></trkpt><trkpt lat="43.11578712810597" lon="12.179699875441655"><ele>276.0</ele><time>2026-04-16T12:46:02.999Z</time></trkpt><trkpt lat="43.1157357611978" lon="12.179780098062485"><ele>276.0</ele><time>2026-04-16T12:46:03.999Z</time></trkpt><trkpt lat="43.11570401866807" lon="12.179911604153569"><ele>276.0</ele><time>2026-04-16T12:46:04.999Z</time></trkpt><trkpt lat="43.11561719685288" lon="12.179984436604599"><ele>275.3333333333333</ele><time>2026-04-16T12:46:05.999Z</time></trkpt><trkpt lat="43.11555160704243" lon="12.180062656618304"><ele>274.6666666666667</ele><time>2026-04-16T12:46:06.999Z</time></trkpt><trkpt lat="43.11548560495131" lon="12.1801389889309"><ele>274.0</ele><time>2026-04-16T12:46:07.999Z</time></trkpt><trkpt lat="43.11542696851814" lon="12.180210457214885"><ele>273.33333333333337</ele><time>2026-04-16T12:46:08.999Z</time></trkpt><trkpt lat="43.115390215484624" lon="12.180285092445372"><ele>272.6666666666667</ele><time>2026-04-16T12:46:09.999Z</time></trkpt><trkpt lat="43.11532554990406" lon="12.180334614199309"><ele>272.0</ele><time>2026-04-16T12:46:11.999Z</time></trkpt><trkpt lat="43.11539687958644" lon="12.18051968963684"><ele>272.0</ele><time>2026-04-16T12:46:14.999Z</time></trkpt><trkpt lat="43.11547060326204" lon="12.180604844255521"><ele>272.0</ele><time>2026-04-16T12:46:15.999Z</time></trkpt><trkpt lat="43.115545556634835" lon="12.180722126202504"><ele>272.0</ele><time>2026-04-16T12:46:16.999Z</time></trkpt><trkpt lat="43.11562933179739" lon="12.180824889311362"><ele>272.0</ele><time>2026-04-16T12:46:17.999Z</time></trkpt><trkpt lat="43.11570041407573" lon="12.180921126840136"><ele>272.0</ele><time>2026-04-16T12:46:18.999Z</time></trkpt><trkpt lat="43.11574332159306" lon="12.180991901633481"><ele>272.5</ele><time>2026-04-16T12:46:19.999Z</time></trkpt><trkpt lat="43.11575644021664" lon="12.181109158192184"><ele>273.0</ele><time>2026-04-16T12:46:21.999Z</time></trkpt><trkpt lat="43.11560871577488" lon="12.181309675716848"><ele>273.5</ele><time>2026-04-16T12:46:23.999Z</time></trkpt><trkpt lat="43.11553760262716" lon="12.181423454770641"><ele>274.0</ele><time>2026-04-16T12:46:25Z</time></trkpt><trkpt lat="43.115492909066404" lon="12.181522023918873"><ele>274.5</ele><time>2026-04-16T12:46:26Z</time></trkpt><trkpt lat="43.11545845424251" lon="12.181621815545517"><ele>275.0</ele><time>2026-04-16T12:46:27Z</time></trkpt><trkpt lat="43.11543407278323" lon="12.181725299507129"><ele>275.5</ele><time>2026-04-16T12:46:28Z</time></trkpt><trkpt lat="43.11540417453846" lon="12.181820218006573"><ele>276.0</ele><time>2026-04-16T12:46:29Z</time></trkpt><trkpt lat="43.11539789907128" lon="12.181918412995515"><ele>276.5</ele><time>2026-04-16T12:46:30Z</time></trkpt><trkpt lat="43.11540709378463" lon="12.182013901265314"><ele>277.0</ele><time>2026-04-16T12:46:31Z</time></trkpt><trkpt lat="43.1154919518634" lon="12.182099882389595"><ele>277.0</ele><time>2026-04-16T12:46:32Z</time></trkpt><trkpt lat="43.1155588183305" lon="12.182162467148961"><ele>277.0</ele><time>2026-04-16T12:46:33Z</time></trkpt><trkpt lat="43.11564684477908" lon="12.182217465344609"><ele>277.0</ele><time>2026-04-16T12:46:34Z</time></trkpt><trkpt lat="43.11571751014662" lon="12.1822980715137"><ele>277.0</ele><time>2026-04-16T12:46:35Z</time></trkpt><trkpt lat="43.115783145300284" lon="12.182403018081509"><ele>277.0</ele><time>2026-04-16T12:46:36Z</time></trkpt><trkpt lat="43.11584479868058" lon="12.18252424473289"><ele>281.0</ele><time>2026-04-16T12:46:37Z</time></trkpt><trkpt lat="43.115922334763106" lon="12.182696459883562"><ele>285.0</ele><time>2026-04-16T12:46:38Z</time></trkpt><trkpt lat="43.116017685201655" lon="12.182858780457265"><ele>289.0</ele><time>2026-04-16T12:46:39Z</time></trkpt><trkpt lat="43.116102886527905" lon="12.183040660175758"><ele>289.0</ele><time>2026-04-16T12:46:40Z</time></trkpt><trkpt lat="43.116175982323334" lon="12.183176813257187"><ele>289.0</ele><time>2026-04-16T12:46:41Z</time></trkpt><trkpt lat="43.11625640835216" lon="12.183256577766334"><ele>289.0</ele><time>2026-04-16T12:46:42Z</time></trkpt><trkpt lat="43.116332540359465" lon="12.183339632674839"><ele>289.0</ele><time>2026-04-16T12:46:43Z</time></trkpt><trkpt lat="43.116409094132074" lon="12.183406527600376"><ele>289.0</ele><time>2026-04-16T12:46:44Z</time></trkpt><trkpt lat="43.11646146388198" lon="12.183482290301495"><ele>288.8333333333333</ele><time>2026-04-16T12:46:45Z</time></trkpt><trkpt lat="43.11652411266202" lon="12.183530100499727"><ele>288.66666666666663</ele><time>2026-04-16T12:46:46Z</time></trkpt><trkpt lat="43.11659515636047" lon="12.183571901032591"><ele>288.5</ele><time>2026-04-16T12:46:47Z</time></trkpt><trkpt lat="43.116671776654115" lon="12.183567607415771"><ele>288.3333333333333</ele><time>2026-04-16T12:46:48Z</time></trkpt><trkpt lat="43.1167504009314" lon="12.183490802451942"><ele>288.1666666666667</ele><time>2026-04-16T12:46:49Z</time></trkpt><trkpt lat="43.11683067842487" lon="12.183407697566318"><ele>288.0</ele><time>2026-04-16T12:46:50Z</time></trkpt><trkpt lat="43.11692406187795" lon="12.183364603034805"><ele>291.4</ele><time>2026-04-16T12:46:51Z</time></trkpt><trkpt lat="43.116990802238256" lon="12.18334737163197"><ele>294.8</ele><time>2026-04-16T12:46:52Z</time></trkpt><trkpt lat="43.11706563969145" lon="12.183360677098793"><ele>298.2</ele><time>2026-04-16T12:46:53Z</time></trkpt><trkpt lat="43.117147861548204" lon="12.18340410650564"><ele>301.6</ele><time>2026-04-16T12:47:03Z</time></trkpt><trkpt lat="43.11726383398819" lon="12.183465348370982"><ele>305.0</ele><time>2026-04-16T12:47:05Z</time></trkpt><trkpt lat="43.11736173520521" lon="12.183489401213158"><ele>307.8</ele><time>2026-04-16T12:47:06Z</time></trkpt><trkpt lat="43.11747728889941" lon="12.183485158481481"><ele>310.6</ele><time>2026-04-16T12:47:07Z</time></trkpt><trkpt lat="43.117563411286454" lon="12.183500105158355"><ele>313.4</ele><time>2026-04-16T12:47:08Z</time></trkpt><trkpt lat="43.11767669260408" lon="12.18351557286931"><ele>316.2</ele><time>2026-04-16T12:47:10Z</time></trkpt><trkpt lat="43.11775402065696" lon="12.183524154728628"><ele>319.0</ele><time>2026-04-16T12:47:11Z</time></trkpt><trkpt lat="43.117844010132536" lon="12.183513750758971"><ele>319.0</ele><time>2026-04-16T12:47:12Z</time></trkpt><trkpt lat="43.11793714582905" lon="12.183538866822873"><ele>319.0</ele><time>2026-04-16T12:47:13Z</time></trkpt><trkpt lat="43.11800549094481" lon="12.183574103791761"><ele>319.0</ele><time>2026-04-16T12:47:14Z</time></trkpt><trkpt lat="43.11785879871614" lon="12.183678055726872"><ele>319.0</ele><time>2026-04-16T12:47:19Z</time></trkpt><trkpt lat="43.117799228405666" lon="12.183727914105487"><ele>319.0</ele><time>2026-04-16T12:47:20Z</time></trkpt><trkpt lat="43.117748845511656" lon="12.183843649263746"><ele>319.0</ele><time>2026-04-16T12:47:22Z</time></trkpt><trkpt lat="43.11777519746577" lon="12.183758859032102"><ele>319.0</ele><time>2026-04-16T12:47:43.999Z</time></trkpt><trkpt lat="43.1178696935982" lon="12.183653188641488"><ele>319.0</ele><time>2026-04-16T12:47:45.999Z</time></trkpt><trkpt lat="43.11797679814471" lon="12.183627503388466"><ele>319.0</ele><time>2026-04-16T12:47:47.999Z</time></trkpt><trkpt lat="43.11805061065731" lon="12.183619657167059"><ele>319.0</ele><time>2026-04-16T12:47:49.999Z</time></trkpt><trkpt lat="43.118099752537795" lon="12.183555728651518"><ele>319.0</ele><time>2026-04-16T12:47:51.999Z</time></trkpt><trkpt lat="43.11803849168783" lon="12.183681055042925"><ele>321.75</ele><time>2026-04-16T12:47:53.999Z</time></trkpt><trkpt lat="43.118291450054706" lon="12.183835657981161"><ele>324.5</ele><time>2026-04-16T12:47:54.999Z</time></trkpt><trkpt lat="43.11834999333868" lon="12.183888743828787"><ele>327.25</ele><time>2026-04-16T12:47:55.999Z</time></trkpt><trkpt lat="43.11840431909381" lon="12.183938005306839"><ele>330.0</ele><time>2026-04-16T12:47:56.999Z</time></trkpt><trkpt lat="43.11853809724917" lon="12.183787626192808"><ele>330.0</ele><time>2026-04-16T12:47:57.999Z</time></trkpt><trkpt lat="43.11860756162409" lon="12.183804823129645"><ele>330.0</ele><time>2026-04-16T12:48:00.999Z</time></trkpt><trkpt lat="43.118555923947625" lon="12.183867611333804"><ele>330.0</ele><time>2026-04-16T12:48:02.999Z</time></trkpt><trkpt lat="43.11842849976246" lon="12.18387637449178"><ele>330.0</ele><time>2026-04-16T12:48:04.999Z</time></trkpt><trkpt lat="43.11832772884104" lon="12.183893999402082"><ele>330.0</ele><time>2026-04-16T12:48:06.999Z</time></trkpt><trkpt lat="43.11824759066815" lon="12.183922976516401"><ele>329.5</ele><time>2026-04-16T12:48:08.999Z</time></trkpt><trkpt lat="43.11819768789617" lon="12.1840096232343"><ele>329.0</ele><time>2026-04-16T12:48:10.999Z</time></trkpt><trkpt lat="43.11817492416966" lon="12.184141920324349"><ele>328.5</ele><time>2026-04-16T12:48:12.999Z</time></trkpt><trkpt lat="43.11822183060959" lon="12.184221651566094"><ele>328.0</ele><time>2026-04-16T12:48:14.999Z</time></trkpt><trkpt lat="43.118313700703226" lon="12.18432205739267"><ele>327.5</ele><time>2026-04-16T12:48:16.999Z</time></trkpt><trkpt lat="43.118335285294414" lon="12.184411331940973"><ele>327.0</ele><time>2026-04-16T12:48:17.999Z</time></trkpt><trkpt lat="43.118374063743744" lon="12.184496028556167"><ele>329.5</ele><time>2026-04-16T12:48:18.999Z</time></trkpt><trkpt lat="43.11843522261644" lon="12.184579848864374"><ele>332.0</ele><time>2026-04-16T12:48:19.999Z</time></trkpt><trkpt lat="43.11846935258719" lon="12.18465737483233"><ele>334.5</ele><time>2026-04-16T12:48:20.999Z</time></trkpt><trkpt lat="43.118488986932185" lon="12.18474044732996"><ele>337.0</ele><time>2026-04-16T12:48:21.999Z</time></trkpt><trkpt lat="43.11851679750537" lon="12.184852360184495"><ele>339.5</ele><time>2026-04-16T12:48:23.999Z</time></trkpt><trkpt lat="43.11859693127013" lon="12.184914078423507"><ele>342.0</ele><time>2026-04-16T12:48:25.999Z</time></trkpt><trkpt lat="43.118658226414475" lon="12.185010048831089"><ele>344.0</ele><time>2026-04-16T12:48:27.999Z</time></trkpt><trkpt lat="43.11878192353264" lon="12.185024050853011"><ele>346.0</ele><time>2026-04-16T12:48:29.999Z</time></trkpt><trkpt lat="43.11888635696793" lon="12.185089651983942"><ele>348.0</ele><time>2026-04-16T12:48:32Z</time></trkpt><trkpt lat="43.11890344298039" lon="12.185204772718398"><ele>350.0</ele><time>2026-04-16T12:48:41Z</time></trkpt><trkpt lat="43.11889912249203" lon="12.185316007759228"><ele>352.0</ele><time>2026-04-16T12:48:42Z</time></trkpt><trkpt lat="43.11892087224903" lon="12.185455569932076"><ele>352.0</ele><time>2026-04-16T12:48:44Z</time></trkpt><trkpt lat="43.118973651988696" lon="12.185581496161037"><ele>352.0</ele><time>2026-04-16T12:48:46Z</time></trkpt><trkpt lat="43.11905666299509" lon="12.185672795968019"><ele>352.0</ele><time>2026-04-16T12:48:48Z</time></trkpt><trkpt lat="43.11912927492338" lon="12.185725557472331"><ele>352.0</ele><time>2026-04-16T12:48:50Z</time></trkpt><trkpt lat="43.119178658053706" lon="12.185781202323575"><ele>352.0</ele><time>2026-04-16T12:48:52Z</time></trkpt><trkpt lat="43.11923505036542" lon="12.18586549597228"><ele>352.0</ele><time>2026-04-16T12:48:54Z</time></trkpt><trkpt lat="43.11926593306422" lon="12.185961249182752"><ele>354.57142857142856</ele><time>2026-04-16T12:48:57Z</time></trkpt><trkpt lat="43.11930619361289" lon="12.186055327288917"><ele>357.1428571428571</ele><time>2026-04-16T12:49:00Z</time></trkpt><trkpt lat="43.11935388966404" lon="12.186121481225738"><ele>359.71428571428567</ele><time>2026-04-16T12:49:02Z</time></trkpt><trkpt lat="43.119383066124506" lon="12.186212115479162"><ele>362.2857142857143</ele><time>2026-04-16T12:49:04Z</time></trkpt><trkpt lat="43.11941845618759" lon="12.186300343934994"><ele>364.85714285714283</ele><time>2026-04-16T12:49:06Z</time></trkpt><trkpt lat="43.119463371839934" lon="12.186394138306465"><ele>367.4285714285714</ele><time>2026-04-16T12:49:08Z</time></trkpt><trkpt lat="43.11949799830664" lon="12.18647546944505"><ele>370.0</ele><time>2026-04-16T12:49:10Z</time></trkpt><trkpt lat="43.11952374184902" lon="12.186567393029836"><ele>370.0</ele><time>2026-04-16T12:49:12Z</time></trkpt><trkpt lat="43.119535927519294" lon="12.186674672681987"><ele>370.0</ele><time>2026-04-16T12:49:14Z</time></trkpt><trkpt lat="43.11955113524201" lon="12.186782765256812"><ele>370.0</ele><time>2026-04-16T12:49:15.999Z</time></trkpt><trkpt lat="43.1195560532354" lon="12.186913404375439"><ele>370.0</ele><time>2026-04-16T12:49:17.999Z</time></trkpt><trkpt lat="43.119560604360345" lon="12.187002180281715"><ele>370.0</ele><time>2026-04-16T12:49:19.999Z</time></trkpt><trkpt lat="43.119582543690456" lon="12.187106853667343"><ele>370.0</ele><time>2026-04-16T12:49:21.999Z</time></trkpt><trkpt lat="43.119602303540375" lon="12.18719129496298"><ele>369.99999999999994</ele><time>2026-04-16T12:49:23.999Z</time></trkpt><trkpt lat="43.119642753933" lon="12.187271896653673"><ele>370.0</ele><time>2026-04-16T12:49:26.999Z</time></trkpt><trkpt lat="43.119695740997095" lon="12.187356465984655"><ele>370.0</ele><time>2026-04-16T12:49:29.999Z</time></trkpt><trkpt lat="43.11974080739926" lon="12.18743100261844"><ele>370.0</ele><time>2026-04-16T12:49:48.999Z</time></trkpt><trkpt lat="43.11980762762448" lon="12.187454687410865"><ele>370.0</ele><time>2026-04-16T12:49:52.999Z</time></trkpt><trkpt lat="43.11987098705874" lon="12.187507609020411"><ele>369.99999999999994</ele><time>2026-04-16T12:49:55.999Z</time></trkpt><trkpt lat="43.11980773029752" lon="12.187565255116297"><ele>370.0</ele><time>2026-04-16T12:50:48.999Z</time></trkpt><trkpt lat="43.119737804237445" lon="12.187629421911106"><ele>372.0</ele><time>2026-04-16T12:50:51.999Z</time></trkpt><trkpt lat="43.11965149428619" lon="12.187652668790085"><ele>374.0</ele><time>2026-04-16T12:50:54.999Z</time></trkpt><trkpt lat="43.11957751485127" lon="12.187693100538809"><ele>376.0</ele><time>2026-04-16T12:50:57.999Z</time></trkpt><trkpt lat="43.119495438764474" lon="12.187736862859316"><ele>378.0</ele><time>2026-04-16T12:51:00.999Z</time></trkpt><trkpt lat="43.119301827687835" lon="12.187927354977077"><ele>378.0</ele><time>2026-04-16T12:51:03.999Z</time></trkpt><trkpt lat="43.119241475279686" lon="12.187971399026283"><ele>378.0</ele><time>2026-04-16T12:51:05.999Z</time></trkpt><trkpt lat="43.11917036289667" lon="12.188028490667122"><ele>378.0</ele><time>2026-04-16T12:52:01.999Z</time></trkpt><trkpt lat="43.11909875527504" lon="12.18806556134202"><ele>378.0</ele><time>2026-04-16T12:52:04.999Z</time></trkpt><trkpt lat="43.11904236420015" lon="12.188148017776802"><ele>378.0</ele><time>2026-04-16T12:52:07.999Z</time></trkpt><trkpt lat="43.119000913888655" lon="12.188242378520533"><ele>378.0</ele><time>2026-04-16T12:52:09.999Z</time></trkpt><trkpt lat="43.118961843052446" lon="12.1883807318145"><ele>376.79999999999995</ele><time>2026-04-16T12:52:11.999Z</time></trkpt><trkpt lat="43.11888626479765" lon="12.18845046818639"><ele>375.6</ele><time>2026-04-16T12:52:13.999Z</time></trkpt><trkpt lat="43.1188032463596" lon="12.188561983555681"><ele>374.4</ele><time>2026-04-16T12:52:15.999Z</time></trkpt><trkpt lat="43.11873133325861" lon="12.188649602810843"><ele>373.20000000000005</ele><time>2026-04-16T12:52:17.999Z</time></trkpt><trkpt lat="43.11864443022236" lon="12.188722198536297"><ele>372.0</ele><time>2026-04-16T12:52:19.999Z</time></trkpt><trkpt lat="43.11856530200294" lon="12.188813410801513"><ele>372.0</ele><time>2026-04-16T12:52:21.999Z</time></trkpt><trkpt lat="43.1185090862515" lon="12.188882199614667"><ele>372.0</ele><time>2026-04-16T12:52:23.999Z</time></trkpt><trkpt lat="43.118417020639235" lon="12.188913724953268"><ele>372.0</ele><time>2026-04-16T12:52:25.999Z</time></trkpt><trkpt lat="43.11832227496133" lon="12.188955227799921"><ele>372.0</ele><time>2026-04-16T12:52:27.999Z</time></trkpt><trkpt lat="43.11825909376711" lon="12.188984031471541"><ele>372.0</ele><time>2026-04-16T12:52:29.999Z</time></trkpt><trkpt lat="43.118183953408106" lon="12.189017528927188"><ele>372.0</ele><time>2026-04-16T12:52:38.999Z</time></trkpt><trkpt lat="43.118254624838784" lon="12.189008405608332"><ele>374.0</ele><time>2026-04-16T12:52:51.999Z</time></trkpt><trkpt lat="43.11832182610148" lon="12.189044989494814"><ele>376.0</ele><time>2026-04-16T12:52:53.999Z</time></trkpt><trkpt lat="43.11836384427498" lon="12.189124546473993"><ele>378.0</ele><time>2026-04-16T12:52:55.999Z</time></trkpt><trkpt lat="43.11837783908622" lon="12.189211662917279"><ele>380.0</ele><time>2026-04-16T12:52:56.999Z</time></trkpt><trkpt lat="43.11840880366151" lon="12.189326538212706"><ele>382.0</ele><time>2026-04-16T12:52:58.999Z</time></trkpt><trkpt lat="43.118427847746354" lon="12.18942779738897"><ele>384.0</ele><time>2026-04-16T12:53:00.999Z</time></trkpt><trkpt lat="43.11846542877159" lon="12.189526192692993"><ele>384.0</ele><time>2026-04-16T12:53:02.999Z</time></trkpt><trkpt lat="43.11843268592624" lon="12.18960001185318"><ele>384.0</ele><time>2026-04-16T12:53:04.999Z</time></trkpt><trkpt lat="43.11835016992687" lon="12.189609274054872"><ele>384.0</ele><time>2026-04-16T12:53:07.999Z</time></trkpt><trkpt lat="43.118273602543496" lon="12.18960380014433"><ele>384.0</ele><time>2026-04-16T12:53:09.999Z</time></trkpt><trkpt lat="43.118171126278305" lon="12.189593204711924"><ele>384.0</ele><time>2026-04-16T12:53:11.999Z</time></trkpt><trkpt lat="43.11809672548319" lon="12.189700199667769"><ele>384.0</ele><time>2026-04-16T12:53:13.999Z</time></trkpt><trkpt lat="43.11806971189212" lon="12.18977950490198"><ele>382.2</ele><time>2026-04-16T12:53:14.999Z</time></trkpt><trkpt lat="43.11800915041811" lon="12.18989823419353"><ele>380.4</ele><time>2026-04-16T12:53:16.999Z</time></trkpt><trkpt lat="43.1179094213531" lon="12.189965439645922"><ele>378.6</ele><time>2026-04-16T12:53:18.999Z</time></trkpt><trkpt lat="43.11779972351573" lon="12.189987500678127"><ele>376.8</ele><time>2026-04-16T12:53:20.999Z</time></trkpt><trkpt lat="43.117689790016456" lon="12.189995739220555"><ele>375.0</ele><time>2026-04-16T12:53:22.999Z</time></trkpt><trkpt lat="43.11758987951051" lon="12.190030446328217"><ele>375.0</ele><time>2026-04-16T12:53:24.999Z</time></trkpt><trkpt lat="43.11752495766307" lon="12.19003790524564"><ele>375.0</ele><time>2026-04-16T12:53:25.999Z</time></trkpt><trkpt lat="43.11746078249054" lon="12.190022319527445"><ele>375.0</ele><time>2026-04-16T12:53:26.999Z</time></trkpt><trkpt lat="43.117400064485395" lon="12.18999691710237"><ele>375.0</ele><time>2026-04-16T12:53:27.999Z</time></trkpt><trkpt lat="43.11733853811596" lon="12.18996850499769"><ele>375.0</ele><time>2026-04-16T12:53:28.999Z</time></trkpt><trkpt lat="43.117217161447456" lon="12.189938108947448"><ele>375.0</ele><time>2026-04-16T12:53:30.999Z</time></trkpt><trkpt lat="43.11715610774386" lon="12.189915014667507"><ele>375.0</ele><time>2026-04-16T12:53:31.999Z</time></trkpt><trkpt lat="43.11709064903886" lon="12.189899930921538"><ele>372.25</ele><time>2026-04-16T12:53:32.999Z</time></trkpt><trkpt lat="43.11697228012663" lon="12.189920341096501"><ele>369.5</ele><time>2026-04-16T12:53:34.999Z</time></trkpt><trkpt lat="43.11689981822282" lon="12.19004361058581"><ele>366.75</ele><time>2026-04-16T12:53:36.999Z</time></trkpt><trkpt lat="43.11684702920622" lon="12.190174487641194"><ele>364.0</ele><time>2026-04-16T12:53:38.999Z</time></trkpt><trkpt lat="43.116760148116136" lon="12.190280640167675"><ele>364.0</ele><time>2026-04-16T12:53:40.999Z</time></trkpt><trkpt lat="43.11666541967914" lon="12.19036176899448"><ele>364.0</ele><time>2026-04-16T12:53:42.999Z</time></trkpt><trkpt lat="43.11658277472005" lon="12.190383941148824"><ele>364.0</ele><time>2026-04-16T12:53:44.999Z</time></trkpt><trkpt lat="43.11666751281" lon="12.190370492882503"><ele>364.0</ele><time>2026-04-16T12:54:15.999Z</time></trkpt><trkpt lat="43.11673364680778" lon="12.190300093207304"><ele>364.0</ele><time>2026-04-16T12:54:16.999Z</time></trkpt><trkpt lat="43.11680461202334" lon="12.190218785311524"><ele>364.0</ele><time>2026-04-16T12:54:17.999Z</time></trkpt><trkpt lat="43.11688573079529" lon="12.190120281246983"><ele>364.0</ele><time>2026-04-16T12:54:18.999Z</time></trkpt><trkpt lat="43.11694377983697" lon="12.190022616773646"><ele>364.0</ele><time>2026-04-16T12:54:19.999Z</time></trkpt><trkpt lat="43.1169874005525" lon="12.189944792425221"><ele>364.0</ele><time>2026-04-16T12:54:20.999Z</time></trkpt><trkpt lat="43.11704536497135" lon="12.189897476609488"><ele>364.0</ele><time>2026-04-16T12:54:21.999Z</time></trkpt><trkpt lat="43.117114711015645" lon="12.189893285777941"><ele>364.0</ele><time>2026-04-16T12:54:22.999Z</time></trkpt><trkpt lat="43.117204789234854" lon="12.18991681910609"><ele>364.0</ele><time>2026-04-16T12:54:23.999Z</time></trkpt><trkpt lat="43.11731865361438" lon="12.189966335456313"><ele>364.0</ele><time>2026-04-16T12:54:24.999Z</time></trkpt><trkpt lat="43.117437831396884" lon="12.189995409052147"><ele>364.0</ele><time>2026-04-16T12:54:25.999Z</time></trkpt><trkpt lat="43.117526867818974" lon="12.19002786982282"><ele>364.0</ele><time>2026-04-16T12:54:26.999Z</time></trkpt><trkpt lat="43.117598393603465" lon="12.190041828290422"><ele>364.0</ele><time>2026-04-16T12:54:27.999Z</time></trkpt><trkpt lat="43.117680838975105" lon="12.190018488475472"><ele>366.2</ele><time>2026-04-16T12:54:28.999Z</time></trkpt><trkpt lat="43.11778151418383" lon="12.189977868024673"><ele>368.4</ele><time>2026-04-16T12:54:29.999Z</time></trkpt><trkpt lat="43.117878042670604" lon="12.189951494898668"><ele>370.6</ele><time>2026-04-16T12:54:30.999Z</time></trkpt><trkpt lat="43.11795726102876" lon="12.189928510587366"><ele>372.8</ele><time>2026-04-16T12:54:31.999Z</time></trkpt><trkpt lat="43.11805209362358" lon="12.189830504301318"><ele>375.0</ele><time>2026-04-16T12:54:33.999Z</time></trkpt><trkpt lat="43.118088605833094" lon="12.189746267485228"><ele>375.6</ele><time>2026-04-16T12:54:34.999Z</time></trkpt><trkpt lat="43.118116750193046" lon="12.189665441103438"><ele>376.2</ele><time>2026-04-16T12:54:35.999Z</time></trkpt><trkpt lat="43.118168217224074" lon="12.189545516700248"><ele>376.79999999999995</ele><time>2026-04-16T12:54:37.999Z</time></trkpt><trkpt lat="43.11823453591278" lon="12.18957908482724"><ele>377.4</ele><time>2026-04-16T12:54:42.999Z</time></trkpt><trkpt lat="43.118375950471815" lon="12.18959595666285"><ele>378.0</ele><time>2026-04-16T12:54:44.999Z</time></trkpt><trkpt lat="43.118475587503234" lon="12.189596673305168"><ele>379.0</ele><time>2026-04-16T12:54:45.999Z</time></trkpt><trkpt lat="43.11857209739158" lon="12.189619530226603"><ele>380.0</ele><time>2026-04-16T12:54:46.999Z</time></trkpt><trkpt lat="43.11866377127983" lon="12.189647892986603"><ele>381.0</ele><time>2026-04-16T12:54:47.999Z</time></trkpt><trkpt lat="43.11874143551849" lon="12.189667120507432"><ele>382.0</ele><time>2026-04-16T12:54:48.999Z</time></trkpt><trkpt lat="43.11881100117074" lon="12.189693029880553"><ele>383.0</ele><time>2026-04-16T12:54:49.999Z</time></trkpt><trkpt lat="43.11887719693049" lon="12.189713963576015"><ele>384.0</ele><time>2026-04-16T12:54:50.999Z</time></trkpt><trkpt lat="43.118952797954385" lon="12.189743309912311"><ele>384.0</ele><time>2026-04-16T12:54:51.999Z</time></trkpt><trkpt lat="43.11902516277229" lon="12.189771781079168"><ele>384.0</ele><time>2026-04-16T12:54:52.999Z</time></trkpt><trkpt lat="43.119103213779375" lon="12.189796522339467"><ele>384.0</ele><time>2026-04-16T12:54:53.999Z</time></trkpt><trkpt lat="43.11916829128225" lon="12.189808395100872"><ele>384.0</ele><time>2026-04-16T12:54:54.999Z</time></trkpt><trkpt lat="43.11929072070208" lon="12.189798866535162"><ele>384.0</ele><time>2026-04-16T12:54:56.999Z</time></trkpt><trkpt lat="43.119365295002105" lon="12.189803331723201"><ele>384.0</ele><time>2026-04-16T12:54:57.999Z</time></trkpt><trkpt lat="43.11943129402073" lon="12.189793541333575"><ele>386.0</ele><time>2026-04-16T12:54:58.999Z</time></trkpt><trkpt lat="43.119493420980945" lon="12.189771109921354"><ele>388.0</ele><time>2026-04-16T12:54:59.999Z</time></trkpt><trkpt lat="43.11957800644401" lon="12.189753680987852"><ele>390.0</ele><time>2026-04-16T12:55:01.999Z</time></trkpt><trkpt lat="43.119655803991904" lon="12.189735768518725"><ele>392.0</ele><time>2026-04-16T12:55:08.999Z</time></trkpt><trkpt lat="43.11974856710469" lon="12.189604106087282"><ele>394.0</ele><time>2026-04-16T12:55:11Z</time></trkpt><trkpt lat="43.11982394997962" lon="12.189510248160685"><ele>394.0</ele><time>2026-04-16T12:55:13Z</time></trkpt><trkpt lat="43.1198844631814" lon="12.189399907226022"><ele>394.0</ele><time>2026-04-16T12:55:15Z</time></trkpt><trkpt lat="43.119967471740566" lon="12.189287585825744"><ele>394.0</ele><time>2026-04-16T12:55:17Z</time></trkpt><trkpt lat="43.120046999149075" lon="12.189179692430079"><ele>394.0</ele><time>2026-04-16T12:55:19Z</time></trkpt><trkpt lat="43.1201406648173" lon="12.189079155634067"><ele>394.0</ele><time>2026-04-16T12:55:21Z</time></trkpt><trkpt lat="43.1202313736187" lon="12.189017006830323"><ele>393.6</ele><time>2026-04-16T12:55:23Z</time></trkpt><trkpt lat="43.120326922860514" lon="12.189045899723089"><ele>393.2</ele><time>2026-04-16T12:55:25Z</time></trkpt><trkpt lat="43.120412893637564" lon="12.18908463648937"><ele>392.8</ele><time>2026-04-16T12:55:27Z</time></trkpt><trkpt lat="43.12049851880209" lon="12.189095549273707"><ele>392.40000000000003</ele><time>2026-04-16T12:55:29Z</time></trkpt><trkpt lat="43.120593596238955" lon="12.189113327663243"><ele>392.0</ele><time>2026-04-16T12:55:31Z</time></trkpt><trkpt lat="43.120695562136326" lon="12.189132378384642"><ele>388.3333333333333</ele><time>2026-04-16T12:55:33Z</time></trkpt><trkpt lat="43.12077979497347" lon="12.189165513102047"><ele>384.66666666666663</ele><time>2026-04-16T12:55:35Z</time></trkpt><trkpt lat="43.12086437252116" lon="12.189161853867919"><ele>381.0</ele><time>2026-04-16T12:55:37Z</time></trkpt><trkpt lat="43.12096239117672" lon="12.18919501282748"><ele>377.3333333333333</ele><time>2026-04-16T12:55:38.999Z</time></trkpt><trkpt lat="43.12104259408299" lon="12.189212914897697"><ele>373.66666666666663</ele><time>2026-04-16T12:55:40.999Z</time></trkpt><trkpt lat="43.12111190298424" lon="12.18925942769664"><ele>370.0</ele><time>2026-04-16T12:55:42.999Z</time></trkpt><trkpt lat="43.12116805870593" lon="12.189309844159334"><ele>370.0</ele><time>2026-04-16T12:55:44.999Z</time></trkpt><trkpt lat="43.121234865483366" lon="12.189286849087186"><ele>370.0</ele><time>2026-04-16T12:55:47.999Z</time></trkpt><trkpt lat="43.12115968170288" lon="12.189292462609615"><ele>370.0</ele><time>2026-04-16T12:57:02Z</time></trkpt><trkpt lat="43.12107700198969" lon="12.1892377707389"><ele>370.0</ele><time>2026-04-16T12:57:04Z</time></trkpt><trkpt lat="43.121004116778884" lon="12.189222342536437"><ele>370.0</ele><time>2026-04-16T12:57:06Z</time></trkpt><trkpt lat="43.12093181127223" lon="12.189198986622673"><ele>370.0</ele><time>2026-04-16T12:57:08Z</time></trkpt><trkpt lat="43.12084023015521" lon="12.189179037393737"><ele>370.0</ele><time>2026-04-16T12:57:10Z</time></trkpt><trkpt lat="43.120753610711475" lon="12.189179982452806"><ele>370.0</ele><time>2026-04-16T12:57:12Z</time></trkpt><trkpt lat="43.120682709971305" lon="12.18914246685897"><ele>370.0</ele><time>2026-04-16T12:57:14Z</time></trkpt><trkpt lat="43.12058123025889" lon="12.189126717864024"><ele>370.0</ele><time>2026-04-16T12:57:16Z</time></trkpt><trkpt lat="43.120519232126895" lon="12.189109811263657"><ele>370.0</ele><time>2026-04-16T12:57:17Z</time></trkpt><trkpt lat="43.12042393814199" lon="12.189092243129952"><ele>370.0</ele><time>2026-04-16T12:57:19Z</time></trkpt><trkpt lat="43.120339667909086" lon="12.18905516424033"><ele>374.4</ele><time>2026-04-16T12:57:21Z</time></trkpt><trkpt lat="43.120245768844676" lon="12.1890272290197"><ele>378.8</ele><time>2026-04-16T12:57:23Z</time></trkpt><trkpt lat="43.12014446452126" lon="12.189096196553825"><ele>383.20000000000005</ele><time>2026-04-16T12:57:29Z</time></trkpt><trkpt lat="43.12009087687915" lon="12.189156686007466"><ele>387.6</ele><time>2026-04-16T12:57:30Z</time></trkpt><trkpt lat="43.120012116772514" lon="12.189250117285642"><ele>392.0</ele><time>2026-04-16T12:57:32Z</time></trkpt><trkpt lat="43.119918425500046" lon="12.189352849766811"><ele>392.3333333333333</ele><time>2026-04-16T12:57:34Z</time></trkpt><trkpt lat="43.11985162913483" lon="12.189464680161816"><ele>392.66666666666663</ele><time>2026-04-16T12:57:36Z</time></trkpt><trkpt lat="43.119785102051985" lon="12.189578290514206"><ele>393.0</ele><time>2026-04-16T12:57:38Z</time></trkpt><trkpt lat="43.11971375773597" lon="12.189657747640194"><ele>393.33333333333337</ele><time>2026-04-16T12:57:40Z</time></trkpt><trkpt lat="43.119665993581414" lon="12.189730178211775"><ele>393.6666666666667</ele><time>2026-04-16T12:57:42Z</time></trkpt><trkpt lat="43.119722356114174" lon="12.189786768150725"><ele>394.0</ele><time>2026-04-16T13:01:15Z</time></trkpt><trkpt lat="43.11977988874394" lon="12.189852947659427"><ele>392.33333333333337</ele><time>2026-04-16T13:01:18Z</time></trkpt><trkpt lat="43.119829037355316" lon="12.189910593338835"><ele>390.6666666666667</ele><time>2026-04-16T13:01:21Z</time></trkpt><trkpt lat="43.11990114971232" lon="12.189973003918846"><ele>389.0</ele><time>2026-04-16T13:01:25Z</time></trkpt><trkpt lat="43.11993691835401" lon="12.190045348102489"><ele>387.33333333333337</ele><time>2026-04-16T13:01:28Z</time></trkpt><trkpt lat="43.11999665587556" lon="12.190118906697531"><ele>385.6666666666667</ele><time>2026-04-16T13:01:47Z</time></trkpt><trkpt lat="43.1200504471394" lon="12.190183666741298"><ele>384.0</ele><time>2026-04-16T13:01:49Z</time></trkpt><trkpt lat="43.120114060048444" lon="12.190281655567063"><ele>383.71428571428567</ele><time>2026-04-16T13:01:53Z</time></trkpt><trkpt lat="43.12016158686737" lon="12.190345215764001"><ele>383.42857142857144</ele><time>2026-04-16T13:02:15Z</time></trkpt><trkpt lat="43.12019719046234" lon="12.190434013460358"><ele>383.1428571428571</ele><time>2026-04-16T13:02:22Z</time></trkpt><trkpt lat="43.12024691917755" lon="12.190502538155785"><ele>382.85714285714283</ele><time>2026-04-16T13:02:31Z</time></trkpt><trkpt lat="43.12028170858523" lon="12.19058050675094"><ele>382.57142857142856</ele><time>2026-04-16T13:03:14Z</time></trkpt><trkpt lat="43.120331162264364" lon="12.19065518430207"><ele>382.2857142857143</ele><time>2026-04-16T13:03:20Z</time></trkpt><trkpt lat="43.12037093662906" lon="12.190728191707478"><ele>382.0</ele><time>2026-04-16T13:03:24Z</time></trkpt><trkpt lat="43.12042348486154" lon="12.190793306697913"><ele>382.0</ele><time>2026-04-16T13:03:29Z</time></trkpt><trkpt lat="43.12041782016681" lon="12.190887576757751"><ele>382.0</ele><time>2026-04-16T13:03:38Z</time></trkpt><trkpt lat="43.12039842891503" lon="12.190791998190344"><ele>382.0</ele><time>2026-04-16T13:09:51Z</time></trkpt><trkpt lat="43.120332971844945" lon="12.190685289297761"><ele>382.0</ele><time>2026-04-16T13:09:55Z</time></trkpt><trkpt lat="43.120282117977645" lon="12.190598364606156"><ele>382.0</ele><time>2026-04-16T13:09:58Z</time></trkpt><trkpt lat="43.12024334032779" lon="12.1905213480872"><ele>382.0</ele><time>2026-04-16T13:10:01Z</time></trkpt><trkpt lat="43.1201879872539" lon="12.190433566763788"><ele>382.0</ele><time>2026-04-16T13:10:04Z</time></trkpt><trkpt lat="43.120144956175736" lon="12.190329272259863"><ele>382.0</ele><time>2026-04-16T13:10:15Z</time></trkpt><trkpt lat="43.120089842399985" lon="12.190244754719398"><ele>382.0</ele><time>2026-04-16T13:10:31Z</time></trkpt><trkpt lat="43.12003041990561" lon="12.190165108012541"><ele>382.0</ele><time>2026-04-16T13:10:33Z</time></trkpt><trkpt lat="43.119947310026014" lon="12.1900646759084"><ele>382.0</ele><time>2026-04-16T13:10:35Z</time></trkpt><trkpt lat="43.11988305091591" lon="12.189971969533225"><ele>382.3333333333333</ele><time>2026-04-16T13:10:37Z</time></trkpt><trkpt lat="43.119824603156616" lon="12.18990122895879"><ele>382.66666666666663</ele><time>2026-04-16T13:10:39Z</time></trkpt><trkpt lat="43.11976444223636" lon="12.18985624930967"><ele>383.0</ele><time>2026-04-16T13:10:41Z</time></trkpt><trkpt lat="43.11972106302096" lon="12.189789702586134"><ele>383.3333333333333</ele><time>2026-04-16T13:10:43Z</time></trkpt><trkpt lat="43.11965825759992" lon="12.189734348167526"><ele>383.6666666666667</ele><time>2026-04-16T13:10:46Z</time></trkpt><trkpt lat="43.11955522983169" lon="12.189780470847394"><ele>384.0</ele><time>2026-04-16T13:10:49Z</time></trkpt><trkpt lat="43.11946213066441" lon="12.189785181371601"><ele>384.0</ele><time>2026-04-16T13:10:51Z</time></trkpt><trkpt lat="43.11938031464465" lon="12.189815679278935"><ele>384.0</ele><time>2026-04-16T13:10:53Z</time></trkpt><trkpt lat="43.11929120003284" lon="12.189815370393154"><ele>384.0</ele><time>2026-04-16T13:10:55Z</time></trkpt><trkpt lat="43.119189631655566" lon="12.189807992889241"><ele>384.0</ele><time>2026-04-16T13:10:57Z</time></trkpt><trkpt lat="43.1190856629608" lon="12.189805060010348"><ele>384.0</ele><time>2026-04-16T13:10:59Z</time></trkpt><trkpt lat="43.11898749744092" lon="12.189770444040366"><ele>384.0</ele><time>2026-04-16T13:11:01Z</time></trkpt><trkpt lat="43.118884972288804" lon="12.189735451476546"><ele>384.0</ele><time>2026-04-16T13:11:03Z</time></trkpt><trkpt lat="43.11877730321717" lon="12.189694510634261"><ele>384.0</ele><time>2026-04-16T13:11:05Z</time></trkpt><trkpt lat="43.118712347797484" lon="12.189671454005502"><ele>384.0</ele><time>2026-04-16T13:11:06Z</time></trkpt><trkpt lat="43.1186016697411" lon="12.189645649615287"><ele>384.0</ele><time>2026-04-16T13:11:08Z</time></trkpt><trkpt lat="43.1185326028418" lon="12.189630784293527"><ele>384.0</ele><time>2026-04-16T13:11:09Z</time></trkpt><trkpt lat="43.118409803711764" lon="12.189603547074311"><ele>384.0</ele><time>2026-04-16T13:11:11Z</time></trkpt><trkpt lat="43.118342764989734" lon="12.189602215277453"><ele>384.0</ele><time>2026-04-16T13:11:12Z</time></trkpt><trkpt lat="43.11827727271814" lon="12.189602409032943"><ele>384.0</ele><time>2026-04-16T13:11:13Z</time></trkpt><trkpt lat="43.11819221834403" lon="12.189574237506948"><ele>384.0</ele><time>2026-04-16T13:11:15Z</time></trkpt><trkpt lat="43.118107653782594" lon="12.189621498155718"><ele>384.0</ele><time>2026-04-16T13:13:15.999Z</time></trkpt><trkpt lat="43.118074462662335" lon="12.189725850779132"><ele>382.79999999999995</ele><time>2026-04-16T13:13:16.999Z</time></trkpt><trkpt lat="43.11804273676206" lon="12.189829842001876"><ele>381.59999999999997</ele><time>2026-04-16T13:13:17.999Z</time></trkpt><trkpt lat="43.117962462536" lon="12.189924941996827"><ele>380.4</ele><time>2026-04-16T13:13:19.999Z</time></trkpt><trkpt lat="43.117866678329825" lon="12.18996194964575"><ele>379.2</ele><time>2026-04-16T13:13:21.999Z</time></trkpt><trkpt lat="43.11776754988729" lon="12.189980469103542"><ele>378.0</ele><time>2026-04-16T13:13:23.999Z</time></trkpt><trkpt lat="43.117659038005165" lon="12.190005830223056"><ele>377.5</ele><time>2026-04-16T13:13:25.999Z</time></trkpt><trkpt lat="43.11754207602356" lon="12.190038499373074"><ele>377.0</ele><time>2026-04-16T13:13:27.999Z</time></trkpt><trkpt lat="43.11747303100336" lon="12.190031298177274"><ele>376.5</ele><time>2026-04-16T13:13:28.999Z</time></trkpt><trkpt lat="43.11741157988184" lon="12.190009926383963"><ele>376.0</ele><time>2026-04-16T13:13:29.999Z</time></trkpt><trkpt lat="43.11735037961835" lon="12.18997688025522"><ele>375.5</ele><time>2026-04-16T13:13:30.999Z</time></trkpt><trkpt lat="43.117225137421165" lon="12.189944854474028"><ele>375.0</ele><time>2026-04-16T13:13:32.999Z</time></trkpt><trkpt lat="43.117159997420536" lon="12.189923951983038"><ele>372.8</ele><time>2026-04-16T13:13:33.999Z</time></trkpt><trkpt lat="43.117095405759365" lon="12.189903896729618"><ele>370.6</ele><time>2026-04-16T13:13:34.999Z</time></trkpt><trkpt lat="43.11698264549309" lon="12.189918744688589"><ele>368.4</ele><time>2026-04-16T13:13:36.999Z</time></trkpt><trkpt lat="43.11690023608029" lon="12.190033025651108"><ele>366.2</ele><time>2026-04-16T13:13:38.999Z</time></trkpt><trkpt lat="43.116848140595785" lon="12.190163603760666"><ele>364.0</ele><time>2026-04-16T13:13:40.999Z</time></trkpt><trkpt lat="43.11679586928641" lon="12.190239151952918"><ele>364.0</ele><time>2026-04-16T13:13:42.999Z</time></trkpt><trkpt lat="43.116728993487236" lon="12.19026622965892"><ele>364.0</ele><time>2026-04-16T13:13:44.999Z</time></trkpt><trkpt lat="43.11665576280259" lon="12.190269096716033"><ele>364.0</ele><time>2026-04-16T13:13:46.999Z</time></trkpt><trkpt lat="43.11659240096723" lon="12.19028811587268"><ele>364.0</ele><time>2026-04-16T13:14:16.999Z</time></trkpt><trkpt lat="43.1166706417639" lon="12.190271238562625"><ele>364.0</ele><time>2026-04-16T13:14:28.999Z</time></trkpt><trkpt lat="43.116599707580114" lon="12.190356181663205"><ele>364.0</ele><time>2026-04-16T13:15:30.999Z</time></trkpt><trkpt lat="43.116565792108354" lon="12.190443182037065"><ele>364.2</ele><time>2026-04-16T13:15:32.999Z</time></trkpt><trkpt lat="43.11651838842479" lon="12.190566795577455"><ele>364.4</ele><time>2026-04-16T13:15:34.999Z</time></trkpt><trkpt lat="43.116422800561494" lon="12.190674302110116"><ele>364.6</ele><time>2026-04-16T13:15:36.999Z</time></trkpt><trkpt lat="43.11637203998409" lon="12.190752557786169"><ele>364.8</ele><time>2026-04-16T13:15:37.999Z</time></trkpt><trkpt lat="43.11631788564714" lon="12.19091312395119"><ele>365.0</ele><time>2026-04-16T13:15:39.999Z</time></trkpt><trkpt lat="43.11629850605961" lon="12.191011090790486"><ele>365.0</ele><time>2026-04-16T13:15:41.999Z</time></trkpt><trkpt lat="43.11627922194707" lon="12.191138870605023"><ele>365.0</ele><time>2026-04-16T13:15:43.999Z</time></trkpt><trkpt lat="43.116222697848265" lon="12.191189050583466"><ele>365.0</ele><time>2026-04-16T13:15:45.999Z</time></trkpt><trkpt lat="43.116120502910206" lon="12.191250974494508"><ele>365.0</ele><time>2026-04-16T13:15:47.999Z</time></trkpt><trkpt lat="43.11606457480152" lon="12.191354660505533"><ele>365.0</ele><time>2026-04-16T13:15:49.999Z</time></trkpt><trkpt lat="43.11601836150699" lon="12.191436070742304"><ele>365.0</ele><time>2026-04-16T13:16:05.999Z</time></trkpt><trkpt lat="43.11595374113429" lon="12.19153527447227"><ele>363.6</ele><time>2026-04-16T13:16:08.999Z</time></trkpt><trkpt lat="43.11589372913675" lon="12.191660447655098"><ele>362.2</ele><time>2026-04-16T13:16:10.999Z</time></trkpt><trkpt lat="43.115853520049434" lon="12.191828337052105"><ele>360.79999999999995</ele><time>2026-04-16T13:16:12.999Z</time></trkpt><trkpt lat="43.115846222205796" lon="12.191939300419726"><ele>359.4</ele><time>2026-04-16T13:16:13.999Z</time></trkpt><trkpt lat="43.11584141548533" lon="12.192034209582351"><ele>358.0</ele><time>2026-04-16T13:16:14.999Z</time></trkpt><trkpt lat="43.115836811481735" lon="12.192128709549175"><ele>358.0</ele><time>2026-04-16T13:16:15.999Z</time></trkpt><trkpt lat="43.11580832102172" lon="12.192257612435279"><ele>358.0</ele><time>2026-04-16T13:16:17.999Z</time></trkpt><trkpt lat="43.1157451358895" lon="12.192333059708655"><ele>358.0</ele><time>2026-04-16T13:16:19.999Z</time></trkpt><trkpt lat="43.11567890140983" lon="12.192368959137488"><ele>358.0</ele><time>2026-04-16T13:16:21.999Z</time></trkpt><trkpt lat="43.11562257749816" lon="12.19240920086799"><ele>358.0</ele><time>2026-04-16T13:16:22.999Z</time></trkpt><trkpt lat="43.115548799316215" lon="12.192468101141715"><ele>358.0</ele><time>2026-04-16T13:16:23.999Z</time></trkpt><trkpt lat="43.11547473056194" lon="12.19251463640325"><ele>357.28571428571433</ele><time>2026-04-16T13:16:24.999Z</time></trkpt><trkpt lat="43.11541125925433" lon="12.192548766463238"><ele>356.57142857142856</ele><time>2026-04-16T13:16:25.999Z</time></trkpt><trkpt lat="43.115351253957286" lon="12.192581008192471"><ele>355.8571428571429</ele><time>2026-04-16T13:16:26.999Z</time></trkpt><trkpt lat="43.11528875106321" lon="12.192599047374342"><ele>355.14285714285717</ele><time>2026-04-16T13:16:27.999Z</time></trkpt><trkpt lat="43.11522429691833" lon="12.192595684157112"><ele>354.42857142857144</ele><time>2026-04-16T13:16:28.999Z</time></trkpt><trkpt lat="43.115134435212816" lon="12.192652526665608"><ele>353.7142857142857</ele><time>2026-04-16T13:16:30.999Z</time></trkpt><trkpt lat="43.1150986656119" lon="12.192737180755259"><ele>353.0</ele><time>2026-04-16T13:16:31.999Z</time></trkpt><trkpt lat="43.11507423712926" lon="12.192818195475304"><ele>353.0</ele><time>2026-04-16T13:16:32.999Z</time></trkpt><trkpt lat="43.115014820713355" lon="12.192946107151345"><ele>353.0</ele><time>2026-04-16T13:16:34.999Z</time></trkpt><trkpt lat="43.11498345217284" lon="12.193071332798473"><ele>353.0</ele><time>2026-04-16T13:16:36.999Z</time></trkpt><trkpt lat="43.11494953028858" lon="12.193159811026465"><ele>353.0</ele><time>2026-04-16T13:16:39.999Z</time></trkpt><trkpt lat="43.11503787954704" lon="12.193213475542086"><ele>353.0</ele><time>2026-04-16T13:16:41.999Z</time></trkpt><trkpt lat="43.11515919264265" lon="12.193253345789007"><ele>350.2</ele><time>2026-04-16T13:16:43.999Z</time></trkpt><trkpt lat="43.11525608949906" lon="12.193314340882111"><ele>347.4</ele><time>2026-04-16T13:16:45.999Z</time></trkpt><trkpt lat="43.11531362572072" lon="12.193355590103282"><ele>344.59999999999997</ele><time>2026-04-16T13:16:46.999Z</time></trkpt><trkpt lat="43.11541193784775" lon="12.19342365973467"><ele>341.79999999999995</ele><time>2026-04-16T13:16:48.999Z</time></trkpt><trkpt lat="43.11553723423184" lon="12.193486096896908"><ele>339.0</ele><time>2026-04-16T13:16:50.999Z</time></trkpt><trkpt lat="43.1156086688612" lon="12.19352570043184"><ele>339.0</ele><time>2026-04-16T13:16:51.999Z</time></trkpt><trkpt lat="43.115678919497796" lon="12.193571501537638"><ele>339.0</ele><time>2026-04-16T13:16:52.999Z</time></trkpt><trkpt lat="43.11574114110685" lon="12.193625722216245"><ele>339.0</ele><time>2026-04-16T13:16:53.999Z</time></trkpt><trkpt lat="43.11580212970828" lon="12.19369736712094"><ele>339.0</ele><time>2026-04-16T13:16:54.999Z</time></trkpt><trkpt lat="43.11585125594072" lon="12.193783963109617"><ele>339.0</ele><time>2026-04-16T13:16:55.999Z</time></trkpt><trkpt lat="43.11589057952959" lon="12.19387016436274"><ele>339.0</ele><time>2026-04-16T13:16:56.999Z</time></trkpt><trkpt lat="43.115933680771995" lon="12.193940831176429"><ele>336.6666666666667</ele><time>2026-04-16T13:16:57.999Z</time></trkpt><trkpt lat="43.116056434140845" lon="12.193982451061329"><ele>334.3333333333333</ele><time>2026-04-16T13:16:59.999Z</time></trkpt><trkpt lat="43.11611982846755" lon="12.193978396885035"><ele>332.0</ele><time>2026-04-16T13:17:00.999Z</time></trkpt><trkpt lat="43.116180368470815" lon="12.193951529933218"><ele>329.66666666666663</ele><time>2026-04-16T13:17:01.999Z</time></trkpt><trkpt lat="43.116297040336896" lon="12.193970570235077"><ele>327.3333333333333</ele><time>2026-04-16T13:17:03.999Z</time></trkpt><trkpt lat="43.116356028898714" lon="12.194009261601794"><ele>325.0</ele><time>2026-04-16T13:17:04.999Z</time></trkpt><trkpt lat="43.116396253180376" lon="12.194111249221258"><ele>323.0</ele><time>2026-04-16T13:17:05.999Z</time></trkpt><trkpt lat="43.1164521410545" lon="12.19422138555907"><ele>321.0</ele><time>2026-04-16T13:17:06.999Z</time></trkpt><trkpt lat="43.116519763657905" lon="12.194355024099242"><ele>319.0</ele><time>2026-04-16T13:17:07.999Z</time></trkpt><trkpt lat="43.11658097241173" lon="12.19443163018222"><ele>317.0</ele><time>2026-04-16T13:17:08.999Z</time></trkpt><trkpt lat="43.116656454248016" lon="12.19454165630475"><ele>315.0</ele><time>2026-04-16T13:17:10.999Z</time></trkpt><trkpt lat="43.11671945975395" lon="12.194559354838374"><ele>312.8</ele><time>2026-04-16T13:17:11.999Z</time></trkpt><trkpt lat="43.11682841375501" lon="12.194612478328942"><ele>310.6</ele><time>2026-04-16T13:17:13.999Z</time></trkpt><trkpt lat="43.11686055828092" lon="12.194740585952388"><ele>308.4</ele><time>2026-04-16T13:17:14.999Z</time></trkpt><trkpt lat="43.1169213919475" lon="12.194876307345744"><ele>306.2</ele><time>2026-04-16T13:17:15.999Z</time></trkpt><trkpt lat="43.11698126447808" lon="12.194985227980368"><ele>304.0</ele><time>2026-04-16T13:17:16.999Z</time></trkpt><trkpt lat="43.11706157348589" lon="12.195032653973412"><ele>303.3333333333333</ele><time>2026-04-16T13:17:17.999Z</time></trkpt><trkpt lat="43.117115626448516" lon="12.195108233077327"><ele>302.66666666666663</ele><time>2026-04-16T13:17:18.999Z</time></trkpt><trkpt lat="43.11714301402176" lon="12.195222011737805"><ele>302.0</ele><time>2026-04-16T13:17:19.999Z</time></trkpt><trkpt lat="43.11718771908141" lon="12.195308894666166"><ele>301.3333333333333</ele><time>2026-04-16T13:17:20.999Z</time></trkpt><trkpt lat="43.11724837523219" lon="12.19539387817452"><ele>300.6666666666667</ele><time>2026-04-16T13:17:21.999Z</time></trkpt><trkpt lat="43.11729269986864" lon="12.195481909015731"><ele>300.0</ele><time>2026-04-16T13:17:22.999Z</time></trkpt><trkpt lat="43.11734653693737" lon="12.195596932614166"><ele>297.0</ele><time>2026-04-16T13:17:23.999Z</time></trkpt><trkpt lat="43.117409388073824" lon="12.195718135555394"><ele>294.0</ele><time>2026-04-16T13:17:24.999Z</time></trkpt><trkpt lat="43.117461210485246" lon="12.195825072115177"><ele>291.0</ele><time>2026-04-16T13:17:25.999Z</time></trkpt><trkpt lat="43.11750074798359" lon="12.195903392471472"><ele>288.0</ele><time>2026-04-16T13:17:26.999Z</time></trkpt><trkpt lat="43.11755618541273" lon="12.195956820645"><ele>285.0</ele><time>2026-04-16T13:17:27.999Z</time></trkpt><trkpt lat="43.117671636846495" lon="12.19599317363658"><ele>285.0</ele><time>2026-04-16T13:17:29.999Z</time></trkpt><trkpt lat="43.11774396290181" lon="12.196010808332328"><ele>285.0</ele><time>2026-04-16T13:17:30.999Z</time></trkpt><trkpt lat="43.117812997011576" lon="12.19603214428545"><ele>285.0</ele><time>2026-04-16T13:17:31.999Z</time></trkpt><trkpt lat="43.11787251900602" lon="12.19606272902931"><ele>285.0</ele><time>2026-04-16T13:17:32.999Z</time></trkpt><trkpt lat="43.11794862633776" lon="12.19609993507769"><ele>285.0</ele><time>2026-04-16T13:17:33.999Z</time></trkpt><trkpt lat="43.11799383478684" lon="12.196173002736291"><ele>285.0</ele><time>2026-04-16T13:17:34.999Z</time></trkpt><trkpt lat="43.11803863240836" lon="12.196263088546946"><ele>285.0</ele><time>2026-04-16T13:17:35.999Z</time></trkpt><trkpt lat="43.118081938479804" lon="12.196364608868482"><ele>285.0</ele><time>2026-04-16T13:17:36.999Z</time></trkpt><trkpt lat="43.11810136016001" lon="12.196476319091952"><ele>285.0</ele><time>2026-04-16T13:17:37.999Z</time></trkpt><trkpt lat="43.118117757311204" lon="12.19656249949388"><ele>285.0</ele><time>2026-04-16T13:17:38.999Z</time></trkpt><trkpt lat="43.118140209168594" lon="12.196667982162246"><ele>285.0</ele><time>2026-04-16T13:17:39.999Z</time></trkpt><trkpt lat="43.11813726630482" lon="12.196787858636982"><ele>285.0</ele><time>2026-04-16T13:17:40.999Z</time></trkpt><trkpt lat="43.11810865612681" lon="12.1969103466972"><ele>285.0</ele><time>2026-04-16T13:17:41.999Z</time></trkpt><trkpt lat="43.118085099829614" lon="12.197018464027108"><ele>284.3333333333333</ele><time>2026-04-16T13:17:42.999Z</time></trkpt><trkpt lat="43.11801137914945" lon="12.197222615811052"><ele>283.6666666666667</ele><time>2026-04-16T13:17:44.999Z</time></trkpt><trkpt lat="43.11794943256281" lon="12.19726867319311"><ele>283.0</ele><time>2026-04-16T13:17:45.999Z</time></trkpt><trkpt lat="43.11791937845799" lon="12.197350559178354"><ele>282.33333333333337</ele><time>2026-04-16T13:17:46.999Z</time></trkpt><trkpt lat="43.11789588668101" lon="12.197432705099928"><ele>281.6666666666667</ele><time>2026-04-16T13:17:47.999Z</time></trkpt><trkpt lat="43.1178706216448" lon="12.19752019483506"><ele>281.0</ele><time>2026-04-16T13:17:48.999Z</time></trkpt><trkpt lat="43.117897094023505" lon="12.197630340072104"><ele>278.25</ele><time>2026-04-16T13:17:49.999Z</time></trkpt><trkpt lat="43.11791222793165" lon="12.197753367605765"><ele>275.5</ele><time>2026-04-16T13:17:50.999Z</time></trkpt><trkpt lat="43.117925329472584" lon="12.19791379476187"><ele>272.75</ele><time>2026-04-16T13:17:51.999Z</time></trkpt><trkpt lat="43.11793083205585" lon="12.198093384712918"><ele>270.0</ele><time>2026-04-16T13:17:52.999Z</time></trkpt><trkpt lat="43.11793485101556" lon="12.19827674152866"><ele>267.0</ele><time>2026-04-16T13:17:53.999Z</time></trkpt><trkpt lat="43.11794381173445" lon="12.198451507692692"><ele>264.0</ele><time>2026-04-16T13:17:54.999Z</time></trkpt><trkpt lat="43.117948836580084" lon="12.198616713290285"><ele>261.0</ele><time>2026-04-16T13:17:55.999Z</time></trkpt><trkpt lat="43.11795851361103" lon="12.198782565061089"><ele>258.0</ele><time>2026-04-16T13:17:56.999Z</time></trkpt><trkpt lat="43.117975360487485" lon="12.19894596679765"><ele>256.5</ele><time>2026-04-16T13:17:57.999Z</time></trkpt><trkpt lat="43.118009758563794" lon="12.199103443732378"><ele>255.0</ele><time>2026-04-16T13:17:58.999Z</time></trkpt><trkpt lat="43.11802725164764" lon="12.199286468650152"><ele>253.5</ele><time>2026-04-16T13:17:59.999Z</time></trkpt><trkpt lat="43.118045005776" lon="12.199524399160376"><ele>252.0</ele><time>2026-04-16T13:18:00.999Z</time></trkpt><trkpt lat="43.11807787386938" lon="12.199786003191893"><ele>251.0</ele><time>2026-04-16T13:18:01.999Z</time></trkpt><trkpt lat="43.11809223298374" lon="12.199986797592077"><ele>250.0</ele><time>2026-04-16T13:18:02.999Z</time></trkpt><trkpt lat="43.11810404407536" lon="12.200141139468816"><ele>249.0</ele><time>2026-04-16T13:18:03.999Z</time></trkpt><trkpt lat="43.11811306672877" lon="12.200270828438168"><ele>248.0</ele><time>2026-04-16T13:18:04.999Z</time></trkpt><trkpt lat="43.11812041879319" lon="12.200378190830433"><ele>247.0</ele><time>2026-04-16T13:18:05.999Z</time></trkpt><trkpt lat="43.11814403132441" lon="12.20051500481192"><ele>247.0</ele><time>2026-04-16T13:18:07.999Z</time></trkpt><trkpt lat="43.118176947095336" lon="12.200596830194625"><ele>247.0</ele><time>2026-04-16T13:18:10.999Z</time></trkpt><trkpt lat="43.11828721697752" lon="12.200707007752344"><ele>247.0</ele><time>2026-04-16T13:18:12.999Z</time></trkpt><trkpt lat="43.11834805904539" lon="12.200802545752355"><ele>247.0</ele><time>2026-04-16T13:18:13.999Z</time></trkpt><trkpt lat="43.11833751931944" lon="12.200954277159985"><ele>247.0</ele><time>2026-04-16T13:18:14.999Z</time></trkpt><trkpt lat="43.1183388706154" lon="12.201159301670815"><ele>245.66666666666666</ele><time>2026-04-16T13:18:15.999Z</time></trkpt><trkpt lat="43.11834952436444" lon="12.201397578456735"><ele>244.33333333333331</ele><time>2026-04-16T13:18:16.999Z</time></trkpt><trkpt lat="43.118354929152744" lon="12.201676579537628"><ele>243.0</ele><time>2026-04-16T13:18:17.999Z</time></trkpt><trkpt lat="43.118341312910204" lon="12.20197963062236"><ele>242.66666666666669</ele><time>2026-04-16T13:18:18.999Z</time></trkpt><trkpt lat="43.118357344759545" lon="12.2022836877625"><ele>242.33333333333334</ele><time>2026-04-16T13:18:19.999Z</time></trkpt><trkpt lat="43.11835730395902" lon="12.202549620957194"><ele>242.0</ele><time>2026-04-16T13:18:20.999Z</time></trkpt><trkpt lat="43.11836523598919" lon="12.202781206867506"><ele>242.0</ele><time>2026-04-16T13:18:22Z</time></trkpt><trkpt lat="43.11837191773207" lon="12.202951849063133"><ele>242.0</ele><time>2026-04-16T13:18:23Z</time></trkpt><trkpt lat="43.11835924414107" lon="12.203088400353103"><ele>242.0</ele><time>2026-04-16T13:18:24Z</time></trkpt><trkpt lat="43.118368091114384" lon="12.203198843571139"><ele>242.0</ele><time>2026-04-16T13:18:25Z</time></trkpt><trkpt lat="43.11832112308959" lon="12.203289869557889"><ele>242.0</ele><time>2026-04-16T13:18:26Z</time></trkpt><trkpt lat="43.11823462575977" lon="12.20334143795777"><ele>242.39999999999998</ele><time>2026-04-16T13:18:27Z</time></trkpt><trkpt lat="43.11810829890922" lon="12.203340250291422"><ele>242.79999999999998</ele><time>2026-04-16T13:18:28Z</time></trkpt><trkpt lat="43.1179887751101" lon="12.203394573490803"><ele>243.2</ele><time>2026-04-16T13:18:29Z</time></trkpt><trkpt lat="43.11789626117292" lon="12.203437824635825"><ele>243.6</ele><time>2026-04-16T13:18:30Z</time></trkpt><trkpt lat="43.117824590869894" lon="12.203483452660572"><ele>244.0</ele><time>2026-04-16T13:18:31Z</time></trkpt><trkpt lat="43.11776574462428" lon="12.203531611575645"><ele>243.99999999999997</ele><time>2026-04-16T13:18:32Z</time></trkpt><trkpt lat="43.117714611418464" lon="12.203599205459907"><ele>244.0</ele><time>2026-04-16T13:18:33Z</time></trkpt><trkpt lat="43.117671403336026" lon="12.203697645331335"><ele>244.0</ele><time>2026-04-16T13:18:34Z</time></trkpt><trkpt lat="43.11763986858549" lon="12.203810794808398"><ele>244.0</ele><time>2026-04-16T13:18:35Z</time></trkpt><trkpt lat="43.11760637802628" lon="12.203925303318622"><ele>243.99999999999997</ele><time>2026-04-16T13:18:36Z</time></trkpt><trkpt lat="43.117578116818606" lon="12.204052165685129"><ele>244.0</ele><time>2026-04-16T13:18:37Z</time></trkpt><trkpt lat="43.117553968330846" lon="12.204169265946593"><ele>243.99999999999997</ele><time>2026-04-16T13:18:38Z</time></trkpt><trkpt lat="43.11750450336471" lon="12.204251495252917"><ele>244.0</ele><time>2026-04-16T13:18:39Z</time></trkpt><trkpt lat="43.11746388950154" lon="12.204348879509025"><ele>244.0</ele><time>2026-04-16T13:18:40Z</time></trkpt><trkpt lat="43.11739659064989" lon="12.204435966664184"><ele>244.0</ele><time>2026-04-16T13:18:41Z</time></trkpt><trkpt lat="43.11732640312697" lon="12.204508550397449"><ele>243.99999999999997</ele><time>2026-04-16T13:18:42Z</time></trkpt><trkpt lat="43.11723847105335" lon="12.204578546062201"><ele>244.0</ele><time>2026-04-16T13:18:43Z</time></trkpt><trkpt lat="43.11715801029988" lon="12.204633328913499"><ele>244.33333333333331</ele><time>2026-04-16T13:18:44Z</time></trkpt><trkpt lat="43.11708106607636" lon="12.204692597378564"><ele>244.66666666666666</ele><time>2026-04-16T13:18:45Z</time></trkpt><trkpt lat="43.11703127580648" lon="12.204756974707568"><ele>245.0</ele><time>2026-04-16T13:18:46Z</time></trkpt><trkpt lat="43.1169844065132" lon="12.20485692085504"><ele>245.33333333333331</ele><time>2026-04-16T13:18:47Z</time></trkpt><trkpt lat="43.116954486640836" lon="12.204972077082656"><ele>245.66666666666666</ele><time>2026-04-16T13:18:48Z</time></trkpt><trkpt lat="43.11691652709166" lon="12.205058306679438"><ele>246.0</ele><time>2026-04-16T13:18:49Z</time></trkpt><trkpt lat="43.116876363008544" lon="12.20514520119628"><ele>246.25</ele><time>2026-04-16T13:18:50Z</time></trkpt><trkpt lat="43.11679513174069" lon="12.205222372723837"><ele>246.5</ele><time>2026-04-16T13:18:51Z</time></trkpt><trkpt lat="43.11670630341083" lon="12.20530597189587"><ele>246.75</ele><time>2026-04-16T13:18:52Z</time></trkpt><trkpt lat="43.11659731232668" lon="12.205429361242576"><ele>247.0</ele><time>2026-04-16T13:18:53Z</time></trkpt><trkpt lat="43.11647991613015" lon="12.205563829560838"><ele>247.39999999999998</ele><time>2026-04-16T13:18:54Z</time></trkpt><trkpt lat="43.11636598435958" lon="12.205691587739809"><ele>247.79999999999998</ele><time>2026-04-16T13:18:55Z</time></trkpt><trkpt lat="43.11627169825591" lon="12.20580094242165"><ele>248.2</ele><time>2026-04-16T13:18:56Z</time></trkpt><trkpt lat="43.11619492933157" lon="12.205883569304078"><ele>248.6</ele><time>2026-04-16T13:18:57Z</time></trkpt><trkpt lat="43.116136846346116" lon="12.205944572397463"><ele>249.0</ele><time>2026-04-16T13:18:58Z</time></trkpt><trkpt lat="43.11606669265883" lon="12.206014258081883"><ele>249.0</ele><time>2026-04-16T13:19:00Z</time></trkpt><trkpt lat="43.116008222678744" lon="12.20609129646725"><ele>249.0</ele><time>2026-04-16T13:20:21Z</time></trkpt><trkpt lat="43.11594654644488" lon="12.20614645662736"><ele>249.0</ele><time>2026-04-16T13:20:33Z</time></trkpt><trkpt lat="43.11596338489317" lon="12.206265090613783"><ele>249.0</ele><time>2026-04-16T13:20:34Z</time></trkpt><trkpt lat="43.1159160632414" lon="12.206345877161958"><ele>249.0</ele><time>2026-04-16T13:20:35Z</time></trkpt><trkpt lat="43.115882622467794" lon="12.206426293023114"><ele>249.0</ele><time>2026-04-16T13:20:36Z</time></trkpt><trkpt lat="43.11583291468255" lon="12.206545826303666"><ele>249.75</ele><time>2026-04-16T13:20:37Z</time></trkpt><trkpt lat="43.11576615251366" lon="12.206705881727832"><ele>250.5</ele><time>2026-04-16T13:20:38Z</time></trkpt><trkpt lat="43.11571159917811" lon="12.206872974790024"><ele>251.25</ele><time>2026-04-16T13:20:39Z</time></trkpt><trkpt lat="43.11564173394338" lon="12.206962315073145"><ele>252.0</ele><time>2026-04-16T13:20:40Z</time></trkpt><trkpt lat="43.115574510285775" lon="12.20704882106833"><ele>252.8</ele><time>2026-04-16T13:20:41Z</time></trkpt><trkpt lat="43.11548499256648" lon="12.207142761349475"><ele>253.6</ele><time>2026-04-16T13:20:42Z</time></trkpt><trkpt lat="43.11539772925199" lon="12.207240439854163"><ele>254.40000000000003</ele><time>2026-04-16T13:20:43Z</time></trkpt><trkpt lat="43.11533637901905" lon="12.207302172077698"><ele>255.20000000000002</ele><time>2026-04-16T13:20:44Z</time></trkpt><trkpt lat="43.115294873905604" lon="12.207370297783244"><ele>256.0</ele><time>2026-04-16T13:20:45Z</time></trkpt><trkpt lat="43.11525687548439" lon="12.207582395723543"><ele>256.3333333333333</ele><time>2026-04-16T13:20:47Z</time></trkpt><trkpt lat="43.11525874224234" lon="12.207768570361598"><ele>256.6666666666667</ele><time>2026-04-16T13:20:48Z</time></trkpt><trkpt lat="43.11528251627129" lon="12.208001150375694"><ele>257.0</ele><time>2026-04-16T13:20:49Z</time></trkpt><trkpt lat="43.11530848566807" lon="12.20824232765451"><ele>257.0</ele><time>2026-04-16T13:20:50Z</time></trkpt><trkpt lat="43.11532620980599" lon="12.2084207816284"><ele>257.0</ele><time>2026-04-16T13:20:51Z</time></trkpt><trkpt lat="43.11533623275756" lon="12.208613682805888"><ele>257.0</ele><time>2026-04-16T13:20:52Z</time></trkpt><trkpt lat="43.11532281105346" lon="12.208810191198275"><ele>257.0</ele><time>2026-04-16T13:20:53Z</time></trkpt><trkpt lat="43.11533946523676" lon="12.209000879745455"><ele>258.8</ele><time>2026-04-16T13:20:54Z</time></trkpt><trkpt lat="43.11534917136233" lon="12.209139310212246"><ele>260.6</ele><time>2026-04-16T13:20:55Z</time></trkpt><trkpt lat="43.11537122691025" lon="12.209252239139051"><ele>262.40000000000003</ele><time>2026-04-16T13:20:56Z</time></trkpt><trkpt lat="43.115397262169175" lon="12.209342379101088"><ele>264.2</ele><time>2026-04-16T13:20:57Z</time></trkpt><trkpt lat="43.115449379503744" lon="12.20947666454568"><ele>266.0</ele><time>2026-04-16T13:20:58Z</time></trkpt><trkpt lat="43.11548377259933" lon="12.209589193415118"><ele>266.0</ele><time>2026-04-16T13:20:59Z</time></trkpt><trkpt lat="43.115506605875204" lon="12.20967273254276"><ele>266.0</ele><time>2026-04-16T13:21:00Z</time></trkpt><trkpt lat="43.11552806928577" lon="12.209756363487955"><ele>266.0</ele><time>2026-04-16T13:21:01Z</time></trkpt><trkpt lat="43.11556674369205" lon="12.209843184746433"><ele>266.0</ele><time>2026-04-16T13:21:02Z</time></trkpt><trkpt lat="43.115585487192035" lon="12.209933300485757"><ele>266.0</ele><time>2026-04-16T13:21:05Z</time></trkpt><trkpt lat="43.11564541468671" lon="12.210113624774133"><ele>266.0</ele><time>2026-04-16T13:21:34Z</time></trkpt><trkpt lat="43.11566990397108" lon="12.210289000668304"><ele>267.0</ele><time>2026-04-16T13:21:35Z</time></trkpt><trkpt lat="43.115731045245944" lon="12.210491864455731"><ele>268.0</ele><time>2026-04-16T13:21:36Z</time></trkpt><trkpt lat="43.11575729924361" lon="12.21071120715777"><ele>269.0</ele><time>2026-04-16T13:21:37Z</time></trkpt><trkpt lat="43.11578954332281" lon="12.210888185970516"><ele>269.0</ele><time>2026-04-16T13:21:38Z</time></trkpt><trkpt lat="43.115819418557805" lon="12.211052162713864"><ele>269.0</ele><time>2026-04-16T13:21:39Z</time></trkpt><trkpt lat="43.11585518836273" lon="12.211253679310936"><ele>269.0</ele><time>2026-04-16T13:21:40Z</time></trkpt><trkpt lat="43.11588961939061" lon="12.211462842380621"><ele>269.0</ele><time>2026-04-16T13:21:41Z</time></trkpt><trkpt lat="43.115934740960846" lon="12.211661456634937"><ele>269.8</ele><time>2026-04-16T13:21:42Z</time></trkpt><trkpt lat="43.11593407026451" lon="12.211802798876214"><ele>270.59999999999997</ele><time>2026-04-16T13:21:43Z</time></trkpt><trkpt lat="43.115942148168386" lon="12.211910207754528"><ele>271.4</ele><time>2026-04-16T13:21:44Z</time></trkpt><trkpt lat="43.11594693858439" lon="12.21202286353865"><ele>272.2</ele><time>2026-04-16T13:21:45Z</time></trkpt><trkpt lat="43.11594315191177" lon="12.212169573674243"><ele>273.0</ele><time>2026-04-16T13:21:46Z</time></trkpt><trkpt lat="43.115932611252454" lon="12.212370357277681"><ele>273.8</ele><time>2026-04-16T13:21:47Z</time></trkpt><trkpt lat="43.1159012717371" lon="12.212554380860677"><ele>274.6</ele><time>2026-04-16T13:21:48Z</time></trkpt><trkpt lat="43.11587374861897" lon="12.212700948418957"><ele>275.4</ele><time>2026-04-16T13:21:49Z</time></trkpt><trkpt lat="43.11585101213975" lon="12.212808719564391"><ele>276.2</ele><time>2026-04-16T13:21:50Z</time></trkpt><trkpt lat="43.115836488475026" lon="12.212907792904794"><ele>277.0</ele><time>2026-04-16T13:21:51Z</time></trkpt><trkpt lat="43.11585149381598" lon="12.213012242867263"><ele>277.0</ele><time>2026-04-16T13:21:52Z</time></trkpt><trkpt lat="43.11592138671753" lon="12.213137058013439"><ele>277.0</ele><time>2026-04-16T13:21:53Z</time></trkpt><trkpt lat="43.11602498245768" lon="12.21326267559422"><ele>277.0</ele><time>2026-04-16T13:21:54Z</time></trkpt><trkpt lat="43.116121359406876" lon="12.2134035423598"><ele>277.0</ele><time>2026-04-16T13:21:55Z</time></trkpt><trkpt lat="43.11619769493262" lon="12.213520233221178"><ele>276.3333333333333</ele><time>2026-04-16T13:21:56Z</time></trkpt><trkpt lat="43.11622949888221" lon="12.213625526668931"><ele>275.66666666666663</ele><time>2026-04-16T13:21:57Z</time></trkpt><trkpt lat="43.11625167546464" lon="12.213708616675031"><ele>275.0</ele><time>2026-04-16T13:21:58Z</time></trkpt><trkpt lat="43.11627870907752" lon="12.213856754629314"><ele>274.3333333333333</ele><time>2026-04-16T13:22:00Z</time></trkpt><trkpt lat="43.11629016681285" lon="12.213951327468115"><ele>273.6666666666667</ele><time>2026-04-16T13:22:02Z</time></trkpt><trkpt lat="43.116263115907614" lon="12.213836644888149"><ele>273.0</ele><time>2026-04-16T13:22:37Z</time></trkpt><trkpt lat="43.11625994935256" lon="12.213736266967386"><ele>273.0</ele><time>2026-04-16T13:22:39Z</time></trkpt><trkpt lat="43.11638134222116" lon="12.213663288454702"><ele>273.0</ele><time>2026-04-16T13:22:43Z</time></trkpt><trkpt lat="43.116446768367986" lon="12.213642450143725"><ele>273.0</ele><time>2026-04-16T13:22:45Z</time></trkpt><trkpt lat="43.11656501784401" lon="12.213578198724703"><ele>273.0</ele><time>2026-04-16T13:22:47Z</time></trkpt><trkpt lat="43.116657740433" lon="12.213544476334087"><ele>273.0</ele><time>2026-04-16T13:22:48Z</time></trkpt><trkpt lat="43.11674229525289" lon="12.213529638142084"><ele>272.0</ele><time>2026-04-16T13:22:49Z</time></trkpt><trkpt lat="43.11681047752365" lon="12.213528796936219"><ele>271.0</ele><time>2026-04-16T13:22:50Z</time></trkpt><trkpt lat="43.11689032586016" lon="12.213539582126943"><ele>270.0</ele><time>2026-04-16T13:22:51Z</time></trkpt><trkpt lat="43.116982797972604" lon="12.213557976931078"><ele>269.0</ele><time>2026-04-16T13:22:52Z</time></trkpt><trkpt lat="43.11708448198589" lon="12.213582957186642"><ele>268.0</ele><time>2026-04-16T13:22:53Z</time></trkpt><trkpt lat="43.11719407108957" lon="12.2136119924729"><ele>268.0</ele><time>2026-04-16T13:22:54Z</time></trkpt><trkpt lat="43.11728511568861" lon="12.21364492533728"><ele>268.0</ele><time>2026-04-16T13:22:55Z</time></trkpt><trkpt lat="43.11737418913258" lon="12.213677233620217"><ele>268.0</ele><time>2026-04-16T13:22:56Z</time></trkpt><trkpt lat="43.11745992563727" lon="12.213704935060383"><ele>268.0</ele><time>2026-04-16T13:22:57Z</time></trkpt><trkpt lat="43.11754436543864" lon="12.21371553966731"><ele>268.0</ele><time>2026-04-16T13:22:58Z</time></trkpt><trkpt lat="43.117621942460524" lon="12.2137138967658"><ele>268.0</ele><time>2026-04-16T13:22:59Z</time></trkpt><trkpt lat="43.11770987019325" lon="12.213685765905437"><ele>266.6</ele><time>2026-04-16T13:23:00Z</time></trkpt><trkpt lat="43.11780920506101" lon="12.213662701885804"><ele>265.20000000000005</ele><time>2026-04-16T13:23:01Z</time></trkpt><trkpt lat="43.117922046991126" lon="12.213634692830972"><ele>263.8</ele><time>2026-04-16T13:23:02Z</time></trkpt><trkpt lat="43.118034263616316" lon="12.213605829253508"><ele>262.40000000000003</ele><time>2026-04-16T13:23:03Z</time></trkpt><trkpt lat="43.118133694133284" lon="12.213583662255951"><ele>261.0</ele><time>2026-04-16T13:23:04Z</time></trkpt><trkpt lat="43.11823022268758" lon="12.213562938361314"><ele>259.8333333333333</ele><time>2026-04-16T13:23:05Z</time></trkpt><trkpt lat="43.11831237920325" lon="12.213545609159983"><ele>258.6666666666667</ele><time>2026-04-16T13:23:06Z</time></trkpt><trkpt lat="43.11841224114053" lon="12.213522516989284"><ele>257.5</ele><time>2026-04-16T13:23:07Z</time></trkpt><trkpt lat="43.11850448479149" lon="12.21349872128898"><ele>256.33333333333337</ele><time>2026-04-16T13:23:08Z</time></trkpt><trkpt lat="43.118596154819706" lon="12.213481363741145"><ele>255.16666666666669</ele><time>2026-04-16T13:23:09Z</time></trkpt><trkpt lat="43.11867211956766" lon="12.213453890173632"><ele>254.0</ele><time>2026-04-16T13:23:10Z</time></trkpt><trkpt lat="43.11876078876406" lon="12.213388792695609"><ele>254.0</ele><time>2026-04-16T13:23:12Z</time></trkpt><trkpt lat="43.11876505812724" lon="12.213793296375"><ele>254.0</ele><time>2026-04-16T13:23:47Z</time></trkpt><trkpt lat="43.118799566431356" lon="12.213887828808511"><ele>254.0</ele><time>2026-04-16T13:23:48Z</time></trkpt><trkpt lat="43.11886493379978" lon="12.213920085092871"><ele>254.0</ele><time>2026-04-16T13:23:49Z</time></trkpt><trkpt lat="43.118974036443596" lon="12.213915041301766"><ele>253.6</ele><time>2026-04-16T13:23:50Z</time></trkpt><trkpt lat="43.1191044468276" lon="12.2139178056357"><ele>253.2</ele><time>2026-04-16T13:23:51Z</time></trkpt><trkpt lat="43.11920765404464" lon="12.2139253528849"><ele>252.79999999999998</ele><time>2026-04-16T13:23:52Z</time></trkpt><trkpt lat="43.119285458960555" lon="12.213966265039925"><ele>252.39999999999998</ele><time>2026-04-16T13:23:53Z</time></trkpt><trkpt lat="43.11935880071253" lon="12.21400488554381"><ele>252.0</ele><time>2026-04-16T13:23:54Z</time></trkpt><trkpt lat="43.11942373251618" lon="12.214051929474905"><ele>253.2</ele><time>2026-04-16T13:23:55Z</time></trkpt><trkpt lat="43.119491323497556" lon="12.214107545111098"><ele>254.39999999999998</ele><time>2026-04-16T13:23:56Z</time></trkpt><trkpt lat="43.11957524117612" lon="12.214175723744393"><ele>255.60000000000002</ele><time>2026-04-16T13:23:57Z</time></trkpt><trkpt lat="43.11966246841879" lon="12.21424646597442"><ele>256.8</ele><time>2026-04-16T13:23:58Z</time></trkpt><trkpt lat="43.11974933008283" lon="12.214293938438685"><ele>258.0</ele><time>2026-04-16T13:23:59Z</time></trkpt><trkpt lat="43.11982457860899" lon="12.214355398958268"><ele>257.3333333333333</ele><time>2026-04-16T13:24:00Z</time></trkpt><trkpt lat="43.11991669228544" lon="12.214434382340665"><ele>256.6666666666667</ele><time>2026-04-16T13:24:01Z</time></trkpt><trkpt lat="43.11997908628916" lon="12.21451338759415"><ele>256.0</ele><time>2026-04-16T13:24:02Z</time></trkpt><trkpt lat="43.12004814354115" lon="12.214583006633314"><ele>255.33333333333334</ele><time>2026-04-16T13:24:03Z</time></trkpt><trkpt lat="43.120109024036374" lon="12.214651985730674"><ele>254.66666666666669</ele><time>2026-04-16T13:24:04Z</time></trkpt><trkpt lat="43.120180205056876" lon="12.214707110416672"><ele>254.0</ele><time>2026-04-16T13:24:05Z</time></trkpt><trkpt lat="43.12022847117247" lon="12.214763883754244"><ele>255.50000000000003</ele><time>2026-04-16T13:24:06Z</time></trkpt><trkpt lat="43.12027418042406" lon="12.214848364497728"><ele>257.0</ele><time>2026-04-16T13:24:07Z</time></trkpt><trkpt lat="43.12035469140804" lon="12.214913264208136"><ele>258.5</ele><time>2026-04-16T13:24:08Z</time></trkpt><trkpt lat="43.120432118870085" lon="12.215002872413383"><ele>260.0</ele><time>2026-04-16T13:24:09Z</time></trkpt><trkpt lat="43.12048980437754" lon="12.21506535445736"><ele>261.5</ele><time>2026-04-16T13:24:10Z</time></trkpt><trkpt lat="43.12054529028789" lon="12.215124847103617"><ele>263.0</ele><time>2026-04-16T13:24:17.001Z</time></trkpt><trkpt lat="43.12061885029938" lon="12.215203844390471"><ele>263.0</ele><time>2026-04-16T13:24:18.001Z</time></trkpt><trkpt lat="43.12067640356263" lon="12.215289678724565"><ele>263.0</ele><time>2026-04-16T13:24:19.001Z</time></trkpt><trkpt lat="43.12077906933751" lon="12.215384465992264"><ele>263.0</ele><time>2026-04-16T13:24:21.001Z</time></trkpt><trkpt lat="43.12083921291038" lon="12.21547543306051"><ele>263.0</ele><time>2026-04-16T13:24:22.001Z</time></trkpt><trkpt lat="43.120878749880184" lon="12.215584491278873"><ele>263.0</ele><time>2026-04-16T13:24:23.001Z</time></trkpt><trkpt lat="43.12092730186944" lon="12.21565550549065"><ele>262.0</ele><time>2026-04-16T13:24:24.001Z</time></trkpt><trkpt lat="43.12095525294193" lon="12.215751973966466"><ele>261.0</ele><time>2026-04-16T13:24:25.001Z</time></trkpt><trkpt lat="43.12098451426141" lon="12.21585637372673"><ele>260.0</ele><time>2026-04-16T13:24:26.001Z</time></trkpt><trkpt lat="43.121018932672676" lon="12.215968810747126"><ele>259.0</ele><time>2026-04-16T13:24:27.001Z</time></trkpt><trkpt lat="43.1210422484052" lon="12.216060964835265"><ele>258.0</ele><time>2026-04-16T13:24:28.001Z</time></trkpt><trkpt lat="43.12106264014436" lon="12.216152382299194"><ele>257.0</ele><time>2026-04-16T13:24:29.001Z</time></trkpt><trkpt lat="43.12107756977755" lon="12.216244418531176"><ele>257.0</ele><time>2026-04-16T13:24:30.001Z</time></trkpt><trkpt lat="43.12109392110303" lon="12.21640893663191"><ele>257.0</ele><time>2026-04-16T13:24:32.001Z</time></trkpt><trkpt lat="43.121084756448525" lon="12.216568723362462"><ele>257.0</ele><time>2026-04-16T13:24:34.001Z</time></trkpt><trkpt lat="43.121074113878215" lon="12.21665376631857"><ele>257.0</ele><time>2026-04-16T13:24:35.001Z</time></trkpt><trkpt lat="43.12102235536139" lon="12.21679177805877"><ele>257.0</ele><time>2026-04-16T13:24:37.001Z</time></trkpt><trkpt lat="43.120969348908915" lon="12.216892679338002"><ele>256.83333333333337</ele><time>2026-04-16T13:24:39.001Z</time></trkpt><trkpt lat="43.120891853189626" lon="12.216919198746131"><ele>256.6666666666667</ele><time>2026-04-16T13:24:41.001Z</time></trkpt><trkpt lat="43.12082187882881" lon="12.216935911084692"><ele>256.5</ele><time>2026-04-16T13:24:42.001Z</time></trkpt><trkpt lat="43.12074900541765" lon="12.216982400928758"><ele>256.3333333333333</ele><time>2026-04-16T13:24:43.001Z</time></trkpt><trkpt lat="43.12066962387597" lon="12.217010124940796"><ele>256.16666666666663</ele><time>2026-04-16T13:24:44.001Z</time></trkpt><trkpt lat="43.12058649503298" lon="12.217076030823737"><ele>256.0</ele><time>2026-04-16T13:24:45.001Z</time></trkpt><trkpt lat="43.12049257136966" lon="12.217101928847232"><ele>257.0</ele><time>2026-04-16T13:24:46.001Z</time></trkpt><trkpt lat="43.120398867340384" lon="12.217167073175203"><ele>258.0</ele><time>2026-04-16T13:24:47.001Z</time></trkpt><trkpt lat="43.1203177309278" lon="12.217195792151156"><ele>259.0</ele><time>2026-04-16T13:24:48.001Z</time></trkpt><trkpt lat="43.120256437585276" lon="12.217239114977692"><ele>260.0</ele><time>2026-04-16T13:24:49.001Z</time></trkpt><trkpt lat="43.1202139678435" lon="12.21730291500711"><ele>261.0</ele><time>2026-04-16T13:24:50.001Z</time></trkpt><trkpt lat="43.12016559666868" lon="12.217416270799234"><ele>262.0</ele><time>2026-04-16T13:24:52Z</time></trkpt><trkpt lat="43.12014738398354" lon="12.21751559258165"><ele>262.0</ele><time>2026-04-16T13:24:53Z</time></trkpt><trkpt lat="43.12013210625966" lon="12.217619371839444"><ele>262.0</ele><time>2026-04-16T13:24:54Z</time></trkpt><trkpt lat="43.12011545814383" lon="12.217711778867663"><ele>262.0</ele><time>2026-04-16T13:24:55Z</time></trkpt><trkpt lat="43.12010675961515" lon="12.217872116151522"><ele>262.0</ele><time>2026-04-16T13:24:57Z</time></trkpt><trkpt lat="43.12011615829105" lon="12.21803771503226"><ele>262.0</ele><time>2026-04-16T13:24:59Z</time></trkpt><trkpt lat="43.12012028080028" lon="12.218125111176773"><ele>262.0</ele><time>2026-04-16T13:25:00Z</time></trkpt><trkpt lat="43.12012321112426" lon="12.21825745636834"><ele>262.4</ele><time>2026-04-16T13:25:02Z</time></trkpt><trkpt lat="43.120127343436174" lon="12.218431688192444"><ele>262.79999999999995</ele><time>2026-04-16T13:25:04Z</time></trkpt><trkpt lat="43.12012954442735" lon="12.218524488886114"><ele>263.2</ele><time>2026-04-16T13:25:05Z</time></trkpt><trkpt lat="43.1201465523997" lon="12.218671027321005"><ele>263.59999999999997</ele><time>2026-04-16T13:25:07Z</time></trkpt><trkpt lat="43.120131396547855" lon="12.218761482243075"><ele>264.0</ele><time>2026-04-16T13:25:08Z</time></trkpt><trkpt lat="43.120141080958845" lon="12.218939334845489"><ele>264.5</ele><time>2026-04-16T13:25:10Z</time></trkpt><trkpt lat="43.120184955397725" lon="12.219105102641926"><ele>265.0</ele><time>2026-04-16T13:25:12Z</time></trkpt><trkpt lat="43.12022210465078" lon="12.219186601013062"><ele>265.5</ele><time>2026-04-16T13:25:13Z</time></trkpt><trkpt lat="43.120263526109596" lon="12.219260108508236"><ele>266.0</ele><time>2026-04-16T13:25:14Z</time></trkpt><trkpt lat="43.12030795970336" lon="12.21933478925704"><ele>266.5</ele><time>2026-04-16T13:25:15Z</time></trkpt><trkpt lat="43.12036035330824" lon="12.219408673707544"><ele>267.0</ele><time>2026-04-16T13:25:16Z</time></trkpt><trkpt lat="43.12039936149707" lon="12.219487173741673"><ele>267.0</ele><time>2026-04-16T13:25:17Z</time></trkpt><trkpt lat="43.12043544965822" lon="12.219560950091441"><ele>267.0</ele><time>2026-04-16T13:25:18Z</time></trkpt><trkpt lat="43.12046482321859" lon="12.219639794324758"><ele>267.0</ele><time>2026-04-16T13:25:19Z</time></trkpt><trkpt lat="43.120493985524334" lon="12.21971907638036"><ele>267.0</ele><time>2026-04-16T13:25:20Z</time></trkpt><trkpt lat="43.120553095201885" lon="12.219867191897855"><ele>267.0</ele><time>2026-04-16T13:25:22Z</time></trkpt><trkpt lat="43.12059365271363" lon="12.220019519612011"><ele>267.0</ele><time>2026-04-16T13:25:24Z</time></trkpt><trkpt lat="43.12058677402838" lon="12.220109601980148"><ele>268.1666666666667</ele><time>2026-04-16T13:25:25Z</time></trkpt><trkpt lat="43.120605666771276" lon="12.220194153696573"><ele>269.3333333333333</ele><time>2026-04-16T13:25:26Z</time></trkpt><trkpt lat="43.12058124337768" lon="12.220330108161095"><ele>270.5</ele><time>2026-04-16T13:25:28Z</time></trkpt><trkpt lat="43.12055979236211" lon="12.220431083541184"><ele>271.66666666666663</ele><time>2026-04-16T13:25:31Z</time></trkpt><trkpt lat="43.12055404918678" lon="12.22057888602944"><ele>272.8333333333333</ele><time>2026-04-16T13:25:38Z</time></trkpt><trkpt lat="43.120561429879025" lon="12.220684658953607"><ele>274.0</ele><time>2026-04-16T13:25:39Z</time></trkpt><trkpt lat="43.12064696094137" lon="12.220833195668943"><ele>271.59999999999997</ele><time>2026-04-16T13:25:41Z</time></trkpt><trkpt lat="43.12074062067387" lon="12.220937299328142"><ele>269.2</ele><time>2026-04-16T13:25:42Z</time></trkpt><trkpt lat="43.1208258494569" lon="12.221000152659899"><ele>266.79999999999995</ele><time>2026-04-16T13:25:43Z</time></trkpt><trkpt lat="43.120927745449514" lon="12.221037118947152"><ele>264.4</ele><time>2026-04-16T13:25:44Z</time></trkpt><trkpt lat="43.121052106515414" lon="12.221058192907716"><ele>262.0</ele><time>2026-04-16T13:25:45Z</time></trkpt><trkpt lat="43.121157659554875" lon="12.221112390462377"><ele>262.0</ele><time>2026-04-16T13:25:46Z</time></trkpt><trkpt lat="43.121247265101886" lon="12.221162559822975"><ele>262.0</ele><time>2026-04-16T13:25:47Z</time></trkpt><trkpt lat="43.12133344855732" lon="12.22119025578285"><ele>262.0</ele><time>2026-04-16T13:25:48Z</time></trkpt><trkpt lat="43.121413296550216" lon="12.221215539839523"><ele>262.0</ele><time>2026-04-16T13:25:50Z</time></trkpt><trkpt lat="43.1214501331188" lon="12.221290414222512"><ele>262.0</ele><time>2026-04-16T13:25:52Z</time></trkpt><trkpt lat="43.12144467231361" lon="12.221385714892309"><ele>262.0</ele><time>2026-04-16T13:25:53Z</time></trkpt><trkpt lat="43.12142639395214" lon="12.221543509177765"><ele>264.2</ele><time>2026-04-16T13:25:55Z</time></trkpt><trkpt lat="43.12140575497025" lon="12.221634454034895"><ele>266.4</ele><time>2026-04-16T13:25:56Z</time></trkpt><trkpt lat="43.12134786969877" lon="12.221815993301263"><ele>268.6</ele><time>2026-04-16T13:25:58Z</time></trkpt><trkpt lat="43.12130638618408" lon="12.221906357233609"><ele>270.8</ele><time>2026-04-16T13:25:59Z</time></trkpt><trkpt lat="43.12126687691144" lon="12.221994437739921"><ele>273.0</ele><time>2026-04-16T13:26:00Z</time></trkpt><trkpt lat="43.121222453449114" lon="12.222106355635113"><ele>273.0</ele><time>2026-04-16T13:26:02Z</time></trkpt><trkpt lat="43.12116947323423" lon="12.222221545156152"><ele>273.0</ele><time>2026-04-16T13:26:04Z</time></trkpt><trkpt lat="43.12112403493507" lon="12.22232749140667"><ele>273.0</ele><time>2026-04-16T13:26:06Z</time></trkpt><trkpt lat="43.12104414353639" lon="12.222465971572321"><ele>273.0</ele><time>2026-04-16T13:26:08Z</time></trkpt><trkpt lat="43.12103950719407" lon="12.222557605964914"><ele>273.0</ele><time>2026-04-16T13:26:10Z</time></trkpt><trkpt lat="43.12107206167497" lon="12.22263442097406"><ele>275.3333333333333</ele><time>2026-04-16T13:26:11Z</time></trkpt><trkpt lat="43.12113852812017" lon="12.222701674571708"><ele>277.6666666666667</ele><time>2026-04-16T13:26:12Z</time></trkpt><trkpt lat="43.12122449650568" lon="12.222760159034738"><ele>280.0</ele><time>2026-04-16T13:26:13Z</time></trkpt><trkpt lat="43.12127053777405" lon="12.222826372440155"><ele>282.33333333333337</ele><time>2026-04-16T13:26:14Z</time></trkpt><trkpt lat="43.12130634366896" lon="12.22291987705318"><ele>284.6666666666667</ele><time>2026-04-16T13:26:15Z</time></trkpt><trkpt lat="43.12133262939941" lon="12.22300495387742"><ele>287.0</ele><time>2026-04-16T13:26:16Z</time></trkpt><trkpt lat="43.121337885443836" lon="12.223111308539643"><ele>289.6</ele><time>2026-04-16T13:26:17.001Z</time></trkpt><trkpt lat="43.121326626088376" lon="12.223249086849453"><ele>292.2</ele><time>2026-04-16T13:26:18.001Z</time></trkpt><trkpt lat="43.12130623184827" lon="12.223393673949053"><ele>294.8</ele><time>2026-04-16T13:26:19.001Z</time></trkpt><trkpt lat="43.121299175405525" lon="12.22352936917271"><ele>297.4</ele><time>2026-04-16T13:26:20.001Z</time></trkpt><trkpt lat="43.12129416600222" lon="12.223644691407053"><ele>300.0</ele><time>2026-04-16T13:26:21.001Z</time></trkpt><trkpt lat="43.12128066560559" lon="12.223737175336927"><ele>300.0</ele><time>2026-04-16T13:26:22.001Z</time></trkpt><trkpt lat="43.121256531118306" lon="12.223845488597757"><ele>300.0</ele><time>2026-04-16T13:26:23.001Z</time></trkpt><trkpt lat="43.1212276285201" lon="12.223951415382087"><ele>300.0</ele><time>2026-04-16T13:26:24.001Z</time></trkpt><trkpt lat="43.12119676285664" lon="12.224067077183598"><ele>300.0</ele><time>2026-04-16T13:26:25.001Z</time></trkpt><trkpt lat="43.121155273383216" lon="12.22418867874821"><ele>300.0</ele><time>2026-04-16T13:26:26.001Z</time></trkpt><trkpt lat="43.1211078015747" lon="12.224278530716456"><ele>300.0</ele><time>2026-04-16T13:26:27.001Z</time></trkpt><trkpt lat="43.12105873403944" lon="12.224352650521558"><ele>300.5</ele><time>2026-04-16T13:26:28.001Z</time></trkpt><trkpt lat="43.12099527563081" lon="12.224434126044793"><ele>301.0</ele><time>2026-04-16T13:26:29.001Z</time></trkpt><trkpt lat="43.12093947089743" lon="12.224511980682344"><ele>301.5</ele><time>2026-04-16T13:26:30.001Z</time></trkpt><trkpt lat="43.12090065579368" lon="12.224590174501156"><ele>302.0</ele><time>2026-04-16T13:26:31.001Z</time></trkpt><trkpt lat="43.12085234242754" lon="12.224734643478808"><ele>302.5</ele><time>2026-04-16T13:26:33.001Z</time></trkpt><trkpt lat="43.12082221227632" lon="12.224857136465815"><ele>303.0</ele><time>2026-04-16T13:26:35.001Z</time></trkpt><trkpt lat="43.12079676189609" lon="12.224971536355797"><ele>303.0</ele><time>2026-04-16T13:26:37.001Z</time></trkpt><trkpt lat="43.120763061014195" lon="12.225098878103884"><ele>303.0</ele><time>2026-04-16T13:26:39.001Z</time></trkpt><trkpt lat="43.120727171978295" lon="12.225225160023141"><ele>303.0</ele><time>2026-04-16T13:26:41.001Z</time></trkpt><trkpt lat="43.120702722102095" lon="12.225337873065824"><ele>303.0</ele><time>2026-04-16T13:26:43.001Z</time></trkpt><trkpt lat="43.12069655111186" lon="12.225447486239405"><ele>303.0</ele><time>2026-04-16T13:26:45.001Z</time></trkpt><trkpt lat="43.12070804274215" lon="12.22554506500985"><ele>303.0</ele><time>2026-04-16T13:26:46.001Z</time></trkpt><trkpt lat="43.12072673792517" lon="12.225630288494127"><ele>305.0</ele><time>2026-04-16T13:26:47.001Z</time></trkpt><trkpt lat="43.12074450064707" lon="12.225724742285342"><ele>307.0</ele><time>2026-04-16T13:26:48.001Z</time></trkpt><trkpt lat="43.12080351363352" lon="12.225802995423773"><ele>309.0</ele><time>2026-04-16T13:26:50Z</time></trkpt><trkpt lat="43.12092773038373" lon="12.225855076355511"><ele>311.0</ele><time>2026-04-16T13:26:52Z</time></trkpt><trkpt lat="43.12102519312969" lon="12.22589971733358"><ele>313.0</ele><time>2026-04-16T13:26:54Z</time></trkpt><trkpt lat="43.12111354962608" lon="12.226018449350725"><ele>313.0</ele><time>2026-04-16T13:26:56Z</time></trkpt><trkpt lat="43.1211359467479" lon="12.22614006541308"><ele>313.0</ele><time>2026-04-16T13:26:58Z</time></trkpt><trkpt lat="43.12119983407785" lon="12.226237000892356"><ele>313.0</ele><time>2026-04-16T13:27:00Z</time></trkpt><trkpt lat="43.121258137405896" lon="12.226276388760025"><ele>313.0</ele><time>2026-04-16T13:27:01Z</time></trkpt><trkpt lat="43.1213612231722" lon="12.226355986234957"><ele>313.0</ele><time>2026-04-16T13:27:03Z</time></trkpt><trkpt lat="43.12141276951759" lon="12.226407459769131"><ele>313.0</ele><time>2026-04-16T13:27:04Z</time></trkpt><trkpt lat="43.12146829566118" lon="12.226458290610639"><ele>313.4</ele><time>2026-04-16T13:27:05Z</time></trkpt><trkpt lat="43.121564296476436" lon="12.22651695741504"><ele>313.8</ele><time>2026-04-16T13:27:07Z</time></trkpt><trkpt lat="43.121640356047266" lon="12.226563955907856"><ele>314.2</ele><time>2026-04-16T13:27:08Z</time></trkpt><trkpt lat="43.12170488406225" lon="12.226614303787878"><ele>314.6</ele><time>2026-04-16T13:27:09Z</time></trkpt><trkpt lat="43.121810548910894" lon="12.226647511227037"><ele>315.0</ele><time>2026-04-16T13:27:11Z</time></trkpt><trkpt lat="43.12190522800478" lon="12.226742911005582"><ele>315.0</ele><time>2026-04-16T13:27:14Z</time></trkpt><trkpt lat="43.12196960336798" lon="12.226821667550126"><ele>315.0</ele><time>2026-04-16T13:27:15Z</time></trkpt><trkpt lat="43.12204271024171" lon="12.226907777869984"><ele>315.0</ele><time>2026-04-16T13:27:16Z</time></trkpt><trkpt lat="43.12210841403343" lon="12.226980734440811"><ele>315.0</ele><time>2026-04-16T13:27:17Z</time></trkpt><trkpt lat="43.12218792249811" lon="12.227108648977245"><ele>315.0</ele><time>2026-04-16T13:27:19Z</time></trkpt><trkpt lat="43.12222669395744" lon="12.227185742872237"><ele>314.8</ele><time>2026-04-16T13:27:20Z</time></trkpt><trkpt lat="43.12230031263757" lon="12.227330660109217"><ele>314.6</ele><time>2026-04-16T13:27:22Z</time></trkpt><trkpt lat="43.12233665095222" lon="12.227418133342645"><ele>314.4</ele><time>2026-04-16T13:27:23Z</time></trkpt><trkpt lat="43.122377913367565" lon="12.227500896759569"><ele>314.2</ele><time>2026-04-16T13:27:24Z</time></trkpt><trkpt lat="43.1224088476405" lon="12.227585309532095"><ele>314.0</ele><time>2026-04-16T13:27:25Z</time></trkpt><trkpt lat="43.122464191032435" lon="12.227708375684273"><ele>314.0</ele><time>2026-04-16T13:27:27Z</time></trkpt><trkpt lat="43.12250943417102" lon="12.227820955134419"><ele>314.0</ele><time>2026-04-16T13:27:29Z</time></trkpt><trkpt lat="43.12255666306396" lon="12.22794453814798"><ele>314.0</ele><time>2026-04-16T13:27:31Z</time></trkpt><trkpt lat="43.12254246519795" lon="12.228056992703166"><ele>314.0</ele><time>2026-04-16T13:27:34Z</time></trkpt><trkpt lat="43.1224517945344" lon="12.228055633036588"><ele>314.0</ele><time>2026-04-16T13:27:37Z</time></trkpt><trkpt lat="43.1223290815909" lon="12.22804952227444"><ele>315.0</ele><time>2026-04-16T13:27:39Z</time></trkpt><trkpt lat="43.12224603318287" lon="12.228054965776936"><ele>316.0</ele><time>2026-04-16T13:27:40Z</time></trkpt><trkpt lat="43.12213817275676" lon="12.228052967679869"><ele>317.0</ele><time>2026-04-16T13:27:41Z</time></trkpt><trkpt lat="43.122023041562294" lon="12.22804225748668"><ele>318.0</ele><time>2026-04-16T13:27:42Z</time></trkpt><trkpt lat="43.12190948728246" lon="12.228025358847884"><ele>319.0</ele><time>2026-04-16T13:27:43Z</time></trkpt><trkpt lat="43.12179063472037" lon="12.228006917364356"><ele>319.0</ele><time>2026-04-16T13:27:44Z</time></trkpt><trkpt lat="43.12166708007086" lon="12.227988794604594"><ele>319.0</ele><time>2026-04-16T13:27:45Z</time></trkpt><trkpt lat="43.12156751066902" lon="12.227975115247224"><ele>319.0</ele><time>2026-04-16T13:27:46Z</time></trkpt><trkpt lat="43.12149027964395" lon="12.22794950712489"><ele>319.0</ele><time>2026-04-16T13:27:47Z</time></trkpt><trkpt lat="43.12141658150418" lon="12.227922466565433"><ele>319.0</ele><time>2026-04-16T13:27:48Z</time></trkpt><trkpt lat="43.12133332613441" lon="12.22717082032663"><ele>320.0</ele><time>2026-04-16T13:27:50Z</time></trkpt><trkpt lat="43.12126925405476" lon="12.227122594858585"><ele>321.0</ele><time>2026-04-16T13:27:51Z</time></trkpt><trkpt lat="43.12119733919508" lon="12.227073732289737"><ele>322.0</ele><time>2026-04-16T13:27:52Z</time></trkpt><trkpt lat="43.121138003564816" lon="12.227027590362468"><ele>323.0</ele><time>2026-04-16T13:27:53Z</time></trkpt><trkpt lat="43.12104814924911" lon="12.22695361803206"><ele>324.0</ele><time>2026-04-16T13:27:55Z</time></trkpt><trkpt lat="43.120990351406014" lon="12.226897037051186"><ele>325.0</ele><time>2026-04-16T13:27:57Z</time></trkpt><trkpt lat="43.12094816308119" lon="12.226823858998058"><ele>325.0</ele><time>2026-04-16T13:28:00Z</time></trkpt><trkpt lat="43.12088942804626" lon="12.226777267410078"><ele>325.0</ele><time>2026-04-16T13:32:31Z</time></trkpt><trkpt lat="43.12097384944548" lon="12.226920210059903"><ele>325.0</ele><time>2026-04-16T13:32:34.001Z</time></trkpt><trkpt lat="43.121059000020296" lon="12.226966916326123"><ele>325.0</ele><time>2026-04-16T13:32:35.001Z</time></trkpt><trkpt lat="43.12113486587492" lon="12.227020035658146"><ele>325.0</ele><time>2026-04-16T13:32:36.001Z</time></trkpt><trkpt lat="43.121209942092676" lon="12.227079778945523"><ele>325.0</ele><time>2026-04-16T13:32:37.001Z</time></trkpt><trkpt lat="43.121300312072655" lon="12.227153028975854"><ele>325.0</ele><time>2026-04-16T13:32:38.001Z</time></trkpt><trkpt lat="43.12140448077102" lon="12.227235467966988"><ele>325.0</ele><time>2026-04-16T13:32:39.001Z</time></trkpt><trkpt lat="43.121497258699385" lon="12.227334768549794"><ele>325.0</ele><time>2026-04-16T13:32:40.001Z</time></trkpt><trkpt lat="43.12159315783464" lon="12.22741285156723"><ele>323.8</ele><time>2026-04-16T13:32:41.001Z</time></trkpt><trkpt lat="43.12168603947823" lon="12.227482359449962"><ele>322.6</ele><time>2026-04-16T13:32:42.001Z</time></trkpt><trkpt lat="43.121779423922646" lon="12.227524833425997"><ele>321.4</ele><time>2026-04-16T13:32:43.001Z</time></trkpt><trkpt lat="43.12186166286577" lon="12.227586426878913"><ele>320.2</ele><time>2026-04-16T13:32:44.001Z</time></trkpt><trkpt lat="43.121937135870624" lon="12.227645951562824"><ele>319.0</ele><time>2026-04-16T13:32:45.001Z</time></trkpt><trkpt lat="43.1220101331051" lon="12.22770426383175"><ele>319.0</ele><time>2026-04-16T13:32:46.001Z</time></trkpt><trkpt lat="43.12208444607132" lon="12.227756197828294"><ele>319.0</ele><time>2026-04-16T13:32:47.001Z</time></trkpt><trkpt lat="43.12216555465657" lon="12.227812873364371"><ele>319.0</ele><time>2026-04-16T13:32:48.001Z</time></trkpt><trkpt lat="43.12224084012126" lon="12.227868144066417"><ele>319.0</ele><time>2026-04-16T13:32:49.001Z</time></trkpt><trkpt lat="43.12230887072975" lon="12.227922864349628"><ele>319.0</ele><time>2026-04-16T13:32:50.001Z</time></trkpt><trkpt lat="43.12240756399983" lon="12.227988941161259"><ele>319.0</ele><time>2026-04-16T13:32:52.001Z</time></trkpt><trkpt lat="43.12243919806464" lon="12.228068359878298"><ele>319.0</ele><time>2026-04-16T13:32:55Z</time></trkpt><trkpt lat="43.122369086163935" lon="12.228067738712891"><ele>319.0</ele><time>2026-04-16T13:32:57Z</time></trkpt><trkpt lat="43.12225930428839" lon="12.22807402275476"><ele>319.0</ele><time>2026-04-16T13:32:58Z</time></trkpt><trkpt lat="43.122146668967964" lon="12.228073767241698"><ele>319.0</ele><time>2026-04-16T13:32:59Z</time></trkpt><trkpt lat="43.12202329286434" lon="12.228065119820329"><ele>319.0</ele><time>2026-04-16T13:33:00Z</time></trkpt><trkpt lat="43.12190034994255" lon="12.228046850122752"><ele>319.0</ele><time>2026-04-16T13:33:01Z</time></trkpt><trkpt lat="43.12178269700994" lon="12.228028563004914"><ele>319.0</ele><time>2026-04-16T13:33:02Z</time></trkpt><trkpt lat="43.12166665094583" lon="12.228011581372995"><ele>319.0</ele><time>2026-04-16T13:33:03Z</time></trkpt><trkpt lat="43.12155253873588" lon="12.227995904049182"><ele>319.0</ele><time>2026-04-16T13:33:04Z</time></trkpt><trkpt lat="43.12143852084013" lon="12.227982245962608"><ele>318.8</ele><time>2026-04-16T13:33:05Z</time></trkpt><trkpt lat="43.12132313740014" lon="12.227971786205957"><ele>318.59999999999997</ele><time>2026-04-16T13:33:06Z</time></trkpt><trkpt lat="43.121211895792335" lon="12.227965885029711"><ele>318.4</ele><time>2026-04-16T13:33:07Z</time></trkpt><trkpt lat="43.12110192193398" lon="12.227963706016919"><ele>318.2</ele><time>2026-04-16T13:33:08Z</time></trkpt><trkpt lat="43.12099688026645" lon="12.227970932954749"><ele>318.0</ele><time>2026-04-16T13:33:09Z</time></trkpt><trkpt lat="43.12089357648385" lon="12.227990362801421"><ele>318.0</ele><time>2026-04-16T13:33:10Z</time></trkpt><trkpt lat="43.120787333178896" lon="12.228019078050908"><ele>318.0</ele><time>2026-04-16T13:33:11Z</time></trkpt><trkpt lat="43.12067251095318" lon="12.228056028998248"><ele>318.0</ele><time>2026-04-16T13:33:12Z</time></trkpt><trkpt lat="43.12056967376194" lon="12.228090594594416"><ele>318.0</ele><time>2026-04-16T13:33:13Z</time></trkpt><trkpt lat="43.12047455652214" lon="12.228123730769711"><ele>318.0</ele><time>2026-04-16T13:33:14Z</time></trkpt><trkpt lat="43.12037446344476" lon="12.22816158045681"><ele>311.75</ele><time>2026-04-16T13:33:15Z</time></trkpt><trkpt lat="43.120267483394514" lon="12.228203575811103"><ele>305.5</ele><time>2026-04-16T13:33:16Z</time></trkpt><trkpt lat="43.12013608812688" lon="12.228251294350676"><ele>299.25</ele><time>2026-04-16T13:33:17Z</time></trkpt><trkpt lat="43.12000564280271" lon="12.22830738605761"><ele>293.0</ele><time>2026-04-16T13:33:18Z</time></trkpt><trkpt lat="43.119882196911256" lon="12.22830527965424"><ele>292.8</ele><time>2026-04-16T13:33:19Z</time></trkpt><trkpt lat="43.11976376580619" lon="12.228317375510589"><ele>292.6</ele><time>2026-04-16T13:33:20Z</time></trkpt><trkpt lat="43.11965177181184" lon="12.228324400510223"><ele>292.4</ele><time>2026-04-16T13:33:21Z</time></trkpt><trkpt lat="43.11955536913534" lon="12.228325167855333"><ele>292.2</ele><time>2026-04-16T13:33:22Z</time></trkpt><trkpt lat="43.11947242959843" lon="12.228312808662892"><ele>292.0</ele><time>2026-04-16T13:33:23Z</time></trkpt><trkpt lat="43.11939165539544" lon="12.22829139776893"><ele>292.0</ele><time>2026-04-16T13:33:24Z</time></trkpt><trkpt lat="43.11931990069382" lon="12.228242324992365"><ele>292.0</ele><time>2026-04-16T13:33:25Z</time></trkpt><trkpt lat="43.11924053366698" lon="12.228214215212184"><ele>292.0</ele><time>2026-04-16T13:33:26Z</time></trkpt><trkpt lat="43.11915304818667" lon="12.228247649269548"><ele>292.0</ele><time>2026-04-16T13:33:27Z</time></trkpt><trkpt lat="43.119084084956405" lon="12.228379693283758"><ele>292.0</ele><time>2026-04-16T13:33:28Z</time></trkpt><trkpt lat="43.118976659853566" lon="12.228450212561892"><ele>292.0</ele><time>2026-04-16T13:33:29Z</time></trkpt><trkpt lat="43.11887053822483" lon="12.228529001860979"><ele>292.0</ele><time>2026-04-16T13:33:30Z</time></trkpt><trkpt lat="43.1187662733564" lon="12.228581003842013"><ele>292.0</ele><time>2026-04-16T13:33:31Z</time></trkpt><trkpt lat="43.11866976717888" lon="12.22861876440257"><ele>292.0</ele><time>2026-04-16T13:33:32Z</time></trkpt><trkpt lat="43.11857184775015" lon="12.228647298502214"><ele>292.0</ele><time>2026-04-16T13:33:33Z</time></trkpt><trkpt lat="43.11846879240308" lon="12.228670481964505"><ele>292.0</ele><time>2026-04-16T13:33:34Z</time></trkpt><trkpt lat="43.11837408051829" lon="12.228689632085544"><ele>292.0</ele><time>2026-04-16T13:33:35Z</time></trkpt><trkpt lat="43.11829104956532" lon="12.228706753941868"><ele>292.0</ele><time>2026-04-16T13:33:37Z</time></trkpt><trkpt lat="43.11835902858856" lon="12.228692766470438"><ele>292.0</ele><time>2026-04-16T13:33:42Z</time></trkpt><trkpt lat="43.11835816445278" lon="12.228584677635329"><ele>292.0</ele><time>2026-04-16T13:33:44Z</time></trkpt><trkpt lat="43.11831144164263" lon="12.22848505747965"><ele>292.0</ele><time>2026-04-16T13:33:45Z</time></trkpt><trkpt lat="43.11826589733111" lon="12.228380532023298"><ele>292.0</ele><time>2026-04-16T13:33:46Z</time></trkpt><trkpt lat="43.118174595443485" lon="12.228319190151772"><ele>292.0</ele><time>2026-04-16T13:33:48Z</time></trkpt><trkpt lat="43.11811717055497" lon="12.228365633187686"><ele>292.0</ele><time>2026-04-16T13:35:20Z</time></trkpt><trkpt lat="43.1179996151228" lon="12.228365881224304"><ele>292.0</ele><time>2026-04-16T13:35:29Z</time></trkpt><trkpt lat="43.11790609799267" lon="12.228391912584344"><ele>292.0</ele><time>2026-04-16T13:35:30Z</time></trkpt><trkpt lat="43.117841274504066" lon="12.228379994124138"><ele>292.0</ele><time>2026-04-16T13:35:31Z</time></trkpt><trkpt lat="43.117789195960654" lon="12.228318810770785"><ele>292.0</ele><time>2026-04-16T13:35:32Z</time></trkpt><trkpt lat="43.11771213208642" lon="12.228285183996634"><ele>292.0</ele><time>2026-04-16T13:35:33Z</time></trkpt><trkpt lat="43.11764652949167" lon="12.228216155281215"><ele>292.0</ele><time>2026-04-16T13:35:34Z</time></trkpt><trkpt lat="43.11755444902406" lon="12.228141591352522"><ele>292.0</ele><time>2026-04-16T13:35:35Z</time></trkpt><trkpt lat="43.11744857000504" lon="12.228038091626253"><ele>292.0</ele><time>2026-04-16T13:35:36Z</time></trkpt><trkpt lat="43.11736083241269" lon="12.227959081729304"><ele>294.0</ele><time>2026-04-16T13:35:37Z</time></trkpt><trkpt lat="43.11728628350349" lon="12.227899976762853"><ele>296.0</ele><time>2026-04-16T13:35:38Z</time></trkpt><trkpt lat="43.11722413579518" lon="12.22788548059621"><ele>298.0</ele><time>2026-04-16T13:35:39Z</time></trkpt><trkpt lat="43.11713942059046" lon="12.227987548890903"><ele>300.0</ele><time>2026-04-16T13:35:41Z</time></trkpt><trkpt lat="43.11704716302787" lon="12.22808950062196"><ele>302.0</ele><time>2026-04-16T13:35:42Z</time></trkpt><trkpt lat="43.11693697060581" lon="12.22820870628036"><ele>302.0</ele><time>2026-04-16T13:35:43Z</time></trkpt><trkpt lat="43.116826547671074" lon="12.228311970190898"><ele>302.0</ele><time>2026-04-16T13:35:44Z</time></trkpt><trkpt lat="43.11671667065787" lon="12.228345211234625"><ele>302.0</ele><time>2026-04-16T13:35:45Z</time></trkpt><trkpt lat="43.11663772875679" lon="12.228401942961828"><ele>302.0</ele><time>2026-04-16T13:35:46Z</time></trkpt><trkpt lat="43.11657135364262" lon="12.228554831387466"><ele>302.2</ele><time>2026-04-16T13:35:48Z</time></trkpt><trkpt lat="43.11654887258841" lon="12.228700408648951"><ele>302.4</ele><time>2026-04-16T13:35:50Z</time></trkpt><trkpt lat="43.11651684927357" lon="12.228786985190448"><ele>302.6</ele><time>2026-04-16T13:35:51Z</time></trkpt><trkpt lat="43.11645006563001" lon="12.228872670086131"><ele>302.8</ele><time>2026-04-16T13:35:52Z</time></trkpt><trkpt lat="43.11637682385398" lon="12.22895038037927"><ele>303.0</ele><time>2026-04-16T13:35:53Z</time></trkpt><trkpt lat="43.116294465238475" lon="12.229034378583762"><ele>303.0</ele><time>2026-04-16T13:35:54Z</time></trkpt><trkpt lat="43.11622238028389" lon="12.22909386377673"><ele>303.0</ele><time>2026-04-16T13:35:55Z</time></trkpt><trkpt lat="43.11614272222003" lon="12.22913943292583"><ele>303.0</ele><time>2026-04-16T13:35:56Z</time></trkpt><trkpt lat="43.11604782952756" lon="12.229181181177186"><ele>303.0</ele><time>2026-04-16T13:35:57Z</time></trkpt><trkpt lat="43.115949761749796" lon="12.229225282446322"><ele>303.0</ele><time>2026-04-16T13:35:58Z</time></trkpt><trkpt lat="43.11588945534025" lon="12.22925240235738"><ele>303.0</ele><time>2026-04-16T13:35:59Z</time></trkpt><trkpt lat="43.11581989691517" lon="12.229283682918691"><ele>303.0</ele><time>2026-04-16T13:36:01Z</time></trkpt><trkpt lat="43.11574356471911" lon="12.229139506362236"><ele>303.0</ele><time>2026-04-16T13:36:02Z</time></trkpt><trkpt lat="43.11561966408515" lon="12.229157827167546"><ele>303.0</ele><time>2026-04-16T13:36:04Z</time></trkpt><trkpt lat="43.11554630242324" lon="12.229159039951783"><ele>303.0</ele><time>2026-04-16T13:36:05Z</time></trkpt><trkpt lat="43.11547111836664" lon="12.2291531128775"><ele>303.0</ele><time>2026-04-16T13:36:06Z</time></trkpt><trkpt lat="43.115396881337745" lon="12.229149256236333"><ele>303.6666666666667</ele><time>2026-04-16T13:36:07Z</time></trkpt><trkpt lat="43.11529645940801" lon="12.22915826164487"><ele>304.3333333333333</ele><time>2026-04-16T13:36:09Z</time></trkpt><trkpt lat="43.115173523176566" lon="12.22917272438066"><ele>305.0</ele><time>2026-04-16T13:36:11Z</time></trkpt><trkpt lat="43.11510915889191" lon="12.229178041231656"><ele>305.66666666666663</ele><time>2026-04-16T13:36:12Z</time></trkpt><trkpt lat="43.115035999259995" lon="12.229191590037333"><ele>306.3333333333333</ele><time>2026-04-16T13:36:13Z</time></trkpt><trkpt lat="43.114968282685304" lon="12.229209283168647"><ele>307.0</ele><time>2026-04-16T13:36:14Z</time></trkpt><trkpt lat="43.114861920806064" lon="12.229253475011275"><ele>308.0</ele><time>2026-04-16T13:36:16Z</time></trkpt><trkpt lat="43.11480075297321" lon="12.229281945411223"><ele>309.0</ele><time>2026-04-16T13:36:17Z</time></trkpt><trkpt lat="43.11470809004914" lon="12.229344985288403"><ele>310.0</ele><time>2026-04-16T13:36:19Z</time></trkpt><trkpt lat="43.11459871761009" lon="12.229414185236351"><ele>311.0</ele><time>2026-04-16T13:36:21Z</time></trkpt><trkpt lat="43.11446959445029" lon="12.229406948313144"><ele>312.0</ele><time>2026-04-16T13:36:23Z</time></trkpt><trkpt lat="43.11439432063239" lon="12.229392684029241"><ele>312.0</ele><time>2026-04-16T13:36:24Z</time></trkpt><trkpt lat="43.114307578889274" lon="12.22939445284903"><ele>312.0</ele><time>2026-04-16T13:36:25Z</time></trkpt><trkpt lat="43.1142282585634" lon="12.229402070549934"><ele>312.0</ele><time>2026-04-16T13:36:26Z</time></trkpt><trkpt lat="43.11416205403393" lon="12.22941831908975"><ele>312.0</ele><time>2026-04-16T13:36:27Z</time></trkpt><trkpt lat="43.114043634273635" lon="12.22943095913021"><ele>312.0</ele><time>2026-04-16T13:36:29Z</time></trkpt><trkpt lat="43.113950914957904" lon="12.229429992163901"><ele>312.0</ele><time>2026-04-16T13:36:31Z</time></trkpt><trkpt lat="43.113901365377345" lon="12.229494542836223"><ele>316.8</ele><time>2026-04-16T13:36:33Z</time></trkpt><trkpt lat="43.11388949937993" lon="12.229630107196597"><ele>321.6</ele><time>2026-04-16T13:36:36Z</time></trkpt><trkpt lat="43.11394728708989" lon="12.229774661546463"><ele>326.40000000000003</ele><time>2026-04-16T13:36:38Z</time></trkpt><trkpt lat="43.11399498823229" lon="12.229885605327167"><ele>331.2</ele><time>2026-04-16T13:36:39Z</time></trkpt><trkpt lat="43.11403396692944" lon="12.229969238720823"><ele>336.0</ele><time>2026-04-16T13:36:40Z</time></trkpt><trkpt lat="43.114004176109674" lon="12.230085512082113"><ele>336.3333333333333</ele><time>2026-04-16T13:36:50Z</time></trkpt><trkpt lat="43.11397329862785" lon="12.230185008332064"><ele>336.6666666666667</ele><time>2026-04-16T13:36:52Z</time></trkpt><trkpt lat="43.11395084577591" lon="12.230332755659735"><ele>337.0</ele><time>2026-04-16T13:36:54Z</time></trkpt><trkpt lat="43.11394917250909" lon="12.230461455737933"><ele>337.33333333333337</ele><time>2026-04-16T13:36:56Z</time></trkpt><trkpt lat="43.11392103396052" lon="12.230588050050956"><ele>337.6666666666667</ele><time>2026-04-16T13:36:58Z</time></trkpt><trkpt lat="43.11390141991483" lon="12.230678785662088"><ele>338.0</ele><time>2026-04-16T13:37:16Z</time></trkpt><trkpt lat="43.11388820986835" lon="12.230793050193608"><ele>338.2</ele><time>2026-04-16T13:37:18Z</time></trkpt><trkpt lat="43.11388362073611" lon="12.23089326310149"><ele>338.4</ele><time>2026-04-16T13:37:20Z</time></trkpt><trkpt lat="43.113850397546464" lon="12.231029743881669"><ele>338.59999999999997</ele><time>2026-04-16T13:37:22Z</time></trkpt><trkpt lat="43.1137802738941" lon="12.231163726817357"><ele>338.79999999999995</ele><time>2026-04-16T13:37:24Z</time></trkpt><trkpt lat="43.113749142876145" lon="12.231243020610119"><ele>339.0</ele><time>2026-04-16T13:37:25Z</time></trkpt><trkpt lat="43.11368520387708" lon="12.23136587734735"><ele>339.0</ele><time>2026-04-16T13:37:27Z</time></trkpt><trkpt lat="43.11365103549375" lon="12.231468136943269"><ele>339.0</ele><time>2026-04-16T13:37:29Z</time></trkpt><trkpt lat="43.11366360967211" lon="12.231618966169778"><ele>339.0</ele><time>2026-04-16T13:37:32Z</time></trkpt><trkpt lat="43.113656429463575" lon="12.231711363674107"><ele>339.0</ele><time>2026-04-16T13:37:33Z</time></trkpt><trkpt lat="43.11363432830759" lon="12.231855587266512"><ele>339.0</ele><time>2026-04-16T13:37:35Z</time></trkpt><trkpt lat="43.11361449999165" lon="12.23196224707687"><ele>339.0</ele><time>2026-04-16T13:37:37Z</time></trkpt><trkpt lat="43.11359891321749" lon="12.232092225340283"><ele>338.5</ele><time>2026-04-16T13:37:39Z</time></trkpt><trkpt lat="43.11358764406274" lon="12.232218496710292"><ele>338.0</ele><time>2026-04-16T13:37:41Z</time></trkpt><trkpt lat="43.11357406064642" lon="12.232326247899294"><ele>337.5</ele><time>2026-04-16T13:37:43Z</time></trkpt><trkpt lat="43.11346935841343" lon="12.232415327135776"><ele>337.0</ele><time>2026-04-16T13:37:45Z</time></trkpt><trkpt lat="43.11341636740202" lon="12.232472535449567"><ele>336.5</ele><time>2026-04-16T13:37:53Z</time></trkpt><trkpt lat="43.113368132082535" lon="12.23253322245822"><ele>336.0</ele><time>2026-04-16T13:37:54Z</time></trkpt><trkpt lat="43.11329358678718" lon="12.232644829289042"><ele>333.5</ele><time>2026-04-16T13:37:56Z</time></trkpt><trkpt lat="43.113235083034695" lon="12.232716910509266"><ele>331.0</ele><time>2026-04-16T13:37:58Z</time></trkpt><trkpt lat="43.11315697947875" lon="12.232728404836152"><ele>328.5</ele><time>2026-04-16T13:38:00Z</time></trkpt><trkpt lat="43.11308695671927" lon="12.23263349343156"><ele>326.0</ele><time>2026-04-16T13:38:02Z</time></trkpt><trkpt lat="43.11304081667879" lon="12.232551900425676"><ele>323.5</ele><time>2026-04-16T13:38:03Z</time></trkpt><trkpt lat="43.112976274667595" lon="12.232464817324857"><ele>321.0</ele><time>2026-04-16T13:38:04Z</time></trkpt><trkpt lat="43.11292399317054" lon="12.232406836415585"><ele>321.0</ele><time>2026-04-16T13:38:05Z</time></trkpt><trkpt lat="43.112790099807846" lon="12.232454259108096"><ele>321.0</ele><time>2026-04-16T13:38:06Z</time></trkpt><trkpt lat="43.11273900086094" lon="12.232390359868711"><ele>321.0</ele><time>2026-04-16T13:38:07Z</time></trkpt><trkpt lat="43.112669619366805" lon="12.232306559033098"><ele>321.0</ele><time>2026-04-16T13:38:09Z</time></trkpt><trkpt lat="43.112622376749556" lon="12.232226160518346"><ele>321.0</ele><time>2026-04-16T13:38:11Z</time></trkpt><trkpt lat="43.11251977841395" lon="12.232229661190951"><ele>320.0</ele><time>2026-04-16T13:38:13Z</time></trkpt><trkpt lat="43.112433656862954" lon="12.232216405342806"><ele>319.0</ele><time>2026-04-16T13:38:15Z</time></trkpt><trkpt lat="43.11233637884436" lon="12.232233724410957"><ele>318.0</ele><time>2026-04-16T13:38:17Z</time></trkpt><trkpt lat="43.1122387997516" lon="12.232325127742945"><ele>317.0</ele><time>2026-04-16T13:38:19Z</time></trkpt><trkpt lat="43.1121797325462" lon="12.232366731211782"><ele>316.0</ele><time>2026-04-16T13:38:20Z</time></trkpt><trkpt lat="43.11212308314226" lon="12.23240683133816"><ele>315.0</ele><time>2026-04-16T13:38:21Z</time></trkpt><trkpt lat="43.11202576223321" lon="12.232496966962193"><ele>313.4</ele><time>2026-04-16T13:38:23Z</time></trkpt><trkpt lat="43.11190744762589" lon="12.232513151883179"><ele>311.8</ele><time>2026-04-16T13:38:25Z</time></trkpt><trkpt lat="43.11179992017928" lon="12.232548936321578"><ele>310.2</ele><time>2026-04-16T13:38:27Z</time></trkpt><trkpt lat="43.11169998035292" lon="12.232555288522818"><ele>308.6</ele><time>2026-04-16T13:38:29Z</time></trkpt><trkpt lat="43.11160806559088" lon="12.232532703880041"><ele>307.0</ele><time>2026-04-16T13:38:31Z</time></trkpt><trkpt lat="43.11154469822307" lon="12.232465011368644"><ele>305.4</ele><time>2026-04-16T13:38:33Z</time></trkpt><trkpt lat="43.11149176942258" lon="12.23238099708306"><ele>303.79999999999995</ele><time>2026-04-16T13:38:35Z</time></trkpt><trkpt lat="43.11149153505607" lon="12.232253448359467"><ele>302.2</ele><time>2026-04-16T13:38:37Z</time></trkpt><trkpt lat="43.111481068755026" lon="12.232118655244275"><ele>300.59999999999997</ele><time>2026-04-16T13:38:39Z</time></trkpt><trkpt lat="43.1115012190542" lon="12.231979249574033"><ele>299.0</ele><time>2026-04-16T13:38:41Z</time></trkpt><trkpt lat="43.11154931851288" lon="12.231839931379065"><ele>302.2</ele><time>2026-04-16T13:38:43Z</time></trkpt><trkpt lat="43.111608364240666" lon="12.231701481791012"><ele>305.4</ele><time>2026-04-16T13:38:45Z</time></trkpt><trkpt lat="43.11168469469612" lon="12.231682522432655"><ele>308.6</ele><time>2026-04-16T13:38:46Z</time></trkpt><trkpt lat="43.1117516914452" lon="12.231555391585697"><ele>311.8</ele><time>2026-04-16T13:38:48Z</time></trkpt><trkpt lat="43.11179324423538" lon="12.231479558798219"><ele>315.0</ele><time>2026-04-16T13:38:50Z</time></trkpt><trkpt lat="43.11179308063413" lon="12.231370935981609"><ele>315.3333333333333</ele><time>2026-04-16T13:38:52Z</time></trkpt><trkpt lat="43.11179747526165" lon="12.231284872785013"><ele>315.6666666666667</ele><time>2026-04-16T13:38:53Z</time></trkpt><trkpt lat="43.111767793465944" lon="12.231147928895423"><ele>316.0</ele><time>2026-04-16T13:38:55Z</time></trkpt><trkpt lat="43.111736927821134" lon="12.231070079260046"><ele>316.33333333333337</ele><time>2026-04-16T13:38:56Z</time></trkpt><trkpt lat="43.11168807932956" lon="12.230987146791403"><ele>316.6666666666667</ele><time>2026-04-16T13:38:57Z</time></trkpt><trkpt lat="43.11161922239849" lon="12.23091934446242"><ele>317.0</ele><time>2026-04-16T13:38:58Z</time></trkpt><trkpt lat="43.11157008966221" lon="12.230834945602046"><ele>317.0</ele><time>2026-04-16T13:38:59Z</time></trkpt><trkpt lat="43.11143927614622" lon="12.230787310717325"><ele>317.0</ele><time>2026-04-16T13:39:01Z</time></trkpt><trkpt lat="43.11134188972702" lon="12.230870074529605"><ele>317.0</ele><time>2026-04-16T13:39:02Z</time></trkpt><trkpt lat="43.1112624871504" lon="12.23093163480114"><ele>317.0</ele><time>2026-04-16T13:39:03Z</time></trkpt><trkpt lat="43.11116872701903" lon="12.230995928895233"><ele>317.0</ele><time>2026-04-16T13:39:04Z</time></trkpt><trkpt lat="43.11108680008362" lon="12.231058192252537"><ele>317.0</ele><time>2026-04-16T13:39:05Z</time></trkpt><trkpt lat="43.11101634827902" lon="12.231110982731021"><ele>317.0</ele><time>2026-04-16T13:39:06Z</time></trkpt><trkpt lat="43.1109528671691" lon="12.231154224376944"><ele>317.0</ele><time>2026-04-16T13:39:07Z</time></trkpt><trkpt lat="43.11088591621541" lon="12.231180526247753"><ele>317.0</ele><time>2026-04-16T13:39:08Z</time></trkpt><trkpt lat="43.11081544348584" lon="12.231194807511484"><ele>317.0</ele><time>2026-04-16T13:39:09Z</time></trkpt><trkpt lat="43.11074391731937" lon="12.231196279808223"><ele>317.0</ele><time>2026-04-16T13:39:10Z</time></trkpt><trkpt lat="43.11068076681855" lon="12.231156842988199"><ele>317.0</ele><time>2026-04-16T13:39:11Z</time></trkpt><trkpt lat="43.110617574400145" lon="12.231122765367184"><ele>319.1666666666667</ele><time>2026-04-16T13:39:12Z</time></trkpt><trkpt lat="43.11055018282439" lon="12.231098344917351"><ele>321.33333333333337</ele><time>2026-04-16T13:39:13Z</time></trkpt><trkpt lat="43.11050146832364" lon="12.231031412002713"><ele>323.5</ele><time>2026-04-16T13:39:14Z</time></trkpt><trkpt lat="43.11042874860006" lon="12.230990455035725"><ele>325.6666666666667</ele><time>2026-04-16T13:39:15Z</time></trkpt><trkpt lat="43.11036401602149" lon="12.23092297131509"><ele>327.8333333333333</ele><time>2026-04-16T13:39:16Z</time></trkpt><trkpt lat="43.11028184794945" lon="12.230856907459774"><ele>330.0</ele><time>2026-04-16T13:39:18Z</time></trkpt><trkpt lat="43.11019641937967" lon="12.231036040454827"><ele>330.0</ele><time>2026-04-16T13:39:20Z</time></trkpt><trkpt lat="43.11016518059195" lon="12.231198940573927"><ele>330.0</ele><time>2026-04-16T13:39:21Z</time></trkpt><trkpt lat="43.11013848914749" lon="12.231375385137179"><ele>330.0</ele><time>2026-04-16T13:39:22Z</time></trkpt><trkpt lat="43.11011010348038" lon="12.231576926104303"><ele>330.0</ele><time>2026-04-16T13:39:23Z</time></trkpt><trkpt lat="43.1100523325614" lon="12.231730588303202"><ele>327.6666666666667</ele><time>2026-04-16T13:39:24Z</time></trkpt><trkpt lat="43.1100151208726" lon="12.231838448158273"><ele>325.3333333333333</ele><time>2026-04-16T13:39:25Z</time></trkpt><trkpt lat="43.109973403332866" lon="12.231924565015328"><ele>323.0</ele><time>2026-04-16T13:39:26Z</time></trkpt><trkpt lat="43.1099188456736" lon="12.231995485739942"><ele>320.66666666666663</ele><time>2026-04-16T13:39:27Z</time></trkpt><trkpt lat="43.10987281323358" lon="12.232075534203837"><ele>318.3333333333333</ele><time>2026-04-16T13:39:28Z</time></trkpt><trkpt lat="43.10981978494549" lon="12.232186844013205"><ele>316.0</ele><time>2026-04-16T13:39:29Z</time></trkpt><trkpt lat="43.10978198238056" lon="12.232291661169608"><ele>321.8</ele><time>2026-04-16T13:39:30Z</time></trkpt><trkpt lat="43.10978652793206" lon="12.232435624621221"><ele>327.6</ele><time>2026-04-16T13:39:31Z</time></trkpt><trkpt lat="43.10977369699804" lon="12.23259726404385"><ele>333.4</ele><time>2026-04-16T13:39:32Z</time></trkpt><trkpt lat="43.10976582826336" lon="12.232726686481449"><ele>339.2</ele><time>2026-04-16T13:39:33Z</time></trkpt><trkpt lat="43.10975550121898" lon="12.232827994486492"><ele>345.0</ele><time>2026-04-16T13:39:34Z</time></trkpt><trkpt lat="43.10972227854776" lon="12.23294645664617"><ele>345.0</ele><time>2026-04-16T13:39:35Z</time></trkpt><trkpt lat="43.10969057360943" lon="12.233132584448843"><ele>345.0</ele><time>2026-04-16T13:39:36Z</time></trkpt><trkpt lat="43.10963715618531" lon="12.233317603329578"><ele>345.0</ele><time>2026-04-16T13:39:37Z</time></trkpt><trkpt lat="43.10960251903087" lon="12.233480776552353"><ele>345.0</ele><time>2026-04-16T13:39:38Z</time></trkpt><trkpt lat="43.109547253629096" lon="12.233584878737046"><ele>341.4</ele><time>2026-04-16T13:39:39Z</time></trkpt><trkpt lat="43.109517294118874" lon="12.233664196137248"><ele>337.8</ele><time>2026-04-16T13:39:40Z</time></trkpt><trkpt lat="43.109453780137834" lon="12.233723186873199"><ele>334.20000000000005</ele><time>2026-04-16T13:39:41Z</time></trkpt><trkpt lat="43.10936204096818" lon="12.233754427477418"><ele>330.6</ele><time>2026-04-16T13:39:42Z</time></trkpt><trkpt lat="43.109258265254326" lon="12.233818948351795"><ele>327.0</ele><time>2026-04-16T13:39:43Z</time></trkpt><trkpt lat="43.109158535930526" lon="12.233888145479796"><ele>327.40000000000003</ele><time>2026-04-16T13:39:44Z</time></trkpt><trkpt lat="43.10907564346312" lon="12.233946692323855"><ele>327.8</ele><time>2026-04-16T13:39:45Z</time></trkpt><trkpt lat="43.108981099741726" lon="12.234008631670473"><ele>328.2</ele><time>2026-04-16T13:39:46Z</time></trkpt><trkpt lat="43.10888684921836" lon="12.234036968561854"><ele>328.6</ele><time>2026-04-16T13:39:47Z</time></trkpt><trkpt lat="43.10880662122061" lon="12.234081932973796"><ele>329.0</ele><time>2026-04-16T13:39:48Z</time></trkpt><trkpt lat="43.108719941200064" lon="12.234089481453543"><ele>326.4</ele><time>2026-04-16T13:39:49Z</time></trkpt><trkpt lat="43.10864820629351" lon="12.234104475989618"><ele>323.79999999999995</ele><time>2026-04-16T13:39:50Z</time></trkpt><trkpt lat="43.10853878196867" lon="12.234124531026751"><ele>321.20000000000005</ele><time>2026-04-16T13:39:51Z</time></trkpt><trkpt lat="43.10841576889509" lon="12.234128723919902"><ele>318.6</ele><time>2026-04-16T13:39:52Z</time></trkpt><trkpt lat="43.1083181311583" lon="12.23414687588486"><ele>316.0</ele><time>2026-04-16T13:39:53Z</time></trkpt><trkpt lat="43.10823756850791" lon="12.234121089982754"><ele>316.0</ele><time>2026-04-16T13:39:54Z</time></trkpt><trkpt lat="43.10816626797612" lon="12.234124661559344"><ele>316.0</ele><time>2026-04-16T13:39:55Z</time></trkpt><trkpt lat="43.10805653672883" lon="12.234193366318175"><ele>316.0</ele><time>2026-04-16T13:39:57Z</time></trkpt><trkpt lat="43.10801873014513" lon="12.234296543400095"><ele>316.0</ele><time>2026-04-16T13:40:01Z</time></trkpt><trkpt lat="43.107984425236175" lon="12.23441573545185"><ele>316.0</ele><time>2026-04-16T13:40:02Z</time></trkpt><trkpt lat="43.10798091624586" lon="12.234567526533215"><ele>316.0</ele><time>2026-04-16T13:40:03Z</time></trkpt><trkpt lat="43.10794794681481" lon="12.234728593933664"><ele>316.0</ele><time>2026-04-16T13:40:04Z</time></trkpt><trkpt lat="43.10790989064257" lon="12.234890604692623"><ele>316.0</ele><time>2026-04-16T13:40:05Z</time></trkpt><trkpt lat="43.10787852280517" lon="12.235008447994703"><ele>316.0</ele><time>2026-04-16T13:40:06Z</time></trkpt><trkpt lat="43.10782524837346" lon="12.235151852410775"><ele>314.2</ele><time>2026-04-16T13:40:08Z</time></trkpt><trkpt lat="43.1077514379353" lon="12.235281166954767"><ele>312.40000000000003</ele><time>2026-04-16T13:40:10Z</time></trkpt><trkpt lat="43.107711382152495" lon="12.235348619327375"><ele>310.6</ele><time>2026-04-16T13:40:11Z</time></trkpt><trkpt lat="43.10764104098274" lon="12.235493085314191"><ele>308.8</ele><time>2026-04-16T13:40:13Z</time></trkpt><trkpt lat="43.10766242024536" lon="12.235369649772199"><ele>307.0</ele><time>2026-04-16T13:40:14Z</time></trkpt><trkpt lat="43.10759421615011" lon="12.235352299293274"><ele>307.0</ele><time>2026-04-16T13:40:17Z</time></trkpt><trkpt lat="43.10751617461727" lon="12.235261777290082"><ele>307.0</ele><time>2026-04-16T13:40:34Z</time></trkpt><trkpt lat="43.10744546529496" lon="12.235214391224424"><ele>307.0</ele><time>2026-04-16T13:40:35Z</time></trkpt><trkpt lat="43.10738691701678" lon="12.235101419150213"><ele>307.0</ele><time>2026-04-16T13:40:36Z</time></trkpt><trkpt lat="43.10729537927722" lon="12.234994137491261"><ele>307.0</ele><time>2026-04-16T13:40:37Z</time></trkpt><trkpt lat="43.107205549118895" lon="12.23486358897905"><ele>311.0</ele><time>2026-04-16T13:40:38Z</time></trkpt><trkpt lat="43.10709356725268" lon="12.234751269333053"><ele>315.0</ele><time>2026-04-16T13:40:39Z</time></trkpt><trkpt lat="43.10698314263193" lon="12.234665117736032"><ele>319.0</ele><time>2026-04-16T13:40:40Z</time></trkpt><trkpt lat="43.10688593992268" lon="12.234608250862781"><ele>323.0</ele><time>2026-04-16T13:40:41Z</time></trkpt><trkpt lat="43.10680037805181" lon="12.234557358107086"><ele>323.0</ele><time>2026-04-16T13:40:42Z</time></trkpt><trkpt lat="43.10671867182515" lon="12.23451925045606"><ele>323.0</ele><time>2026-04-16T13:40:43Z</time></trkpt><trkpt lat="43.10663931151852" lon="12.234502630043545"><ele>323.0</ele><time>2026-04-16T13:40:44Z</time></trkpt><trkpt lat="43.106563694901695" lon="12.234464491296578"><ele>323.0</ele><time>2026-04-16T13:40:45Z</time></trkpt><trkpt lat="43.106467241300024" lon="12.234512577296917"><ele>323.0</ele><time>2026-04-16T13:40:46Z</time></trkpt><trkpt lat="43.10635749123759" lon="12.23448180508985"><ele>322.6666666666667</ele><time>2026-04-16T13:40:47Z</time></trkpt><trkpt lat="43.10628414043719" lon="12.234694994323956"><ele>322.3333333333333</ele><time>2026-04-16T13:40:48Z</time></trkpt><trkpt lat="43.10619523980007" lon="12.234863704837375"><ele>322.0</ele><time>2026-04-16T13:40:49Z</time></trkpt><trkpt lat="43.10610401028635" lon="12.235021968466334"><ele>318.5</ele><time>2026-04-16T13:40:50Z</time></trkpt><trkpt lat="43.10601540735971" lon="12.23517651520987"><ele>315.0</ele><time>2026-04-16T13:40:51Z</time></trkpt><trkpt lat="43.105938521296736" lon="12.235312021570529"><ele>311.5</ele><time>2026-04-16T13:40:52Z</time></trkpt><trkpt lat="43.105865722713695" lon="12.235434030088655"><ele>308.0</ele><time>2026-04-16T13:40:53Z</time></trkpt><trkpt lat="43.105788580585816" lon="12.235557522230994"><ele>305.4</ele><time>2026-04-16T13:40:54Z</time></trkpt><trkpt lat="43.105710099932736" lon="12.235659269071883"><ele>302.8</ele><time>2026-04-16T13:40:55Z</time></trkpt><trkpt lat="43.105622632885364" lon="12.235744132525696"><ele>300.2</ele><time>2026-04-16T13:40:56Z</time></trkpt><trkpt lat="43.10555567047785" lon="12.235856054876688"><ele>297.6</ele><time>2026-04-16T13:40:57Z</time></trkpt><trkpt lat="43.10547042371839" lon="12.235947655243383"><ele>295.0</ele><time>2026-04-16T13:40:58Z</time></trkpt><trkpt lat="43.10539057363889" lon="12.236046654874308"><ele>295.0</ele><time>2026-04-16T13:40:59Z</time></trkpt><trkpt lat="43.105313460078975" lon="12.236147590675493"><ele>295.0</ele><time>2026-04-16T13:41:00Z</time></trkpt><trkpt lat="43.10523761440393" lon="12.236245976048854"><ele>295.0</ele><time>2026-04-16T13:41:01Z</time></trkpt><trkpt lat="43.1051448395589" lon="12.236310969567404"><ele>295.0</ele><time>2026-04-16T13:41:02Z</time></trkpt><trkpt lat="43.105064002059706" lon="12.236394683925717"><ele>295.0</ele><time>2026-04-16T13:41:03Z</time></trkpt><trkpt lat="43.10496474190593" lon="12.23645964620491"><ele>292.2</ele><time>2026-04-16T13:41:04Z</time></trkpt><trkpt lat="43.104863212159245" lon="12.236521210358802"><ele>289.4</ele><time>2026-04-16T13:41:05Z</time></trkpt><trkpt lat="43.10476391131352" lon="12.2365766884407"><ele>286.6</ele><time>2026-04-16T13:41:06Z</time></trkpt><trkpt lat="43.104660495202914" lon="12.236626044834724"><ele>283.8</ele><time>2026-04-16T13:41:07Z</time></trkpt><trkpt lat="43.10455821010553" lon="12.23666321370013"><ele>281.0</ele><time>2026-04-16T13:41:08Z</time></trkpt><trkpt lat="43.104453181059" lon="12.236688899482344"><ele>281.0</ele><time>2026-04-16T13:41:09Z</time></trkpt><trkpt lat="43.10434694051072" lon="12.23670744560004"><ele>281.0</ele><time>2026-04-16T13:41:10Z</time></trkpt><trkpt lat="43.104242474777706" lon="12.23672502006543"><ele>281.0</ele><time>2026-04-16T13:41:11Z</time></trkpt><trkpt lat="43.10413494677959" lon="12.236742559152203"><ele>281.0</ele><time>2026-04-16T13:41:12Z</time></trkpt><trkpt lat="43.104027217755" lon="12.236762847915907"><ele>281.0</ele><time>2026-04-16T13:41:13Z</time></trkpt><trkpt lat="43.103920306549995" lon="12.236781870597147"><ele>279.40000000000003</ele><time>2026-04-16T13:41:14Z</time></trkpt><trkpt lat="43.10381008880268" lon="12.236795294034664"><ele>277.8</ele><time>2026-04-16T13:41:15Z</time></trkpt><trkpt lat="43.10370359452938" lon="12.23681258243386"><ele>276.20000000000005</ele><time>2026-04-16T13:41:16Z</time></trkpt><trkpt lat="43.10359522086472" lon="12.236831951718209"><ele>274.6</ele><time>2026-04-16T13:41:17Z</time></trkpt><trkpt lat="43.10348714473115" lon="12.236844994070669"><ele>273.0</ele><time>2026-04-16T13:41:18Z</time></trkpt><trkpt lat="43.103378124072584" lon="12.236857718236797"><ele>273.0</ele><time>2026-04-16T13:41:19Z</time></trkpt><trkpt lat="43.10327126260302" lon="12.236895476495034"><ele>273.0</ele><time>2026-04-16T13:41:20Z</time></trkpt><trkpt lat="43.10317554315526" lon="12.23697186638869"><ele>273.0</ele><time>2026-04-16T13:41:21Z</time></trkpt><trkpt lat="43.10309874211863" lon="12.237075650702279"><ele>273.0</ele><time>2026-04-16T13:41:22Z</time></trkpt><trkpt lat="43.10303347267376" lon="12.237192224948245"><ele>273.0</ele><time>2026-04-16T13:41:23Z</time></trkpt><trkpt lat="43.10297625925025" lon="12.23731241060662"><ele>271.6</ele><time>2026-04-16T13:41:24Z</time></trkpt><trkpt lat="43.10291735874167" lon="12.237424052357422"><ele>270.20000000000005</ele><time>2026-04-16T13:41:25Z</time></trkpt><trkpt lat="43.10284865724355" lon="12.237533117480234"><ele>268.8</ele><time>2026-04-16T13:41:26Z</time></trkpt><trkpt lat="43.10277773808999" lon="12.237634794042332"><ele>267.40000000000003</ele><time>2026-04-16T13:41:27Z</time></trkpt><trkpt lat="43.10269053117342" lon="12.23772332886119"><ele>266.0</ele><time>2026-04-16T13:41:28Z</time></trkpt><trkpt lat="43.102583956076" lon="12.237806267909868"><ele>266.0</ele><time>2026-04-16T13:41:29Z</time></trkpt><trkpt lat="43.102457125285866" lon="12.237894280117295"><ele>266.0</ele><time>2026-04-16T13:41:30Z</time></trkpt><trkpt lat="43.10233268832313" lon="12.237981215738461"><ele>266.0</ele><time>2026-04-16T13:41:31Z</time></trkpt><trkpt lat="43.102216830276234" lon="12.238064775137245"><ele>266.0</ele><time>2026-04-16T13:41:32Z</time></trkpt><trkpt lat="43.102109252222654" lon="12.23814463370281"><ele>263.5</ele><time>2026-04-16T13:41:33Z</time></trkpt><trkpt lat="43.10200354802934" lon="12.23822145617174"><ele>261.0</ele><time>2026-04-16T13:41:34Z</time></trkpt><trkpt lat="43.10189792945555" lon="12.238294813905853"><ele>258.5</ele><time>2026-04-16T13:41:35Z</time></trkpt><trkpt lat="43.10179442361116" lon="12.23836202743755"><ele>256.0</ele><time>2026-04-16T13:41:36Z</time></trkpt><trkpt lat="43.101690411832486" lon="12.238424445820264"><ele>256.0</ele><time>2026-04-16T13:41:37Z</time></trkpt><trkpt lat="43.10158477165831" lon="12.238480892555257"><ele>256.0</ele><time>2026-04-16T13:41:38Z</time></trkpt><trkpt lat="43.101479933979455" lon="12.238530916338128"><ele>256.0</ele><time>2026-04-16T13:41:39Z</time></trkpt><trkpt lat="43.10137402742186" lon="12.238579451060385"><ele>256.0</ele><time>2026-04-16T13:41:40Z</time></trkpt><trkpt lat="43.10126880763786" lon="12.23861843534193"><ele>256.0</ele><time>2026-04-16T13:41:41Z</time></trkpt><trkpt lat="43.10115844818703" lon="12.238642184531633"><ele>254.5</ele><time>2026-04-16T13:41:42Z</time></trkpt><trkpt lat="43.101041982937" lon="12.238645449309814"><ele>253.0</ele><time>2026-04-16T13:41:43Z</time></trkpt><trkpt lat="43.100921763232435" lon="12.238629521639263"><ele>251.5</ele><time>2026-04-16T13:41:44Z</time></trkpt><trkpt lat="43.10080114404779" lon="12.23859407403947"><ele>250.0</ele><time>2026-04-16T13:41:45Z</time></trkpt><trkpt lat="43.10068678688431" lon="12.238561426659025"><ele>248.4</ele><time>2026-04-16T13:41:46Z</time></trkpt><trkpt lat="43.10057937880948" lon="12.238534597583456"><ele>246.8</ele><time>2026-04-16T13:41:47Z</time></trkpt><trkpt lat="43.10047717986654" lon="12.238515869494407"><ele>245.2</ele><time>2026-04-16T13:41:48Z</time></trkpt><trkpt lat="43.10038003044786" lon="12.238495287338253"><ele>243.6</ele><time>2026-04-16T13:41:49Z</time></trkpt><trkpt lat="43.100287085078456" lon="12.238482428537951"><ele>242.0</ele><time>2026-04-16T13:41:50Z</time></trkpt><trkpt lat="43.10019611371045" lon="12.238485614272996"><ele>242.0</ele><time>2026-04-16T13:41:51Z</time></trkpt><trkpt lat="43.10011542655629" lon="12.238508837262248"><ele>242.0</ele><time>2026-04-16T13:41:52Z</time></trkpt><trkpt lat="43.1000494527961" lon="12.238536155694462"><ele>242.0</ele><time>2026-04-16T13:41:53Z</time></trkpt><trkpt lat="43.099952632963976" lon="12.238596886017321"><ele>242.0</ele><time>2026-04-16T13:41:55Z</time></trkpt><trkpt lat="43.099867224390465" lon="12.238621391150796"><ele>242.0</ele><time>2026-04-16T13:41:58Z</time></trkpt><trkpt lat="43.09976508027445" lon="12.238565013591455"><ele>241.0</ele><time>2026-04-16T13:42:00Z</time></trkpt><trkpt lat="43.099679890790256" lon="12.238522595237093"><ele>240.0</ele><time>2026-04-16T13:42:01Z</time></trkpt><trkpt lat="43.09957724617613" lon="12.238475606786105"><ele>239.0</ele><time>2026-04-16T13:42:02Z</time></trkpt><trkpt lat="43.099437548054446" lon="12.238407722974626"><ele>238.0</ele><time>2026-04-16T13:42:03Z</time></trkpt><trkpt lat="43.09929802302536" lon="12.238299621550711"><ele>238.0</ele><time>2026-04-16T13:42:04Z</time></trkpt><trkpt lat="43.09914078639243" lon="12.238174586145867"><ele>238.0</ele><time>2026-04-16T13:42:05Z</time></trkpt><trkpt lat="43.09899259247089" lon="12.238009958427988"><ele>238.0</ele><time>2026-04-16T13:42:06Z</time></trkpt><trkpt lat="43.09885409955365" lon="12.237800206319005"><ele>238.33333333333331</ele><time>2026-04-16T13:42:07Z</time></trkpt><trkpt lat="43.09872466327999" lon="12.237599391611623"><ele>238.66666666666669</ele><time>2026-04-16T13:42:08Z</time></trkpt><trkpt lat="43.09860621628771" lon="12.2374184687015"><ele>239.0</ele><time>2026-04-16T13:42:09Z</time></trkpt><trkpt lat="43.098485518337775" lon="12.237274764105129"><ele>239.0</ele><time>2026-04-16T13:42:10Z</time></trkpt><trkpt lat="43.09838767810679" lon="12.237139864071612"><ele>239.0</ele><time>2026-04-16T13:42:11Z</time></trkpt><trkpt lat="43.09828517877857" lon="12.237026528942407"><ele>239.0</ele><time>2026-04-16T13:42:12Z</time></trkpt><trkpt lat="43.09817393187872" lon="12.236962917864679"><ele>239.0</ele><time>2026-04-16T13:42:13Z</time></trkpt><trkpt lat="43.09805052960015" lon="12.236948118574732"><ele>239.2</ele><time>2026-04-16T13:42:14Z</time></trkpt><trkpt lat="43.09793347994766" lon="12.236970959997057"><ele>239.39999999999998</ele><time>2026-04-16T13:42:15Z</time></trkpt><trkpt lat="43.097820218083534" lon="12.236967686458696"><ele>239.6</ele><time>2026-04-16T13:42:16Z</time></trkpt><trkpt lat="43.097714403738074" lon="12.236970882676896"><ele>239.8</ele><time>2026-04-16T13:42:17Z</time></trkpt><trkpt lat="43.09761318962805" lon="12.236956541272427"><ele>240.0</ele><time>2026-04-16T13:42:18Z</time></trkpt><trkpt lat="43.09751701183082" lon="12.236922995496968"><ele>239.5</ele><time>2026-04-16T13:42:19Z</time></trkpt><trkpt lat="43.097410979039026" lon="12.236859270130985"><ele>239.0</ele><time>2026-04-16T13:42:20Z</time></trkpt><trkpt lat="43.097293565735434" lon="12.236806033321608"><ele>238.5</ele><time>2026-04-16T13:42:21Z</time></trkpt><trkpt lat="43.097178761826854" lon="12.236718169430555"><ele>238.0</ele><time>2026-04-16T13:42:22Z</time></trkpt><trkpt lat="43.09705355265204" lon="12.236603752499015"><ele>238.0</ele><time>2026-04-16T13:42:23Z</time></trkpt><trkpt lat="43.096917040617555" lon="12.236497462315873"><ele>238.0</ele><time>2026-04-16T13:42:24Z</time></trkpt><trkpt lat="43.09678743754256" lon="12.23639388162069"><ele>238.0</ele><time>2026-04-16T13:42:25Z</time></trkpt><trkpt lat="43.09665193422768" lon="12.236282601738868"><ele>238.0</ele><time>2026-04-16T13:42:26Z</time></trkpt><trkpt lat="43.09650513321032" lon="12.236184253828931"><ele>238.0</ele><time>2026-04-16T13:42:27Z</time></trkpt><trkpt lat="43.09635856718934" lon="12.236057108646085"><ele>238.0</ele><time>2026-04-16T13:42:28Z</time></trkpt><trkpt lat="43.09623470017867" lon="12.235951087533747"><ele>238.0</ele><time>2026-04-16T13:42:29Z</time></trkpt><trkpt lat="43.09611516722349" lon="12.235848912628876"><ele>238.0</ele><time>2026-04-16T13:42:30Z</time></trkpt><trkpt lat="43.096008442986076" lon="12.23575858280081"><ele>238.0</ele><time>2026-04-16T13:42:31Z</time></trkpt><trkpt lat="43.0959055767548" lon="12.235666875977055"><ele>238.0</ele><time>2026-04-16T13:42:32Z</time></trkpt><trkpt lat="43.09580314097857" lon="12.235582074562767"><ele>238.2</ele><time>2026-04-16T13:42:33Z</time></trkpt><trkpt lat="43.09570542308179" lon="12.235505740616684"><ele>238.4</ele><time>2026-04-16T13:42:34Z</time></trkpt><trkpt lat="43.09561858134732" lon="12.235435450190561"><ele>238.59999999999997</ele><time>2026-04-16T13:42:35Z</time></trkpt><trkpt lat="43.09555130747397" lon="12.235379671853112"><ele>238.79999999999998</ele><time>2026-04-16T13:42:36Z</time></trkpt><trkpt lat="43.095474802354246" lon="12.235303589790165"><ele>239.0</ele><time>2026-04-16T13:42:38Z</time></trkpt><trkpt lat="43.095390664039904" lon="12.23538594544615"><ele>239.0</ele><time>2026-04-16T13:46:47.999Z</time></trkpt><trkpt lat="43.09534398060052" lon="12.235490428956536"><ele>239.0</ele><time>2026-04-16T13:46:48.999Z</time></trkpt><trkpt lat="43.09528063155186" lon="12.235634684353126"><ele>239.0</ele><time>2026-04-16T13:46:49.999Z</time></trkpt><trkpt lat="43.09520795236343" lon="12.235795653395568"><ele>239.0</ele><time>2026-04-16T13:46:50.999Z</time></trkpt><trkpt lat="43.09511801799843" lon="12.235988672318282"><ele>238.33333333333334</ele><time>2026-04-16T13:46:51.999Z</time></trkpt><trkpt lat="43.095041763605956" lon="12.236171714283518"><ele>237.66666666666669</ele><time>2026-04-16T13:46:52.999Z</time></trkpt><trkpt lat="43.09494497614659" lon="12.236383356468076"><ele>237.0</ele><time>2026-04-16T13:46:53.999Z</time></trkpt><trkpt lat="43.0948395203498" lon="12.23661788349025"><ele>235.66666666666669</ele><time>2026-04-16T13:46:54.999Z</time></trkpt><trkpt lat="43.09473291043214" lon="12.236860929300105"><ele>234.33333333333334</ele><time>2026-04-16T13:46:55.999Z</time></trkpt><trkpt lat="43.09462656983847" lon="12.237104739396958"><ele>233.0</ele><time>2026-04-16T13:46:56.999Z</time></trkpt><trkpt lat="43.09453389887834" lon="12.237321729530057"><ele>233.0</ele><time>2026-04-16T13:46:57.999Z</time></trkpt><trkpt lat="43.09444645565442" lon="12.237524576917119"><ele>233.0</ele><time>2026-04-16T13:46:58.999Z</time></trkpt><trkpt lat="43.09436045388969" lon="12.237725981823818"><ele>233.0</ele><time>2026-04-16T13:46:59.999Z</time></trkpt><trkpt lat="43.094275481261775" lon="12.237917261823778"><ele>233.0</ele><time>2026-04-16T13:47:00.999Z</time></trkpt><trkpt lat="43.09419343834897" lon="12.238105694770747"><ele>233.0</ele><time>2026-04-16T13:47:01.999Z</time></trkpt><trkpt lat="43.09412097138541" lon="12.238272118141175"><ele>233.0</ele><time>2026-04-16T13:47:02.999Z</time></trkpt><trkpt lat="43.09405321369378" lon="12.238428515467303"><ele>233.0</ele><time>2026-04-16T13:47:03.999Z</time></trkpt><trkpt lat="43.09398947953203" lon="12.238572757375907"><ele>233.00000000000003</ele><time>2026-04-16T13:47:04.999Z</time></trkpt><trkpt lat="43.09393454792907" lon="12.23870230385739"><ele>233.0</ele><time>2026-04-16T13:47:05.999Z</time></trkpt><trkpt lat="43.09387207916374" lon="12.238796326699491"><ele>233.0</ele><time>2026-04-16T13:47:06.999Z</time></trkpt><trkpt lat="43.09382886300651" lon="12.23888082297299"><ele>233.0</ele><time>2026-04-16T13:47:07.999Z</time></trkpt><trkpt lat="43.09374990576763" lon="12.238865829027992"><ele>233.00000000000003</ele><time>2026-04-16T13:47:08.999Z</time></trkpt><trkpt lat="43.09367373113649" lon="12.238818876219275"><ele>233.0</ele><time>2026-04-16T13:47:09.999Z</time></trkpt><trkpt lat="43.09356134340435" lon="12.238762341912205"><ele>233.0</ele><time>2026-04-16T13:47:10.999Z</time></trkpt><trkpt lat="43.09342047904961" lon="12.238714836510125"><ele>233.0</ele><time>2026-04-16T13:47:11.999Z</time></trkpt><trkpt lat="43.093262164201334" lon="12.238634870109102"><ele>233.0</ele><time>2026-04-16T13:47:12.999Z</time></trkpt><trkpt lat="43.09308730845666" lon="12.238546136872124"><ele>232.66666666666669</ele><time>2026-04-16T13:47:13.999Z</time></trkpt><trkpt lat="43.09291921842848" lon="12.238452536065012"><ele>232.33333333333331</ele><time>2026-04-16T13:47:14.999Z</time></trkpt><trkpt lat="43.09277248310703" lon="12.238384084714768"><ele>232.0</ele><time>2026-04-16T13:47:15.999Z</time></trkpt><trkpt lat="43.09246347770784" lon="12.23826058178365"><ele>231.66666666666666</ele><time>2026-04-16T13:47:17.999Z</time></trkpt><trkpt lat="43.092307943698344" lon="12.238166096560771"><ele>231.33333333333331</ele><time>2026-04-16T13:47:18.999Z</time></trkpt><trkpt lat="43.09215843578274" lon="12.23812097824689"><ele>231.0</ele><time>2026-04-16T13:47:19.999Z</time></trkpt><trkpt lat="43.09203292000615" lon="12.23806006143595"><ele>231.8</ele><time>2026-04-16T13:47:20.999Z</time></trkpt><trkpt lat="43.09193481451126" lon="12.237975983753195"><ele>232.60000000000002</ele><time>2026-04-16T13:47:21.999Z</time></trkpt><trkpt lat="43.09184273299279" lon="12.237894137121442"><ele>233.4</ele><time>2026-04-16T13:47:22.999Z</time></trkpt><trkpt lat="43.091772396899906" lon="12.237793350820285"><ele>234.2</ele><time>2026-04-16T13:47:23.999Z</time></trkpt><trkpt lat="43.09177318669674" lon="12.237628736802396"><ele>235.0</ele><time>2026-04-16T13:47:24.999Z</time></trkpt><trkpt lat="43.09174029588092" lon="12.237454884185725"><ele>235.4</ele><time>2026-04-16T13:47:25.999Z</time></trkpt><trkpt lat="43.09172754832192" lon="12.237268577643164"><ele>235.8</ele><time>2026-04-16T13:47:26.999Z</time></trkpt><trkpt lat="43.091707895591185" lon="12.237105594562092"><ele>236.2</ele><time>2026-04-16T13:47:27.999Z</time></trkpt><trkpt lat="43.09168082888902" lon="12.23697734770541"><ele>236.6</ele><time>2026-04-16T13:47:28.999Z</time></trkpt><trkpt lat="43.0916226787919" lon="12.23688203541461"><ele>237.0</ele><time>2026-04-16T13:47:29.999Z</time></trkpt><trkpt lat="43.091519559927875" lon="12.236828306449535"><ele>237.33333333333331</ele><time>2026-04-16T13:47:30.999Z</time></trkpt><trkpt lat="43.09137834423375" lon="12.236800877522914"><ele>237.66666666666666</ele><time>2026-04-16T13:47:31.999Z</time></trkpt><trkpt lat="43.09121094070695" lon="12.236789118151036"><ele>238.0</ele><time>2026-04-16T13:47:32.999Z</time></trkpt><trkpt lat="43.091062108754905" lon="12.23678142107075"><ele>238.0</ele><time>2026-04-16T13:47:33.999Z</time></trkpt><trkpt lat="43.09093965358088" lon="12.236775353840951"><ele>238.0</ele><time>2026-04-16T13:47:34.999Z</time></trkpt><trkpt lat="43.09082740689996" lon="12.236800415623582"><ele>238.0</ele><time>2026-04-16T13:47:35.999Z</time></trkpt><trkpt lat="43.09071083671901" lon="12.23686754704531"><ele>238.0</ele><time>2026-04-16T13:47:36.999Z</time></trkpt><trkpt lat="43.09060891378034" lon="12.236960806406872"><ele>237.8</ele><time>2026-04-16T13:47:37.999Z</time></trkpt><trkpt lat="43.09051940369385" lon="12.237065826749278"><ele>237.60000000000002</ele><time>2026-04-16T13:47:38.999Z</time></trkpt><trkpt lat="43.09043723497743" lon="12.237159299846077"><ele>237.39999999999998</ele><time>2026-04-16T13:47:39.999Z</time></trkpt><trkpt lat="43.09036423963981" lon="12.23725008930001"><ele>237.2</ele><time>2026-04-16T13:47:40.999Z</time></trkpt><trkpt lat="43.09028884113431" lon="12.237316937748787"><ele>237.0</ele><time>2026-04-16T13:47:41.999Z</time></trkpt><trkpt lat="43.090245262820694" lon="12.23739594124792"><ele>237.0</ele><time>2026-04-16T13:47:42.999Z</time></trkpt><trkpt lat="43.090181372838316" lon="12.237419724400276"><ele>237.0</ele><time>2026-04-16T13:47:44.999Z</time></trkpt><trkpt lat="43.09017545449718" lon="12.237195462949702"><ele>237.0</ele><time>2026-04-16T13:47:48Z</time></trkpt><trkpt lat="43.09016617164133" lon="12.237044418375568"><ele>237.0</ele><time>2026-04-16T13:47:49Z</time></trkpt><trkpt lat="43.09015632430924" lon="12.236865131193895"><ele>237.0</ele><time>2026-04-16T13:47:50Z</time></trkpt><trkpt lat="43.09013520585728" lon="12.236656330624825"><ele>237.0</ele><time>2026-04-16T13:47:51Z</time></trkpt><trkpt lat="43.090100522128964" lon="12.23645047457591"><ele>237.0</ele><time>2026-04-16T13:47:52Z</time></trkpt><trkpt lat="43.09006410730586" lon="12.236223303708858"><ele>237.33333333333331</ele><time>2026-04-16T13:47:53Z</time></trkpt><trkpt lat="43.090024963470135" lon="12.235977103407343"><ele>237.66666666666666</ele><time>2026-04-16T13:47:54Z</time></trkpt><trkpt lat="43.089984258933164" lon="12.235732241357518"><ele>238.0</ele><time>2026-04-16T13:47:55Z</time></trkpt><trkpt lat="43.089949273658725" lon="12.235528367772543"><ele>238.0</ele><time>2026-04-16T13:47:56Z</time></trkpt><trkpt lat="43.08992626740346" lon="12.235342304527924"><ele>238.0</ele><time>2026-04-16T13:47:57Z</time></trkpt><trkpt lat="43.08989605668744" lon="12.235177057521573"><ele>238.0</ele><time>2026-04-16T13:47:58Z</time></trkpt><trkpt lat="43.08984442845277" lon="12.235024239845101"><ele>238.0</ele><time>2026-04-16T13:47:59Z</time></trkpt><trkpt lat="43.08975540231626" lon="12.234867401631085"><ele>239.0</ele><time>2026-04-16T13:48:00Z</time></trkpt><trkpt lat="43.08962615786632" lon="12.234713123468506"><ele>240.0</ele><time>2026-04-16T13:48:01Z</time></trkpt><trkpt lat="43.089506265579736" lon="12.234590304565055"><ele>241.0</ele><time>2026-04-16T13:48:02Z</time></trkpt><trkpt lat="43.08943043470931" lon="12.234443789295703"><ele>241.0</ele><time>2026-04-16T13:48:03Z</time></trkpt><trkpt lat="43.08932202536298" lon="12.23428054278376"><ele>241.0</ele><time>2026-04-16T13:48:04Z</time></trkpt><trkpt lat="43.08918808773313" lon="12.234100162537898"><ele>241.0</ele><time>2026-04-16T13:48:05Z</time></trkpt><trkpt lat="43.08904944219589" lon="12.233953982357104"><ele>240.4</ele><time>2026-04-16T13:48:06Z</time></trkpt><trkpt lat="43.08894240458863" lon="12.233809614291594"><ele>239.8</ele><time>2026-04-16T13:48:07Z</time></trkpt><trkpt lat="43.08885257328942" lon="12.233702094917895"><ele>239.20000000000002</ele><time>2026-04-16T13:48:08Z</time></trkpt><trkpt lat="43.08877576006087" lon="12.23362698215369"><ele>238.60000000000002</ele><time>2026-04-16T13:48:09Z</time></trkpt><trkpt lat="43.08871838187713" lon="12.233546667717192"><ele>238.0</ele><time>2026-04-16T13:48:11Z</time></trkpt><trkpt lat="43.08880462020033" lon="12.233452449087268"><ele>238.0</ele><time>2026-04-16T13:48:13Z</time></trkpt><trkpt lat="43.08887810053741" lon="12.233328420417024"><ele>238.0</ele><time>2026-04-16T13:48:14Z</time></trkpt><trkpt lat="43.088964630663824" lon="12.233145326759267"><ele>238.0</ele><time>2026-04-16T13:48:15Z</time></trkpt><trkpt lat="43.089070504080716" lon="12.23294768836871"><ele>239.25</ele><time>2026-04-16T13:48:16Z</time></trkpt><trkpt lat="43.08916543721745" lon="12.232787650967829"><ele>240.5</ele><time>2026-04-16T13:48:17Z</time></trkpt><trkpt lat="43.089226197111486" lon="12.232644499497997"><ele>241.75</ele><time>2026-04-16T13:48:18Z</time></trkpt><trkpt lat="43.08928914746" lon="12.232520453012542"><ele>243.0</ele><time>2026-04-16T13:48:19Z</time></trkpt><trkpt lat="43.08932615085425" lon="12.232404732003236"><ele>244.25</ele><time>2026-04-16T13:48:20Z</time></trkpt><trkpt lat="43.08933833497125" lon="12.232265592503131"><ele>245.5</ele><time>2026-04-16T13:48:21Z</time></trkpt><trkpt lat="43.089316304255554" lon="12.232090407195653"><ele>246.75</ele><time>2026-04-16T13:48:22Z</time></trkpt><trkpt lat="43.089261406527385" lon="12.231879641234912"><ele>248.0</ele><time>2026-04-16T13:48:23Z</time></trkpt><trkpt lat="43.08923520798259" lon="12.231609565489734"><ele>248.66666666666669</ele><time>2026-04-16T13:48:24Z</time></trkpt><trkpt lat="43.08918915901989" lon="12.231360974307918"><ele>249.33333333333331</ele><time>2026-04-16T13:48:25Z</time></trkpt><trkpt lat="43.08915865589927" lon="12.231156261832467"><ele>250.0</ele><time>2026-04-16T13:48:26Z</time></trkpt><trkpt lat="43.08912762031964" lon="12.23099678658488"><ele>249.33333333333331</ele><time>2026-04-16T13:48:27Z</time></trkpt><trkpt lat="43.08907310614993" lon="12.230849190382179"><ele>248.66666666666669</ele><time>2026-04-16T13:48:28Z</time></trkpt><trkpt lat="43.08897532748138" lon="12.230688498702161"><ele>248.0</ele><time>2026-04-16T13:48:29Z</time></trkpt><trkpt lat="43.08883855370341" lon="12.230510157844932"><ele>249.33333333333334</ele><time>2026-04-16T13:48:30Z</time></trkpt><trkpt lat="43.088702064638454" lon="12.23030802346727"><ele>250.66666666666669</ele><time>2026-04-16T13:48:31Z</time></trkpt><trkpt lat="43.0885741555229" lon="12.230109377936918"><ele>252.0</ele><time>2026-04-16T13:48:32Z</time></trkpt><trkpt lat="43.088443717685664" lon="12.229923432639573"><ele>251.0</ele><time>2026-04-16T13:48:33Z</time></trkpt><trkpt lat="43.08833640155865" lon="12.229770416866057"><ele>250.0</ele><time>2026-04-16T13:48:34Z</time></trkpt><trkpt lat="43.08826572036254" lon="12.22960697069546"><ele>249.0</ele><time>2026-04-16T13:48:35Z</time></trkpt><trkpt lat="43.08818528842185" lon="12.22948495142681"><ele>248.0</ele><time>2026-04-16T13:48:36Z</time></trkpt><trkpt lat="43.08814815679244" lon="12.229335930584789"><ele>248.0</ele><time>2026-04-16T13:48:37Z</time></trkpt><trkpt lat="43.088109268755304" lon="12.2291947346298"><ele>248.0</ele><time>2026-04-16T13:48:38Z</time></trkpt><trkpt lat="43.088100986945896" lon="12.229075211576626"><ele>248.0</ele><time>2026-04-16T13:48:39Z</time></trkpt><trkpt lat="43.08810379419499" lon="12.228935808412027"><ele>248.0</ele><time>2026-04-16T13:48:41Z</time></trkpt><trkpt lat="43.08819336915775" lon="12.228869434459076"><ele>248.0</ele><time>2026-04-16T13:48:42Z</time></trkpt><trkpt lat="43.088292178386354" lon="12.22876122609102"><ele>251.0</ele><time>2026-04-16T13:48:43Z</time></trkpt><trkpt lat="43.088356595769596" lon="12.22860400519029"><ele>254.0</ele><time>2026-04-16T13:48:44Z</time></trkpt><trkpt lat="43.08840166893981" lon="12.22845301406142"><ele>257.0</ele><time>2026-04-16T13:48:45Z</time></trkpt><trkpt lat="43.08844371364351" lon="12.228255815210085"><ele>260.0</ele><time>2026-04-16T13:48:46Z</time></trkpt><trkpt lat="43.08848565062238" lon="12.22802524157638"><ele>261.0</ele><time>2026-04-16T13:48:47Z</time></trkpt><trkpt lat="43.08853413330605" lon="12.227767258232387"><ele>262.0</ele><time>2026-04-16T13:48:48Z</time></trkpt><trkpt lat="43.088587256586884" lon="12.227511216773669"><ele>263.0</ele><time>2026-04-16T13:48:49Z</time></trkpt><trkpt lat="43.08863129918296" lon="12.227296966694029"><ele>263.0</ele><time>2026-04-16T13:48:50Z</time></trkpt><trkpt lat="43.08869180545352" lon="12.22709231579637"><ele>263.0</ele><time>2026-04-16T13:48:51Z</time></trkpt><trkpt lat="43.08873733058736" lon="12.22690664635984"><ele>263.0</ele><time>2026-04-16T13:48:52Z</time></trkpt><trkpt lat="43.088797369432726" lon="12.226715103803981"><ele>263.0</ele><time>2026-04-16T13:48:53Z</time></trkpt><trkpt lat="43.08883214710513" lon="12.226491150409382"><ele>263.0</ele><time>2026-04-16T13:48:54Z</time></trkpt><trkpt lat="43.088885473630675" lon="12.22622258639621"><ele>263.0</ele><time>2026-04-16T13:48:55Z</time></trkpt><trkpt lat="43.088931141296634" lon="12.225948742156143"><ele>264.33333333333337</ele><time>2026-04-16T13:48:56Z</time></trkpt><trkpt lat="43.08900595225421" lon="12.225686318623499"><ele>265.6666666666667</ele><time>2026-04-16T13:48:57Z</time></trkpt><trkpt lat="43.08905560876271" lon="12.225464673005696"><ele>267.0</ele><time>2026-04-16T13:48:58Z</time></trkpt><trkpt lat="43.08910400560827" lon="12.225248650035974"><ele>271.6666666666667</ele><time>2026-04-16T13:48:59Z</time></trkpt><trkpt lat="43.089146246163466" lon="12.225062210462339"><ele>276.33333333333337</ele><time>2026-04-16T13:49:00Z</time></trkpt><trkpt lat="43.08920367959579" lon="12.224808659966806"><ele>281.0</ele><time>2026-04-16T13:49:01Z</time></trkpt><trkpt lat="43.0892388246773" lon="12.22458470285377"><ele>281.75</ele><time>2026-04-16T13:49:02Z</time></trkpt><trkpt lat="43.089278987305036" lon="12.224475043326589"><ele>282.5</ele><time>2026-04-16T13:49:03Z</time></trkpt><trkpt lat="43.089307974830334" lon="12.224272814383578"><ele>283.25</ele><time>2026-04-16T13:49:04Z</time></trkpt><trkpt lat="43.089360589514705" lon="12.224065739422624"><ele>284.0</ele><time>2026-04-16T13:49:05Z</time></trkpt><trkpt lat="43.08940371567268" lon="12.223862529831978"><ele>285.25</ele><time>2026-04-16T13:49:06Z</time></trkpt><trkpt lat="43.08944132408064" lon="12.223685957242013"><ele>286.5</ele><time>2026-04-16T13:49:07Z</time></trkpt><trkpt lat="43.08947068220631" lon="12.223526759124166"><ele>287.75</ele><time>2026-04-16T13:49:08Z</time></trkpt><trkpt lat="43.08951637992637" lon="12.223346259230672"><ele>289.0</ele><time>2026-04-16T13:49:09Z</time></trkpt><trkpt lat="43.089561082776946" lon="12.223142829741683"><ele>289.25</ele><time>2026-04-16T13:49:10Z</time></trkpt><trkpt lat="43.089606591287065" lon="12.222929940952316"><ele>289.5</ele><time>2026-04-16T13:49:11Z</time></trkpt><trkpt lat="43.089645100219045" lon="12.222733365514374"><ele>289.75</ele><time>2026-04-16T13:49:12Z</time></trkpt><trkpt lat="43.08967626057656" lon="12.222560551307023"><ele>290.0</ele><time>2026-04-16T13:49:13Z</time></trkpt><trkpt lat="43.08973240760253" lon="12.22237691327867"><ele>290.6666666666667</ele><time>2026-04-16T13:49:14Z</time></trkpt><trkpt lat="43.08976365673695" lon="12.222151175239691"><ele>291.3333333333333</ele><time>2026-04-16T13:49:15Z</time></trkpt><trkpt lat="43.089833190087596" lon="12.22192033160616"><ele>292.0</ele><time>2026-04-16T13:49:16Z</time></trkpt><trkpt lat="43.0898972764762" lon="12.221637534231583"><ele>298.0</ele><time>2026-04-16T13:49:17Z</time></trkpt><trkpt lat="43.08995280134182" lon="12.221392516882839"><ele>304.0</ele><time>2026-04-16T13:49:18Z</time></trkpt><trkpt lat="43.08999920671518" lon="12.221188104852741"><ele>310.0</ele><time>2026-04-16T13:49:18.999Z</time></trkpt><trkpt lat="43.09003304303642" lon="12.221012718076906"><ele>310.0</ele><time>2026-04-16T13:49:19.999Z</time></trkpt><trkpt lat="43.09006500224364" lon="12.22086537341323"><ele>310.0</ele><time>2026-04-16T13:49:20.999Z</time></trkpt><trkpt lat="43.09009977104543" lon="12.220741404747875"><ele>310.0</ele><time>2026-04-16T13:49:21.999Z</time></trkpt><trkpt lat="43.09013347438416" lon="12.220645224638128"><ele>310.0</ele><time>2026-04-16T13:49:22.999Z</time></trkpt><trkpt lat="43.090187641509516" lon="12.22054900603052"><ele>310.0</ele><time>2026-04-16T13:49:24.999Z</time></trkpt><trkpt lat="43.090162463409236" lon="12.22040173075981"><ele>310.16666666666663</ele><time>2026-04-16T13:49:28Z</time></trkpt><trkpt lat="43.090151073039735" lon="12.220283488056475"><ele>310.3333333333333</ele><time>2026-04-16T13:49:30Z</time></trkpt><trkpt lat="43.09008884746298" lon="12.220251193995647"><ele>310.5</ele><time>2026-04-16T13:49:31Z</time></trkpt><trkpt lat="43.0899970622207" lon="12.220211877915204"><ele>310.6666666666667</ele><time>2026-04-16T13:49:32Z</time></trkpt><trkpt lat="43.0899535700521" lon="12.2201445550332"><ele>310.83333333333337</ele><time>2026-04-16T13:49:33Z</time></trkpt><trkpt lat="43.08985929987252" lon="12.220054887726633"><ele>311.0</ele><time>2026-04-16T13:49:35Z</time></trkpt><trkpt lat="43.08976264706941" lon="12.219962954459223"><ele>311.0</ele><time>2026-04-16T13:49:37Z</time></trkpt><trkpt lat="43.08970878437579" lon="12.219911721870536"><ele>311.0</ele><time>2026-04-16T13:49:38Z</time></trkpt><trkpt lat="43.089658000707985" lon="12.219854042920373"><ele>311.0</ele><time>2026-04-16T13:49:39Z</time></trkpt><trkpt lat="43.089632740357025" lon="12.219768169519286"><ele>311.0</ele><time>2026-04-16T13:49:40Z</time></trkpt><trkpt lat="43.08958031816518" lon="12.219613087854317"><ele>311.0</ele><time>2026-04-16T13:49:42Z</time></trkpt><trkpt lat="43.08953999056089" lon="12.219516362473822"><ele>311.0</ele><time>2026-04-16T13:49:43Z</time></trkpt><trkpt lat="43.08950283108513" lon="12.21942111320985"><ele>312.6666666666667</ele><time>2026-04-16T13:49:44Z</time></trkpt><trkpt lat="43.08947051207206" lon="12.219346457908495"><ele>314.33333333333337</ele><time>2026-04-16T13:49:45Z</time></trkpt><trkpt lat="43.08944912845021" lon="12.219262888452318"><ele>316.0</ele><time>2026-04-16T13:49:46Z</time></trkpt><trkpt lat="43.08942727542588" lon="12.219100477193779"><ele>317.6666666666667</ele><time>2026-04-16T13:49:48Z</time></trkpt><trkpt lat="43.08935974073902" lon="12.219012638210021"><ele>319.3333333333333</ele><time>2026-04-16T13:49:50Z</time></trkpt><trkpt lat="43.08929633305939" lon="12.218930925474902"><ele>321.0</ele><time>2026-04-16T13:49:52Z</time></trkpt><trkpt lat="43.089272709174494" lon="12.218830676131569"><ele>323.5</ele><time>2026-04-16T13:50:00Z</time></trkpt><trkpt lat="43.0892629227679" lon="12.21874403283123"><ele>326.0</ele><time>2026-04-16T13:50:02Z</time></trkpt><trkpt lat="43.08923495640026" lon="12.218661540971823"><ele>328.5</ele><time>2026-04-16T13:50:04Z</time></trkpt><trkpt lat="43.089113320278315" lon="12.21860786389785"><ele>331.0</ele><time>2026-04-16T13:50:07Z</time></trkpt><trkpt lat="43.089039301677495" lon="12.218607484089059"><ele>333.5</ele><time>2026-04-16T13:50:08Z</time></trkpt><trkpt lat="43.08893573931252" lon="12.218629340516918"><ele>336.0</ele><time>2026-04-16T13:50:10Z</time></trkpt><trkpt lat="43.088848930530226" lon="12.21862025677523"><ele>337.4</ele><time>2026-04-16T13:50:12Z</time></trkpt><trkpt lat="43.088767788319934" lon="12.218621193920452"><ele>338.8</ele><time>2026-04-16T13:50:14Z</time></trkpt><trkpt lat="43.08869790520706" lon="12.218627937901314"><ele>340.2</ele><time>2026-04-16T13:50:15Z</time></trkpt><trkpt lat="43.088591881648895" lon="12.218640950803715"><ele>341.59999999999997</ele><time>2026-04-16T13:50:17Z</time></trkpt><trkpt lat="43.08846225040556" lon="12.218647981122245"><ele>343.0</ele><time>2026-04-16T13:50:19Z</time></trkpt><trkpt lat="43.088398385152516" lon="12.218640904646165"><ele>343.0</ele><time>2026-04-16T13:50:20Z</time></trkpt><trkpt lat="43.088291766586565" lon="12.218644070653474"><ele>343.0</ele><time>2026-04-16T13:50:22Z</time></trkpt><trkpt lat="43.08820871488686" lon="12.218636610550506"><ele>343.0</ele><time>2026-04-16T13:50:23Z</time></trkpt><trkpt lat="43.088110436831116" lon="12.218612880661603"><ele>343.0</ele><time>2026-04-16T13:50:25Z</time></trkpt><trkpt lat="43.087996978060694" lon="12.218562794599453"><ele>343.0</ele><time>2026-04-16T13:50:27Z</time></trkpt><trkpt lat="43.08793579775263" lon="12.218541522682536"><ele>342.2</ele><time>2026-04-16T13:50:28Z</time></trkpt><trkpt lat="43.087831840459806" lon="12.218501017763414"><ele>341.4</ele><time>2026-04-16T13:50:30Z</time></trkpt><trkpt lat="43.087724291200864" lon="12.218448367395316"><ele>340.59999999999997</ele><time>2026-04-16T13:50:32Z</time></trkpt><trkpt lat="43.087624845794345" lon="12.218380933031023"><ele>339.79999999999995</ele><time>2026-04-16T13:50:34Z</time></trkpt><trkpt lat="43.08756668783737" lon="12.218341429660304"><ele>339.0</ele><time>2026-04-16T13:50:35Z</time></trkpt><trkpt lat="43.087468354929875" lon="12.218275178899303"><ele>341.0</ele><time>2026-04-16T13:50:37Z</time></trkpt><trkpt lat="43.08738305612166" lon="12.218224608997442"><ele>343.0</ele><time>2026-04-16T13:50:39Z</time></trkpt><trkpt lat="43.08727688069832" lon="12.218212775804906"><ele>345.0</ele><time>2026-04-16T13:50:41Z</time></trkpt><trkpt lat="43.087173737464205" lon="12.218241625650812"><ele>347.0</ele><time>2026-04-16T13:50:43Z</time></trkpt><trkpt lat="43.08711550985106" lon="12.218283230469343"><ele>349.0</ele><time>2026-04-16T13:50:44Z</time></trkpt><trkpt lat="43.087024510316176" lon="12.218364705400086"><ele>349.0</ele><time>2026-04-16T13:50:46Z</time></trkpt><trkpt lat="43.08694387469863" lon="12.218414766008362"><ele>349.0</ele><time>2026-04-16T13:50:48Z</time></trkpt><trkpt lat="43.08684459153059" lon="12.218437604788406"><ele>349.0</ele><time>2026-04-16T13:50:50Z</time></trkpt><trkpt lat="43.08677562364208" lon="12.21843238768122"><ele>349.0</ele><time>2026-04-16T13:50:51Z</time></trkpt><trkpt lat="43.0866343067436" lon="12.218436687811309"><ele>349.0</ele><time>2026-04-16T13:50:53Z</time></trkpt><trkpt lat="43.086530506946424" lon="12.218443861565284"><ele>351.6</ele><time>2026-04-16T13:50:55Z</time></trkpt><trkpt lat="43.08643611724969" lon="12.218433720670781"><ele>354.2</ele><time>2026-04-16T13:50:57Z</time></trkpt><trkpt lat="43.08637169907239" lon="12.218416105329851"><ele>356.8</ele><time>2026-04-16T13:50:58Z</time></trkpt><trkpt lat="43.086261316330145" lon="12.218393832148362"><ele>359.40000000000003</ele><time>2026-04-16T13:51:00Z</time></trkpt><trkpt lat="43.086154452357434" lon="12.218413202610883"><ele>362.0</ele><time>2026-04-16T13:51:02Z</time></trkpt><trkpt lat="43.0860446905403" lon="12.218420407042458"><ele>362.0</ele><time>2026-04-16T13:51:04Z</time></trkpt><trkpt lat="43.0859311645868" lon="12.218428515210945"><ele>362.0</ele><time>2026-04-16T13:51:06Z</time></trkpt><trkpt lat="43.08581574564441" lon="12.218433423742196"><ele>362.0</ele><time>2026-04-16T13:51:08Z</time></trkpt><trkpt lat="43.08570255182428" lon="12.218426980999604"><ele>362.0</ele><time>2026-04-16T13:51:10Z</time></trkpt><trkpt lat="43.08559824762119" lon="12.218393784311617"><ele>362.0</ele><time>2026-04-16T13:51:12Z</time></trkpt><trkpt lat="43.08551219228174" lon="12.218312968503989"><ele>362.0</ele><time>2026-04-16T13:51:14Z</time></trkpt><trkpt lat="43.08541640937147" lon="12.218260964833611"><ele>362.0</ele><time>2026-04-16T13:51:22Z</time></trkpt><trkpt lat="43.08536139647445" lon="12.218197421220902"><ele>362.0</ele><time>2026-04-16T13:51:23Z</time></trkpt><trkpt lat="43.08530402969335" lon="12.218136721553684"><ele>362.0</ele><time>2026-04-16T13:51:25Z</time></trkpt><trkpt lat="43.08525659033138" lon="12.218211731627337"><ele>362.0</ele><time>2026-04-16T13:51:28Z</time></trkpt><trkpt lat="43.08532102662443" lon="12.218363583727353"><ele>362.1666666666667</ele><time>2026-04-16T13:51:30Z</time></trkpt><trkpt lat="43.08535085390105" lon="12.218442782826683"><ele>362.33333333333337</ele><time>2026-04-16T13:51:31Z</time></trkpt><trkpt lat="43.085396749288186" lon="12.21858339245857"><ele>362.5</ele><time>2026-04-16T13:51:33Z</time></trkpt><trkpt lat="43.08543392188117" lon="12.21865987544886"><ele>362.6666666666667</ele><time>2026-04-16T13:51:35Z</time></trkpt><trkpt lat="43.08536097716097" lon="12.218717020607885"><ele>362.8333333333333</ele><time>2026-04-16T13:51:37Z</time></trkpt><trkpt lat="43.0852939122837" lon="12.218767038539578"><ele>363.0</ele><time>2026-04-16T13:51:38Z</time></trkpt><trkpt lat="43.08524082411348" lon="12.218888902669157"><ele>364.79999999999995</ele><time>2026-04-16T13:51:40Z</time></trkpt><trkpt lat="43.08521401613564" lon="12.219058533889937"><ele>366.6</ele><time>2026-04-16T13:51:42Z</time></trkpt><trkpt lat="43.08515400595545" lon="12.219129269336042"><ele>368.4</ele><time>2026-04-16T13:51:43Z</time></trkpt><trkpt lat="43.08507433352565" lon="12.21921686244915"><ele>370.20000000000005</ele><time>2026-04-16T13:51:44Z</time></trkpt><trkpt lat="43.08502074680668" lon="12.219376026311934"><ele>372.0</ele><time>2026-04-16T13:51:46Z</time></trkpt><trkpt lat="43.08502258409943" lon="12.219516516657759"><ele>372.0</ele><time>2026-04-16T13:51:47Z</time></trkpt><trkpt lat="43.08501328280871" lon="12.219653669526368"><ele>372.0</ele><time>2026-04-16T13:51:48Z</time></trkpt><trkpt lat="43.08497829575124" lon="12.219748931562943"><ele>372.0</ele><time>2026-04-16T13:51:49Z</time></trkpt><trkpt lat="43.084922470627085" lon="12.219810807621073"><ele>372.0</ele><time>2026-04-16T13:51:50Z</time></trkpt><trkpt lat="43.08485166999544" lon="12.219843654258828"><ele>372.0</ele><time>2026-04-16T13:51:51Z</time></trkpt><trkpt lat="43.084773862741564" lon="12.219877350693034"><ele>372.0</ele><time>2026-04-16T13:51:52Z</time></trkpt><trkpt lat="43.084718269193786" lon="12.219928229738969"><ele>372.8</ele><time>2026-04-16T13:51:53Z</time></trkpt><trkpt lat="43.08466639048155" lon="12.220058417186259"><ele>373.6</ele><time>2026-04-16T13:51:55Z</time></trkpt><trkpt lat="43.08457264634598" lon="12.22017204366869"><ele>374.40000000000003</ele><time>2026-04-16T13:51:57Z</time></trkpt><trkpt lat="43.08447934005197" lon="12.22020528186071"><ele>375.20000000000005</ele><time>2026-04-16T13:51:58Z</time></trkpt><trkpt lat="43.08437215335405" lon="12.22026224988647"><ele>376.0</ele><time>2026-04-16T13:51:59Z</time></trkpt><trkpt lat="43.0842952904045" lon="12.220356469200857"><ele>376.0</ele><time>2026-04-16T13:52:00Z</time></trkpt><trkpt lat="43.08424171504051" lon="12.220451102606662"><ele>376.0</ele><time>2026-04-16T13:52:01Z</time></trkpt><trkpt lat="43.08418703461782" lon="12.220550217094413"><ele>376.0</ele><time>2026-04-16T13:52:02Z</time></trkpt><trkpt lat="43.08413631616613" lon="12.220632299371275"><ele>376.0</ele><time>2026-04-16T13:52:03Z</time></trkpt><trkpt lat="43.08407963338747" lon="12.220696929183067"><ele>376.0</ele><time>2026-04-16T13:52:04Z</time></trkpt><trkpt lat="43.08400971919142" lon="12.22076108386675"><ele>376.0</ele><time>2026-04-16T13:52:05Z</time></trkpt><trkpt lat="43.08392462197607" lon="12.220812052911763"><ele>378.6</ele><time>2026-04-16T13:52:06Z</time></trkpt><trkpt lat="43.083830292800705" lon="12.220872493976696"><ele>381.20000000000005</ele><time>2026-04-16T13:52:07Z</time></trkpt><trkpt lat="43.083741904826276" lon="12.220931531831663"><ele>383.79999999999995</ele><time>2026-04-16T13:52:08Z</time></trkpt><trkpt lat="43.08366367864544" lon="12.220983197835839"><ele>386.4</ele><time>2026-04-16T13:52:09Z</time></trkpt><trkpt lat="43.083570111361375" lon="12.221046260125199"><ele>389.0</ele><time>2026-04-16T13:52:10Z</time></trkpt><trkpt lat="43.08348432127731" lon="12.22111307019312"><ele>388.99999999999994</ele><time>2026-04-16T13:52:11Z</time></trkpt><trkpt lat="43.08341983889796" lon="12.221164753134232"><ele>389.0</ele><time>2026-04-16T13:52:12Z</time></trkpt><trkpt lat="43.08336476430381" lon="12.221209438452584"><ele>389.0</ele><time>2026-04-16T13:52:13Z</time></trkpt><trkpt lat="43.08330452726199" lon="12.221255723264363"><ele>389.0</ele><time>2026-04-16T13:52:14Z</time></trkpt><trkpt lat="43.08324867131248" lon="12.221297731326148"><ele>388.99999999999994</ele><time>2026-04-16T13:52:15Z</time></trkpt><trkpt lat="43.08316059469691" lon="12.221361532994413"><ele>389.0</ele><time>2026-04-16T13:52:17Z</time></trkpt><trkpt lat="43.083074374026985" lon="12.221433013646323"><ele>388.2</ele><time>2026-04-16T13:52:19Z</time></trkpt><trkpt lat="43.08302021856562" lon="12.22147741529386"><ele>387.4</ele><time>2026-04-16T13:52:20Z</time></trkpt><trkpt lat="43.082928635309216" lon="12.2215607012893"><ele>386.6</ele><time>2026-04-16T13:52:22Z</time></trkpt><trkpt lat="43.08281700717599" lon="12.221628154300149"><ele>385.8</ele><time>2026-04-16T13:52:24Z</time></trkpt><trkpt lat="43.082690075859844" lon="12.221684006361796"><ele>385.0</ele><time>2026-04-16T13:52:26Z</time></trkpt><trkpt lat="43.08262200788219" lon="12.22171803105482"><ele>385.00000000000006</ele><time>2026-04-16T13:52:27Z</time></trkpt><trkpt lat="43.0825591430551" lon="12.221749678822432"><ele>385.0</ele><time>2026-04-16T13:52:28Z</time></trkpt><trkpt lat="43.08249107269332" lon="12.221787721587846"><ele>385.0</ele><time>2026-04-16T13:52:29Z</time></trkpt><trkpt lat="43.082429965414015" lon="12.22182395715493"><ele>385.0</ele><time>2026-04-16T13:52:30Z</time></trkpt><trkpt lat="43.08236817320241" lon="12.221858831057034"><ele>385.00000000000006</ele><time>2026-04-16T13:52:31Z</time></trkpt><trkpt lat="43.08230367991712" lon="12.22186790258974"><ele>385.0</ele><time>2026-04-16T13:52:32Z</time></trkpt><trkpt lat="43.082197106836" lon="12.221934370776934"><ele>382.2</ele><time>2026-04-16T13:52:34Z</time></trkpt><trkpt lat="43.08213016058658" lon="12.222001176641763"><ele>379.4</ele><time>2026-04-16T13:52:36Z</time></trkpt><trkpt lat="43.082051527670785" lon="12.221993708353121"><ele>376.6</ele><time>2026-04-16T13:52:38Z</time></trkpt><trkpt lat="43.081957808346914" lon="12.221916340687727"><ele>373.8</ele><time>2026-04-16T13:52:40Z</time></trkpt><trkpt lat="43.08185689035574" lon="12.221886711461773"><ele>371.0</ele><time>2026-04-16T13:52:42Z</time></trkpt><trkpt lat="43.081769337333654" lon="12.22193209999156"><ele>371.0</ele><time>2026-04-16T13:52:44Z</time></trkpt><trkpt lat="43.08168833906848" lon="12.221933830923257"><ele>371.0</ele><time>2026-04-16T13:52:46Z</time></trkpt><trkpt lat="43.08158717680705" lon="12.221883670870643"><ele>371.0</ele><time>2026-04-16T13:52:48Z</time></trkpt><trkpt lat="43.08153092989622" lon="12.221793925434309"><ele>371.0</ele><time>2026-04-16T13:52:50Z</time></trkpt><trkpt lat="43.081419831813434" lon="12.221757280885875"><ele>371.0</ele><time>2026-04-16T13:52:52Z</time></trkpt><trkpt lat="43.081293576888086" lon="12.221747767691296"><ele>369.14285714285717</ele><time>2026-04-16T13:52:54Z</time></trkpt><trkpt lat="43.08122875342498" lon="12.221752031511695"><ele>367.2857142857143</ele><time>2026-04-16T13:52:55Z</time></trkpt><trkpt lat="43.081153656909166" lon="12.221748986897996"><ele>365.42857142857144</ele><time>2026-04-16T13:52:56Z</time></trkpt><trkpt lat="43.081086716231276" lon="12.221741176675007"><ele>363.57142857142856</ele><time>2026-04-16T13:52:57Z</time></trkpt><trkpt lat="43.0810247080189" lon="12.221723273085184"><ele>361.7142857142857</ele><time>2026-04-16T13:52:58Z</time></trkpt><trkpt lat="43.080968563428144" lon="12.221678274523494"><ele>359.8571428571429</ele><time>2026-04-16T13:52:59Z</time></trkpt><trkpt lat="43.080875172367335" lon="12.221606206227351"><ele>358.0</ele><time>2026-04-16T13:53:01Z</time></trkpt><trkpt lat="43.080787015798094" lon="12.221560820887431"><ele>356.8333333333333</ele><time>2026-04-16T13:53:03Z</time></trkpt><trkpt lat="43.080724358279355" lon="12.221536734404278"><ele>355.66666666666663</ele><time>2026-04-16T13:53:04Z</time></trkpt><trkpt lat="43.08063275140561" lon="12.221426913693124"><ele>354.5</ele><time>2026-04-16T13:53:06Z</time></trkpt><trkpt lat="43.08058001521754" lon="12.221365192266148"><ele>353.3333333333333</ele><time>2026-04-16T13:53:07Z</time></trkpt><trkpt lat="43.08051814797935" lon="12.221323870606401"><ele>352.1666666666667</ele><time>2026-04-16T13:53:08Z</time></trkpt><trkpt lat="43.0804605142148" lon="12.221287637895626"><ele>351.0</ele><time>2026-04-16T13:53:09Z</time></trkpt><trkpt lat="43.080400134145265" lon="12.221256516200361"><ele>348.75</ele><time>2026-04-16T13:53:10Z</time></trkpt><trkpt lat="43.08029496333439" lon="12.22119510045232"><ele>346.5</ele><time>2026-04-16T13:53:12Z</time></trkpt><trkpt lat="43.08020624530761" lon="12.221108823620822"><ele>344.25</ele><time>2026-04-16T13:53:14Z</time></trkpt><trkpt lat="43.08009652232692" lon="12.221031900705015"><ele>342.0</ele><time>2026-04-16T13:53:16Z</time></trkpt><trkpt lat="43.07999206163442" lon="12.221015418038006"><ele>340.0</ele><time>2026-04-16T13:53:18Z</time></trkpt><trkpt lat="43.079885930133095" lon="12.220962641030505"><ele>338.0</ele><time>2026-04-16T13:53:20Z</time></trkpt><trkpt lat="43.079773529736215" lon="12.22092357920213"><ele>336.0</ele><time>2026-04-16T13:53:22Z</time></trkpt><trkpt lat="43.07967428142139" lon="12.22088565012635"><ele>334.0</ele><time>2026-04-16T13:53:24Z</time></trkpt><trkpt lat="43.07960644353553" lon="12.220759842758461"><ele>332.0</ele><time>2026-04-16T13:53:26Z</time></trkpt><trkpt lat="43.079557084193254" lon="12.220613904080365"><ele>331.83333333333337</ele><time>2026-04-16T13:53:28Z</time></trkpt><trkpt lat="43.0795242653003" lon="12.22046335322005"><ele>331.6666666666667</ele><time>2026-04-16T13:53:30Z</time></trkpt><trkpt lat="43.07947295525183" lon="12.220309953003618"><ele>331.5</ele><time>2026-04-16T13:53:32.001Z</time></trkpt><trkpt lat="43.079435052345" lon="12.220229045426654"><ele>331.3333333333333</ele><time>2026-04-16T13:53:33.001Z</time></trkpt><trkpt lat="43.07940015570711" lon="12.220148718444191"><ele>331.16666666666663</ele><time>2026-04-16T13:53:34.001Z</time></trkpt><trkpt lat="43.07936038923263" lon="12.220080716285109"><ele>331.0</ele><time>2026-04-16T13:53:35.001Z</time></trkpt><trkpt lat="43.07929668158545" lon="12.219979485480742"><ele>331.0</ele><time>2026-04-16T13:53:37.001Z</time></trkpt><trkpt lat="43.07922064728797" lon="12.219878416555467"><ele>331.0</ele><time>2026-04-16T13:53:39.001Z</time></trkpt><trkpt lat="43.079172890261624" lon="12.219807227626172"><ele>331.0</ele><time>2026-04-16T13:53:40.001Z</time></trkpt><trkpt lat="43.07913697654271" lon="12.219728717600798"><ele>331.0</ele><time>2026-04-16T13:53:41.001Z</time></trkpt><trkpt lat="43.079105044337275" lon="12.219637046024685"><ele>331.0</ele><time>2026-04-16T13:53:42.001Z</time></trkpt><trkpt lat="43.079072472065036" lon="12.219557755008859"><ele>331.0</ele><time>2026-04-16T13:53:43.001Z</time></trkpt><trkpt lat="43.07903483441254" lon="12.21948482759377"><ele>327.0</ele><time>2026-04-16T13:53:44.001Z</time></trkpt><trkpt lat="43.078995415685114" lon="12.219413948067675"><ele>323.0</ele><time>2026-04-16T13:53:45.001Z</time></trkpt><trkpt lat="43.078920909185875" lon="12.219291279941848"><ele>319.0</ele><time>2026-04-16T13:53:47.001Z</time></trkpt><trkpt lat="43.07885319169322" lon="12.219173913823374"><ele>315.0</ele><time>2026-04-16T13:53:49.001Z</time></trkpt><trkpt lat="43.07875604404091" lon="12.219091281837489"><ele>311.0</ele><time>2026-04-16T13:53:51.001Z</time></trkpt><trkpt lat="43.07872802893291" lon="12.21897417586794"><ele>310.6</ele><time>2026-04-16T13:53:53.001Z</time></trkpt><trkpt lat="43.07870998410754" lon="12.218840295177447"><ele>310.20000000000005</ele><time>2026-04-16T13:53:55Z</time></trkpt><trkpt lat="43.07871420427268" lon="12.218689906483533"><ele>309.79999999999995</ele><time>2026-04-16T13:53:57Z</time></trkpt><trkpt lat="43.078740628947315" lon="12.218581731961864"><ele>309.4</ele><time>2026-04-16T13:53:59Z</time></trkpt><trkpt lat="43.078766120140116" lon="12.218475280196753"><ele>309.0</ele><time>2026-04-16T13:54:01Z</time></trkpt><trkpt lat="43.078835286735064" lon="12.218350320094379"><ele>309.0</ele><time>2026-04-16T13:54:03Z</time></trkpt><trkpt lat="43.07887768974431" lon="12.218223572957932"><ele>309.0</ele><time>2026-04-16T13:54:05Z</time></trkpt><trkpt lat="43.07891720565095" lon="12.218097866356608"><ele>309.0</ele><time>2026-04-16T13:54:07Z</time></trkpt><trkpt lat="43.07891912346246" lon="12.217964253836929"><ele>309.0</ele><time>2026-04-16T13:54:09Z</time></trkpt><trkpt lat="43.078867377417474" lon="12.217908534478365"><ele>309.0</ele><time>2026-04-16T13:54:10Z</time></trkpt><trkpt lat="43.0788231437917" lon="12.217801482475624"><ele>307.4</ele><time>2026-04-16T13:54:12Z</time></trkpt><trkpt lat="43.078767419451175" lon="12.217706994329465"><ele>305.79999999999995</ele><time>2026-04-16T13:54:14Z</time></trkpt><trkpt lat="43.07869271852429" lon="12.217610061266107"><ele>304.20000000000005</ele><time>2026-04-16T13:54:16Z</time></trkpt><trkpt lat="43.07863099219169" lon="12.21751721364629"><ele>302.6</ele><time>2026-04-16T13:54:18Z</time></trkpt><trkpt lat="43.07855569642202" lon="12.21744948923128"><ele>301.0</ele><time>2026-04-16T13:54:20Z</time></trkpt><trkpt lat="43.07848468882021" lon="12.217366377275063"><ele>299.16666666666663</ele><time>2026-04-16T13:54:22Z</time></trkpt><trkpt lat="43.07844245181986" lon="12.217232671950773"><ele>297.3333333333333</ele><time>2026-04-16T13:54:24Z</time></trkpt><trkpt lat="43.07839626600978" lon="12.217160366015499"><ele>295.5</ele><time>2026-04-16T13:54:25Z</time></trkpt><trkpt lat="43.078344475388555" lon="12.217083113077111"><ele>293.6666666666667</ele><time>2026-04-16T13:54:26Z</time></trkpt><trkpt lat="43.07829289645134" lon="12.217006175956808"><ele>291.83333333333337</ele><time>2026-04-16T13:54:27Z</time></trkpt><trkpt lat="43.07824447755605" lon="12.216931814719947"><ele>290.0</ele><time>2026-04-16T13:54:28Z</time></trkpt><trkpt lat="43.078196333243646" lon="12.216857538877795"><ele>288.4</ele><time>2026-04-16T13:54:29Z</time></trkpt><trkpt lat="43.078149563434614" lon="12.216785383564371"><ele>286.8</ele><time>2026-04-16T13:54:30Z</time></trkpt><trkpt lat="43.0780928247326" lon="12.216732008355715"><ele>285.2</ele><time>2026-04-16T13:54:31Z</time></trkpt><trkpt lat="43.07802063067631" lon="12.21662810130058"><ele>283.6</ele><time>2026-04-16T13:54:33Z</time></trkpt><trkpt lat="43.07790301071143" lon="12.216621321218835"><ele>282.0</ele><time>2026-04-16T13:54:35Z</time></trkpt><trkpt lat="43.07781244270715" lon="12.216754632914851"><ele>282.0</ele><time>2026-04-16T13:54:37Z</time></trkpt><trkpt lat="43.07775347124665" lon="12.216871072507681"><ele>282.0</ele><time>2026-04-16T13:54:38Z</time></trkpt><trkpt lat="43.07765809190662" lon="12.216988141400474"><ele>282.0</ele><time>2026-04-16T13:54:39Z</time></trkpt><trkpt lat="43.07759696823966" lon="12.217093126128889"><ele>282.0</ele><time>2026-04-16T13:54:40Z</time></trkpt><trkpt lat="43.07754987058218" lon="12.217171987816373"><ele>282.0</ele><time>2026-04-16T13:54:41Z</time></trkpt><trkpt lat="43.07746001031094" lon="12.21723263746798"><ele>280.0</ele><time>2026-04-16T13:54:43Z</time></trkpt><trkpt lat="43.077358186793" lon="12.217176510182307"><ele>278.0</ele><time>2026-04-16T13:54:45Z</time></trkpt><trkpt lat="43.07729444110199" lon="12.217154212766001"><ele>276.0</ele><time>2026-04-16T13:54:46Z</time></trkpt><trkpt lat="43.077205980708875" lon="12.2170505305718"><ele>274.0</ele><time>2026-04-16T13:54:48Z</time></trkpt><trkpt lat="43.07711301892801" lon="12.216892292217025"><ele>272.0</ele><time>2026-04-16T13:54:50Z</time></trkpt><trkpt lat="43.07705980894264" lon="12.216781494566213"><ele>272.0</ele><time>2026-04-16T13:54:51Z</time></trkpt><trkpt lat="43.077014112795055" lon="12.216676435857906"><ele>272.0</ele><time>2026-04-16T13:54:52Z</time></trkpt><trkpt lat="43.07697439254793" lon="12.216570381964248"><ele>272.0</ele><time>2026-04-16T13:54:53Z</time></trkpt><trkpt lat="43.07694287848495" lon="12.216459690066019"><ele>272.0</ele><time>2026-04-16T13:54:54Z</time></trkpt><trkpt lat="43.076917786630396" lon="12.216341658468918"><ele>272.0</ele><time>2026-04-16T13:54:55Z</time></trkpt><trkpt lat="43.076889306060025" lon="12.216250598221363"><ele>272.0</ele><time>2026-04-16T13:54:56Z</time></trkpt><trkpt lat="43.07687887652185" lon="12.216157057248733"><ele>271.0</ele><time>2026-04-16T13:54:57Z</time></trkpt><trkpt lat="43.076857727922324" lon="12.216017972767386"><ele>270.0</ele><time>2026-04-16T13:54:59Z</time></trkpt><trkpt lat="43.07683065391146" lon="12.215933213971713"><ele>269.0</ele><time>2026-04-16T13:55:01Z</time></trkpt><trkpt lat="43.076899553313936" lon="12.215832947122104"><ele>268.0</ele><time>2026-04-16T13:55:02Z</time></trkpt><trkpt lat="43.07694377501742" lon="12.215683616878708"><ele>267.0</ele><time>2026-04-16T13:55:03Z</time></trkpt><trkpt lat="43.07703010370527" lon="12.215518046696271"><ele>266.0</ele><time>2026-04-16T13:55:04Z</time></trkpt><trkpt lat="43.077121571113324" lon="12.21534702311191"><ele>265.0</ele><time>2026-04-16T13:55:05Z</time></trkpt><trkpt lat="43.07723590055897" lon="12.215143264615552"><ele>264.0</ele><time>2026-04-16T13:55:06Z</time></trkpt><trkpt lat="43.07735072238372" lon="12.214952786978769"><ele>264.6666666666667</ele><time>2026-04-16T13:55:07Z</time></trkpt><trkpt lat="43.0774548138943" lon="12.214765521311223"><ele>265.33333333333337</ele><time>2026-04-16T13:55:08Z</time></trkpt><trkpt lat="43.07755242332127" lon="12.214590326880318"><ele>266.0</ele><time>2026-04-16T13:55:09Z</time></trkpt><trkpt lat="43.07763935041376" lon="12.21442872390134"><ele>266.0</ele><time>2026-04-16T13:55:10Z</time></trkpt><trkpt lat="43.07773422712621" lon="12.214295844196393"><ele>266.0</ele><time>2026-04-16T13:55:11Z</time></trkpt><trkpt lat="43.07781549742506" lon="12.214155286544466"><ele>266.0</ele><time>2026-04-16T13:55:12Z</time></trkpt><trkpt lat="43.077892126883796" lon="12.214018930969198"><ele>266.0</ele><time>2026-04-16T13:55:13Z</time></trkpt><trkpt lat="43.077975953624176" lon="12.213867305184735"><ele>266.33333333333337</ele><time>2026-04-16T13:55:14Z</time></trkpt><trkpt lat="43.078065091520216" lon="12.213685330189302"><ele>266.6666666666667</ele><time>2026-04-16T13:55:15Z</time></trkpt><trkpt lat="43.07817125696978" lon="12.213483264450753"><ele>267.0</ele><time>2026-04-16T13:55:16Z</time></trkpt><trkpt lat="43.078291296294445" lon="12.213268761680064"><ele>266.0</ele><time>2026-04-16T13:55:17Z</time></trkpt><trkpt lat="43.078420566167274" lon="12.2130366516881"><ele>265.0</ele><time>2026-04-16T13:55:18Z</time></trkpt><trkpt lat="43.07855745682664" lon="12.21278379765527"><ele>264.0</ele><time>2026-04-16T13:55:19Z</time></trkpt><trkpt lat="43.07869480230636" lon="12.21253710045892"><ele>263.5</ele><time>2026-04-16T13:55:20Z</time></trkpt><trkpt lat="43.078832943418114" lon="12.21229282390332"><ele>263.0</ele><time>2026-04-16T13:55:21Z</time></trkpt><trkpt lat="43.07897459534264" lon="12.212046341315693"><ele>265.0</ele><time>2026-04-16T13:55:22Z</time></trkpt><trkpt lat="43.079120314513325" lon="12.211786976106133"><ele>267.0</ele><time>2026-04-16T13:55:23Z</time></trkpt><trkpt lat="43.079276986374666" lon="12.211522902993565"><ele>267.5</ele><time>2026-04-16T13:55:24Z</time></trkpt><trkpt lat="43.079421999915155" lon="12.211262800053033"><ele>268.0</ele><time>2026-04-16T13:55:25Z</time></trkpt><trkpt lat="43.07956858671865" lon="12.211012113905143"><ele>268.0</ele><time>2026-04-16T13:55:26Z</time></trkpt><trkpt lat="43.079713905539904" lon="12.210762169815954"><ele>268.0</ele><time>2026-04-16T13:55:27Z</time></trkpt><trkpt lat="43.079844882433214" lon="12.210535997864705"><ele>268.0</ele><time>2026-04-16T13:55:28Z</time></trkpt><trkpt lat="43.079975567513536" lon="12.210311540342573"><ele>269.66666666666663</ele><time>2026-04-16T13:55:29Z</time></trkpt><trkpt lat="43.08011706092543" lon="12.210080801768967"><ele>271.3333333333333</ele><time>2026-04-16T13:55:30Z</time></trkpt><trkpt lat="43.0802473928088" lon="12.209847723090876"><ele>273.0</ele><time>2026-04-16T13:55:31Z</time></trkpt><trkpt lat="43.08038629417898" lon="12.209604179929583"><ele>273.5</ele><time>2026-04-16T13:55:32Z</time></trkpt><trkpt lat="43.08052074751124" lon="12.209354508937594"><ele>274.0</ele><time>2026-04-16T13:55:33Z</time></trkpt><trkpt lat="43.08066633409162" lon="12.2091028172286"><ele>275.0</ele><time>2026-04-16T13:55:34Z</time></trkpt><trkpt lat="43.080809694622445" lon="12.208850120075638"><ele>276.0</ele><time>2026-04-16T13:55:35Z</time></trkpt><trkpt lat="43.08094284897538" lon="12.208627200320565"><ele>277.0</ele><time>2026-04-16T13:55:36Z</time></trkpt><trkpt lat="43.08107309105098" lon="12.208408196357452"><ele>277.0</ele><time>2026-04-16T13:55:37Z</time></trkpt><trkpt lat="43.0812029160112" lon="12.208182624762424"><ele>277.0</ele><time>2026-04-16T13:55:38.001Z</time></trkpt><trkpt lat="43.08133229332296" lon="12.20795809909868"><ele>277.0</ele><time>2026-04-16T13:55:39.001Z</time></trkpt><trkpt lat="43.0814644217129" lon="12.207728102322385"><ele>277.0</ele><time>2026-04-16T13:55:40.001Z</time></trkpt><trkpt lat="43.0816002101147" lon="12.207489902725648"><ele>277.0</ele><time>2026-04-16T13:55:41.001Z</time></trkpt><trkpt lat="43.081734315316076" lon="12.207247903208286"><ele>277.0</ele><time>2026-04-16T13:55:42.001Z</time></trkpt><trkpt lat="43.081871179630895" lon="12.207004824360844"><ele>277.0</ele><time>2026-04-16T13:55:43.001Z</time></trkpt><trkpt lat="43.08199468545949" lon="12.206760370201863"><ele>277.0</ele><time>2026-04-16T13:55:44.001Z</time></trkpt><trkpt lat="43.082090670111164" lon="12.206531257527075"><ele>277.0</ele><time>2026-04-16T13:55:45.001Z</time></trkpt><trkpt lat="43.082202229409276" lon="12.206278243036273"><ele>277.3333333333333</ele><time>2026-04-16T13:55:46.001Z</time></trkpt><trkpt lat="43.082322840634575" lon="12.206014495520995"><ele>277.6666666666667</ele><time>2026-04-16T13:55:47.001Z</time></trkpt><trkpt lat="43.082426061448835" lon="12.205764315885602"><ele>278.0</ele><time>2026-04-16T13:55:48.001Z</time></trkpt><trkpt lat="43.08251671062588" lon="12.20553813101094"><ele>280.0</ele><time>2026-04-16T13:55:49.001Z</time></trkpt><trkpt lat="43.0826039514148" lon="12.205314911956322"><ele>282.0</ele><time>2026-04-16T13:55:50.001Z</time></trkpt><trkpt lat="43.082696948782285" lon="12.205077514744884"><ele>284.0</ele><time>2026-04-16T13:55:51.001Z</time></trkpt><trkpt lat="43.082789331050094" lon="12.204834243028968"><ele>283.6666666666667</ele><time>2026-04-16T13:55:52.001Z</time></trkpt><trkpt lat="43.082885743067905" lon="12.204591010126228"><ele>283.3333333333333</ele><time>2026-04-16T13:55:53.001Z</time></trkpt><trkpt lat="43.08298865856646" lon="12.204339945010016"><ele>283.0</ele><time>2026-04-16T13:55:54.001Z</time></trkpt><trkpt lat="43.08308442106839" lon="12.204110447354068"><ele>282.0</ele><time>2026-04-16T13:55:55.001Z</time></trkpt><trkpt lat="43.083162998330685" lon="12.203909791254882"><ele>281.0</ele><time>2026-04-16T13:55:56.001Z</time></trkpt><trkpt lat="43.083235602030015" lon="12.203743892362956"><ele>280.0</ele><time>2026-04-16T13:55:57.001Z</time></trkpt><trkpt lat="43.083323727283606" lon="12.203586417230744"><ele>282.3333333333333</ele><time>2026-04-16T13:55:58.001Z</time></trkpt><trkpt lat="43.08342636923935" lon="12.203462381438568"><ele>284.6666666666667</ele><time>2026-04-16T13:55:59.001Z</time></trkpt><trkpt lat="43.08355025451875" lon="12.203353599775378"><ele>287.0</ele><time>2026-04-16T13:56:00.001Z</time></trkpt><trkpt lat="43.083697572947834" lon="12.203241128899482"><ele>287.5</ele><time>2026-04-16T13:56:01.001Z</time></trkpt><trkpt lat="43.083841595924675" lon="12.203159519587834"><ele>288.0</ele><time>2026-04-16T13:56:02.001Z</time></trkpt><trkpt lat="43.083963836296554" lon="12.203089213937895"><ele>288.5</ele><time>2026-04-16T13:56:03.001Z</time></trkpt><trkpt lat="43.08407315820853" lon="12.202984140906246"><ele>289.0</ele><time>2026-04-16T13:56:04.001Z</time></trkpt><trkpt lat="43.0841689348797" lon="12.202840873455738"><ele>289.0</ele><time>2026-04-16T13:56:05.001Z</time></trkpt><trkpt lat="43.08424698182352" lon="12.202676049809174"><ele>289.0</ele><time>2026-04-16T13:56:06.001Z</time></trkpt><trkpt lat="43.084299116198046" lon="12.202488279493545"><ele>289.0</ele><time>2026-04-16T13:56:07.001Z</time></trkpt><trkpt lat="43.08431788006608" lon="12.202298573293318"><ele>289.0</ele><time>2026-04-16T13:56:08.001Z</time></trkpt><trkpt lat="43.08431014893019" lon="12.202093378264257"><ele>290.3333333333333</ele><time>2026-04-16T13:56:09.001Z</time></trkpt><trkpt lat="43.08428303309877" lon="12.201874758097368"><ele>291.6666666666667</ele><time>2026-04-16T13:56:10.001Z</time></trkpt><trkpt lat="43.084240422431094" lon="12.2016504625402"><ele>293.0</ele><time>2026-04-16T13:56:11.001Z</time></trkpt><trkpt lat="43.08421129536421" lon="12.201441976707956"><ele>293.6666666666667</ele><time>2026-04-16T13:56:12.001Z</time></trkpt><trkpt lat="43.08419729179218" lon="12.201218739070558"><ele>294.3333333333333</ele><time>2026-04-16T13:56:13.001Z</time></trkpt><trkpt lat="43.08419809936325" lon="12.200982789298946"><ele>295.0</ele><time>2026-04-16T13:56:14.001Z</time></trkpt><trkpt lat="43.084213757660336" lon="12.20075645649364"><ele>295.0</ele><time>2026-04-16T13:56:15.001Z</time></trkpt><trkpt lat="43.08424723729725" lon="12.200557685531091"><ele>295.0</ele><time>2026-04-16T13:56:16.001Z</time></trkpt><trkpt lat="43.084293521791984" lon="12.200362606413217"><ele>295.0</ele><time>2026-04-16T13:56:17.001Z</time></trkpt><trkpt lat="43.08436200690735" lon="12.200168324559202"><ele>295.0</ele><time>2026-04-16T13:56:18.001Z</time></trkpt><trkpt lat="43.0844481170093" lon="12.199984114888483"><ele>295.0</ele><time>2026-04-16T13:56:19.001Z</time></trkpt><trkpt lat="43.084542239923124" lon="12.199823159678244"><ele>295.0</ele><time>2026-04-16T13:56:20.001Z</time></trkpt><trkpt lat="43.0846283640899" lon="12.199700914458147"><ele>295.0</ele><time>2026-04-16T13:56:21.001Z</time></trkpt><trkpt lat="43.08469880649411" lon="12.199599888745228"><ele>294.8</ele><time>2026-04-16T13:56:22.001Z</time></trkpt><trkpt lat="43.08474775564076" lon="12.199493247337017"><ele>294.6</ele><time>2026-04-16T13:56:23.001Z</time></trkpt><trkpt lat="43.08476382428143" lon="12.19935441160755"><ele>294.4</ele><time>2026-04-16T13:56:24.001Z</time></trkpt><trkpt lat="43.08474809260881" lon="12.19918314115003"><ele>294.2</ele><time>2026-04-16T13:56:25.001Z</time></trkpt><trkpt lat="43.08472189629423" lon="12.19901048749725"><ele>294.0</ele><time>2026-04-16T13:56:26.001Z</time></trkpt><trkpt lat="43.08469640882544" lon="12.198840667680173"><ele>295.8</ele><time>2026-04-16T13:56:27.001Z</time></trkpt><trkpt lat="43.08467802777591" lon="12.198682526003257"><ele>297.59999999999997</ele><time>2026-04-16T13:56:28.001Z</time></trkpt><trkpt lat="43.084667225492254" lon="12.198538555941424"><ele>299.4</ele><time>2026-04-16T13:56:29.001Z</time></trkpt><trkpt lat="43.08466096856731" lon="12.198403851435057"><ele>301.2</ele><time>2026-04-16T13:56:30.001Z</time></trkpt><trkpt lat="43.08466170558796" lon="12.198282790213614"><ele>303.0</ele><time>2026-04-16T13:56:31.001Z</time></trkpt><trkpt lat="43.084677023666195" lon="12.198181172423924"><ele>306.0</ele><time>2026-04-16T13:56:32.001Z</time></trkpt><trkpt lat="43.08471159192618" lon="12.198104164020043"><ele>309.0</ele><time>2026-04-16T13:56:33.001Z</time></trkpt><trkpt lat="43.084770809684144" lon="12.198030971366913"><ele>312.0</ele><time>2026-04-16T13:56:34.001Z</time></trkpt><trkpt lat="43.084837511498016" lon="12.197979031045378"><ele>315.0</ele><time>2026-04-16T13:56:35.001Z</time></trkpt><trkpt lat="43.08493260050278" lon="12.197944795193472"><ele>318.0</ele><time>2026-04-16T13:56:37.001Z</time></trkpt><trkpt lat="43.08489574731562" lon="12.197801075999102"><ele>321.0</ele><time>2026-04-16T13:56:40.001Z</time></trkpt><trkpt lat="43.08481219280987" lon="12.1978200721013"><ele>321.0</ele><time>2026-04-16T13:56:41.001Z</time></trkpt><trkpt lat="43.084739034784725" lon="12.197879422487121"><ele>321.0</ele><time>2026-04-16T13:56:42.001Z</time></trkpt><trkpt lat="43.08455998164105" lon="12.197795452900152"><ele>321.0</ele><time>2026-04-16T13:56:47.001Z</time></trkpt><trkpt lat="43.08450133797136" lon="12.197736293719174"><ele>321.0</ele><time>2026-04-16T13:56:48.001Z</time></trkpt><trkpt lat="43.08443089315033" lon="12.197671904536486"><ele>321.0</ele><time>2026-04-16T13:56:49.001Z</time></trkpt><trkpt lat="43.08432367984437" lon="12.197587035270606"><ele>321.0</ele><time>2026-04-16T13:56:51.001Z</time></trkpt><trkpt lat="43.084266189715855" lon="12.197545036144204"><ele>321.0</ele><time>2026-04-16T13:56:52.001Z</time></trkpt><trkpt lat="43.08416380175654" lon="12.197472753431365"><ele>321.0</ele><time>2026-04-16T13:56:54.001Z</time></trkpt><trkpt lat="43.08408423879177" lon="12.197427154961982"><ele>321.0</ele><time>2026-04-16T13:56:56Z</time></trkpt><trkpt lat="43.08402240096904" lon="12.197334857564838"><ele>321.0</ele><time>2026-04-16T13:56:58Z</time></trkpt><trkpt lat="43.083926675254574" lon="12.197338556867171"><ele>321.6</ele><time>2026-04-16T13:57:00Z</time></trkpt><trkpt lat="43.083841342115164" lon="12.19730780041364"><ele>322.20000000000005</ele><time>2026-04-16T13:57:02Z</time></trkpt><trkpt lat="43.08377579870648" lon="12.197252784390587"><ele>322.79999999999995</ele><time>2026-04-16T13:57:03Z</time></trkpt><trkpt lat="43.083677325547264" lon="12.19718446705047"><ele>323.4</ele><time>2026-04-16T13:57:05Z</time></trkpt><trkpt lat="43.08364937469014" lon="12.197018198949785"><ele>324.0</ele><time>2026-04-16T13:57:07Z</time></trkpt><trkpt lat="43.08367336038744" lon="12.196896136523609"><ele>324.0</ele><time>2026-04-16T13:57:09Z</time></trkpt><trkpt lat="43.08370084730482" lon="12.196805991788102"><ele>324.0</ele><time>2026-04-16T13:57:11Z</time></trkpt><trkpt lat="43.08383317845048" lon="12.196752591827506"><ele>324.0</ele><time>2026-04-16T13:57:13Z</time></trkpt><trkpt lat="43.08390764486718" lon="12.196740721969782"><ele>324.0</ele><time>2026-04-16T13:57:14Z</time></trkpt><trkpt lat="43.083984571555995" lon="12.196721636512084"><ele>324.0</ele><time>2026-04-16T13:57:15Z</time></trkpt><trkpt lat="43.0840511590542" lon="12.196589020484938"><ele>325.8333333333333</ele><time>2026-04-16T13:57:17Z</time></trkpt><trkpt lat="43.08408889279102" lon="12.196481510961892"><ele>327.6666666666667</ele><time>2026-04-16T13:57:18Z</time></trkpt><trkpt lat="43.08414078407327" lon="12.1963969997535"><ele>329.5</ele><time>2026-04-16T13:57:19Z</time></trkpt><trkpt lat="43.08423220329911" lon="12.196374710550828"><ele>331.33333333333337</ele><time>2026-04-16T13:57:21Z</time></trkpt><trkpt lat="43.08432176179192" lon="12.196419976319103"><ele>333.1666666666667</ele><time>2026-04-16T13:57:23Z</time></trkpt><trkpt lat="43.084363983976914" lon="12.1965036925904"><ele>335.0</ele><time>2026-04-16T13:57:24Z</time></trkpt><trkpt lat="43.08438780496873" lon="12.196593453736059"><ele>335.5</ele><time>2026-04-16T13:57:25Z</time></trkpt><trkpt lat="43.08446951771414" lon="12.196672780262139"><ele>336.0</ele><time>2026-04-16T13:57:27Z</time></trkpt><trkpt lat="43.084550651575846" lon="12.19663238378324"><ele>336.5</ele><time>2026-04-16T13:57:28Z</time></trkpt><trkpt lat="43.08463105902415" lon="12.196569098327014"><ele>337.0</ele><time>2026-04-16T13:57:29Z</time></trkpt><trkpt lat="43.08468899895604" lon="12.1964969669282"><ele>337.5</ele><time>2026-04-16T13:57:30Z</time></trkpt><trkpt lat="43.08469601337893" lon="12.196406126746211"><ele>338.0</ele><time>2026-04-16T13:57:31Z</time></trkpt><trkpt lat="43.08467219535873" lon="12.19627856732698"><ele>339.83333333333337</ele><time>2026-04-16T13:57:32Z</time></trkpt><trkpt lat="43.08463403883419" lon="12.196170388156997"><ele>341.6666666666667</ele><time>2026-04-16T13:57:33Z</time></trkpt><trkpt lat="43.084582811107815" lon="12.196057741985568"><ele>343.5</ele><time>2026-04-16T13:57:34Z</time></trkpt><trkpt lat="43.08453307385173" lon="12.195949277747573"><ele>345.3333333333333</ele><time>2026-04-16T13:57:35Z</time></trkpt><trkpt lat="43.084496735939375" lon="12.195841906686109"><ele>347.16666666666663</ele><time>2026-04-16T13:57:36Z</time></trkpt><trkpt lat="43.08444290878431" lon="12.195754001837274"><ele>349.0</ele><time>2026-04-16T13:57:37Z</time></trkpt><trkpt lat="43.0843675335228" lon="12.195659105390908"><ele>348.79999999999995</ele><time>2026-04-16T13:57:38Z</time></trkpt><trkpt lat="43.084280880785585" lon="12.195546920058458"><ele>348.59999999999997</ele><time>2026-04-16T13:57:39Z</time></trkpt><trkpt lat="43.08421125609452" lon="12.195449127453537"><ele>348.4</ele><time>2026-04-16T13:57:40Z</time></trkpt><trkpt lat="43.08415729869391" lon="12.195367767714703"><ele>348.2</ele><time>2026-04-16T13:57:41Z</time></trkpt><trkpt lat="43.084100254658445" lon="12.19529911506101"><ele>348.0</ele><time>2026-04-16T13:57:42Z</time></trkpt><trkpt lat="43.08403515176919" lon="12.195221525571382"><ele>348.0</ele><time>2026-04-16T13:57:43Z</time></trkpt><trkpt lat="43.083972842467766" lon="12.195147054305204"><ele>348.0</ele><time>2026-04-16T13:57:44.001Z</time></trkpt><trkpt lat="43.083923890136894" lon="12.195084308895185"><ele>348.0</ele><time>2026-04-16T13:57:45.001Z</time></trkpt><trkpt lat="43.08387172284971" lon="12.1950213085077"><ele>348.0</ele><time>2026-04-16T13:57:46.001Z</time></trkpt><trkpt lat="43.083809797847664" lon="12.194975327333687"><ele>348.0</ele><time>2026-04-16T13:57:47.001Z</time></trkpt><trkpt lat="43.08375761218571" lon="12.194818986089281"><ele>348.0</ele><time>2026-04-16T13:57:49.001Z</time></trkpt><trkpt lat="43.08374920526441" lon="12.194708808819463"><ele>350.0</ele><time>2026-04-16T13:57:50.001Z</time></trkpt><trkpt lat="43.08375433853105" lon="12.19461937247516"><ele>352.0</ele><time>2026-04-16T13:57:51.001Z</time></trkpt><trkpt lat="43.083772189029716" lon="12.194526888405386"><ele>354.0</ele><time>2026-04-16T13:57:52.001Z</time></trkpt><trkpt lat="43.08381335745077" lon="12.194386195870148"><ele>356.0</ele><time>2026-04-16T13:57:54.001Z</time></trkpt><trkpt lat="43.083796814982556" lon="12.194247731145442"><ele>358.0</ele><time>2026-04-16T13:57:56.001Z</time></trkpt><trkpt lat="43.083817034570515" lon="12.194067599080515"><ele>360.0</ele><time>2026-04-16T13:57:58.001Z</time></trkpt><trkpt lat="43.08382086480751" lon="12.193955992259328"><ele>362.0</ele><time>2026-04-16T13:57:59.001Z</time></trkpt><trkpt lat="43.08383232789357" lon="12.1938438484949"><ele>364.0</ele><time>2026-04-16T13:58:00.001Z</time></trkpt><trkpt lat="43.08384851366811" lon="12.193732037937123"><ele>366.0</ele><time>2026-04-16T13:58:01.001Z</time></trkpt><trkpt lat="43.08386190293666" lon="12.193615864338744"><ele>368.0</ele><time>2026-04-16T13:58:02.001Z</time></trkpt><trkpt lat="43.08387249556674" lon="12.193507120283558"><ele>370.0</ele><time>2026-04-16T13:58:03.001Z</time></trkpt><trkpt lat="43.08388490233858" lon="12.193350315574971"><ele>372.2</ele><time>2026-04-16T13:58:05.001Z</time></trkpt><trkpt lat="43.08382917423395" lon="12.193166105390674"><ele>374.4</ele><time>2026-04-16T13:58:07.001Z</time></trkpt><trkpt lat="43.083789241941346" lon="12.193052505980496"><ele>376.6</ele><time>2026-04-16T13:58:08.001Z</time></trkpt><trkpt lat="43.083758592707724" lon="12.192974039304639"><ele>378.8</ele><time>2026-04-16T13:58:09.001Z</time></trkpt><trkpt lat="43.08372712211965" lon="12.192835826150015"><ele>381.0</ele><time>2026-04-16T13:58:11.001Z</time></trkpt><trkpt lat="43.08366732295565" lon="12.192720220451777"><ele>381.0</ele><time>2026-04-16T13:58:13.001Z</time></trkpt><trkpt lat="43.08361096093561" lon="12.192658117960098"><ele>381.0</ele><time>2026-04-16T13:58:14.001Z</time></trkpt><trkpt lat="43.08356700627994" lon="12.192551579921913"><ele>381.0</ele><time>2026-04-16T13:58:16.001Z</time></trkpt><trkpt lat="43.08351477596975" lon="12.1924100188038"><ele>381.0</ele><time>2026-04-16T13:58:18.001Z</time></trkpt><trkpt lat="43.08345078841086" lon="12.192268610765385"><ele>381.0</ele><time>2026-04-16T13:58:20.001Z</time></trkpt><trkpt lat="43.083359947343745" lon="12.192176728755769"><ele>381.6</ele><time>2026-04-16T13:58:22.001Z</time></trkpt><trkpt lat="43.08327515712227" lon="12.192082973545299"><ele>382.20000000000005</ele><time>2026-04-16T13:58:24.001Z</time></trkpt><trkpt lat="43.083188466080436" lon="12.192011968495816"><ele>382.79999999999995</ele><time>2026-04-16T13:58:26.001Z</time></trkpt><trkpt lat="43.08307127187626" lon="12.191948330179708"><ele>383.4</ele><time>2026-04-16T13:58:28.001Z</time></trkpt><trkpt lat="43.082990437634635" lon="12.191886314721145"><ele>384.0</ele><time>2026-04-16T13:58:30.001Z</time></trkpt><trkpt lat="43.08289515189808" lon="12.191816978348836"><ele>385.4</ele><time>2026-04-16T13:58:32.001Z</time></trkpt><trkpt lat="43.08279235885359" lon="12.191792928285622"><ele>386.79999999999995</ele><time>2026-04-16T13:58:34.001Z</time></trkpt><trkpt lat="43.08270637287772" lon="12.191730577200337"><ele>388.20000000000005</ele><time>2026-04-16T13:58:36.001Z</time></trkpt><trkpt lat="43.082614170279804" lon="12.191670738123689"><ele>389.6</ele><time>2026-04-16T13:58:38.001Z</time></trkpt><trkpt lat="43.08255826614622" lon="12.191627740349151"><ele>391.0</ele><time>2026-04-16T13:58:39.001Z</time></trkpt><trkpt lat="43.08249031672366" lon="12.191563007182364"><ele>391.50000000000006</ele><time>2026-04-16T13:58:41.001Z</time></trkpt><trkpt lat="43.08239605102401" lon="12.191523161740022"><ele>392.0</ele><time>2026-04-16T13:58:43.001Z</time></trkpt><trkpt lat="43.08232102783755" lon="12.191481796402623"><ele>392.5</ele><time>2026-04-16T13:58:45.001Z</time></trkpt><trkpt lat="43.08225561038109" lon="12.191401066811617"><ele>393.0</ele><time>2026-04-16T13:58:47Z</time></trkpt><trkpt lat="43.08222405247171" lon="12.191292020117002"><ele>393.50000000000006</ele><time>2026-04-16T13:58:49Z</time></trkpt><trkpt lat="43.08217889526994" lon="12.191215714811838"><ele>394.0</ele><time>2026-04-16T13:58:51Z</time></trkpt><trkpt lat="43.08214722498432" lon="12.1911251330589"><ele>394.0</ele><time>2026-04-16T13:58:53Z</time></trkpt><trkpt lat="43.08209940885397" lon="12.191007089641761"><ele>394.0</ele><time>2026-04-16T13:58:55Z</time></trkpt><trkpt lat="43.08205254044486" lon="12.190860714566877"><ele>394.0</ele><time>2026-04-16T13:58:57Z</time></trkpt><trkpt lat="43.08202989784712" lon="12.190772553998148"><ele>394.0</ele><time>2026-04-16T13:58:58Z</time></trkpt><trkpt lat="43.0819907709426" lon="12.190673932465925"><ele>394.0</ele><time>2026-04-16T13:58:59Z</time></trkpt><trkpt lat="43.08193350739064" lon="12.1905494158432"><ele>395.0</ele><time>2026-04-16T13:59:00Z</time></trkpt><trkpt lat="43.08188769662313" lon="12.190432271141994"><ele>396.0</ele><time>2026-04-16T13:59:01Z</time></trkpt><trkpt lat="43.081846628572855" lon="12.190344609463786"><ele>397.0</ele><time>2026-04-16T13:59:02Z</time></trkpt><trkpt lat="43.08181346794127" lon="12.190258373132774"><ele>398.0</ele><time>2026-04-16T13:59:03Z</time></trkpt><trkpt lat="43.08178980686812" lon="12.190088080364594"><ele>399.0</ele><time>2026-04-16T13:59:05Z</time></trkpt><trkpt lat="43.081727441748114" lon="12.189998915021926"><ele>399.0</ele><time>2026-04-16T13:59:06Z</time></trkpt><trkpt lat="43.08167849518621" lon="12.189895537660533"><ele>399.0</ele><time>2026-04-16T13:59:07Z</time></trkpt><trkpt lat="43.081640972596745" lon="12.189774634227744"><ele>399.0</ele><time>2026-04-16T13:59:08Z</time></trkpt><trkpt lat="43.08161217040339" lon="12.18965871004444"><ele>399.0</ele><time>2026-04-16T13:59:09Z</time></trkpt><trkpt lat="43.081587322415245" lon="12.18954849301096"><ele>399.0</ele><time>2026-04-16T13:59:10Z</time></trkpt><trkpt lat="43.08153849357466" lon="12.189446741393773"><ele>399.0</ele><time>2026-04-16T13:59:11Z</time></trkpt><trkpt lat="43.08148385415869" lon="12.189358257826614"><ele>401.79999999999995</ele><time>2026-04-16T13:59:12Z</time></trkpt><trkpt lat="43.08144254575368" lon="12.189289081567328"><ele>404.59999999999997</ele><time>2026-04-16T13:59:13Z</time></trkpt><trkpt lat="43.08136091387919" lon="12.189251333717806"><ele>407.4</ele><time>2026-04-16T13:59:15Z</time></trkpt><trkpt lat="43.08127221163138" lon="12.189171359329718"><ele>410.2</ele><time>2026-04-16T13:59:17Z</time></trkpt><trkpt lat="43.081162489003745" lon="12.189091216188158"><ele>413.0</ele><time>2026-04-16T13:59:19Z</time></trkpt><trkpt lat="43.08106664039293" lon="12.189051366254228"><ele>413.4</ele><time>2026-04-16T13:59:21Z</time></trkpt><trkpt lat="43.08099299859095" lon="12.188984855042222"><ele>413.79999999999995</ele><time>2026-04-16T13:59:23Z</time></trkpt><trkpt lat="43.08093707256556" lon="12.188922177018126"><ele>414.2</ele><time>2026-04-16T13:59:25Z</time></trkpt><trkpt lat="43.080832041562005" lon="12.188857177601543"><ele>414.6</ele><time>2026-04-16T13:59:27Z</time></trkpt><trkpt lat="43.080705107671854" lon="12.188844037236013"><ele>415.0</ele><time>2026-04-16T13:59:29Z</time></trkpt><trkpt lat="43.08063712141368" lon="12.188830965459612"><ele>417.0</ele><time>2026-04-16T13:59:30Z</time></trkpt><trkpt lat="43.08056709905117" lon="12.18880952586742"><ele>419.0</ele><time>2026-04-16T13:59:31Z</time></trkpt><trkpt lat="43.08047931264184" lon="12.188731336012944"><ele>421.0</ele><time>2026-04-16T13:59:33Z</time></trkpt><trkpt lat="43.08038914701443" lon="12.188640207886916"><ele>423.0</ele><time>2026-04-16T13:59:35Z</time></trkpt><trkpt lat="43.08030113642337" lon="12.188592215569683"><ele>425.0</ele><time>2026-04-16T13:59:37Z</time></trkpt><trkpt lat="43.080214289447" lon="12.188552555373894"><ele>424.99999999999994</ele><time>2026-04-16T13:59:39Z</time></trkpt><trkpt lat="43.080139870000735" lon="12.18854652640736"><ele>425.0</ele><time>2026-04-16T13:59:42Z</time></trkpt><trkpt lat="43.08007945265791" lon="12.188512333164736"><ele>425.0</ele><time>2026-04-16T14:00:04.001Z</time></trkpt><trkpt lat="43.08002702626034" lon="12.188420695832512"><ele>425.0</ele><time>2026-04-16T14:00:07.001Z</time></trkpt><trkpt lat="43.07993196705581" lon="12.188304259621683"><ele>424.99999999999994</ele><time>2026-04-16T14:00:10.001Z</time></trkpt><trkpt lat="43.07986985471635" lon="12.188232644274933"><ele>425.0</ele><time>2026-04-16T14:00:11.001Z</time></trkpt><trkpt lat="43.079820735719395" lon="12.188175301177056"><ele>428.49999999999994</ele><time>2026-04-16T14:00:12.001Z</time></trkpt><trkpt lat="43.07974438625494" lon="12.188102111513084"><ele>432.0</ele><time>2026-04-16T14:00:14.001Z</time></trkpt><trkpt lat="43.07963450447798" lon="12.18805734114038"><ele>435.5</ele><time>2026-04-16T14:00:16.001Z</time></trkpt><trkpt lat="43.079582057343785" lon="12.188009516703675"><ele>439.0</ele><time>2026-04-16T14:00:17.001Z</time></trkpt><trkpt lat="43.07954080864777" lon="12.187926493525474"><ele>442.49999999999994</ele><time>2026-04-16T14:00:18.001Z</time></trkpt><trkpt lat="43.0794865567004" lon="12.187827678370844"><ele>446.0</ele><time>2026-04-16T14:00:20.001Z</time></trkpt><trkpt lat="43.079399547529064" lon="12.187830975776006"><ele>446.0</ele><time>2026-04-16T14:00:23.001Z</time></trkpt><trkpt lat="43.07934089945522" lon="12.187788881683229"><ele>446.0</ele><time>2026-04-16T14:00:26.001Z</time></trkpt><trkpt lat="43.07927673403178" lon="12.187782185119096"><ele>446.0</ele><time>2026-04-16T14:14:34Z</time></trkpt><trkpt lat="43.07920913698553" lon="12.187747356822884"><ele>446.0</ele><time>2026-04-16T14:14:37Z</time></trkpt><trkpt lat="43.07912339586007" lon="12.187687928543081"><ele>446.0</ele><time>2026-04-16T14:14:41Z</time></trkpt><trkpt lat="43.079052654977474" lon="12.18767028458862"><ele>446.0</ele><time>2026-04-16T14:14:44Z</time></trkpt><trkpt lat="43.078982361163334" lon="12.18765393948611"><ele>446.0</ele><time>2026-04-16T14:14:48Z</time></trkpt><trkpt lat="43.07891614062026" lon="12.187633226644932"><ele>446.85714285714283</ele><time>2026-04-16T14:14:51Z</time></trkpt><trkpt lat="43.07883723625264" lon="12.18761583100854"><ele>447.71428571428567</ele><time>2026-04-16T14:14:55Z</time></trkpt><trkpt lat="43.07876176314596" lon="12.187612910873947"><ele>448.57142857142856</ele><time>2026-04-16T14:14:58Z</time></trkpt><trkpt lat="43.078698109987585" lon="12.187579631348688"><ele>449.42857142857144</ele><time>2026-04-16T14:15:01Z</time></trkpt><trkpt lat="43.07862900462649" lon="12.187560718828124"><ele>450.2857142857143</ele><time>2026-04-16T14:15:05Z</time></trkpt><trkpt lat="43.078553655354675" lon="12.187531443403204"><ele>451.14285714285717</ele><time>2026-04-16T14:15:09Z</time></trkpt><trkpt lat="43.07848781605263" lon="12.187523854674815"><ele>452.0</ele><time>2026-04-16T14:15:12Z</time></trkpt><trkpt lat="43.078423853737824" lon="12.187479792425387"><ele>451.99999999999994</ele><time>2026-04-16T14:15:24Z</time></trkpt><trkpt lat="43.07835878795819" lon="12.187433707027576"><ele>452.0</ele><time>2026-04-16T14:15:28Z</time></trkpt><trkpt lat="43.07826496163855" lon="12.18742098199645"><ele>452.0</ele><time>2026-04-16T14:15:31Z</time></trkpt><trkpt lat="43.078190668205714" lon="12.1873603348088"><ele>452.0</ele><time>2026-04-16T14:15:34Z</time></trkpt><trkpt lat="43.07811871481379" lon="12.187327925493548"><ele>451.99999999999994</ele><time>2026-04-16T14:15:37Z</time></trkpt><trkpt lat="43.07803527508297" lon="12.187302517323598"><ele>452.0</ele><time>2026-04-16T14:15:40Z</time></trkpt><trkpt lat="43.07796288771502" lon="12.187272595487249"><ele>455.99999999999994</ele><time>2026-04-16T14:15:42Z</time></trkpt><trkpt lat="43.07788907748021" lon="12.187232048334057"><ele>460.0</ele><time>2026-04-16T14:15:44Z</time></trkpt><trkpt lat="43.07782239617218" lon="12.187171157692823"><ele>464.0</ele><time>2026-04-16T14:15:47Z</time></trkpt><trkpt lat="43.077756023301866" lon="12.187107568109171"><ele>468.0</ele><time>2026-04-16T14:15:49Z</time></trkpt><trkpt lat="43.07768334398187" lon="12.187074779535896"><ele>471.99999999999994</ele><time>2026-04-16T14:15:51Z</time></trkpt><trkpt lat="43.077600588525186" lon="12.187006504329519"><ele>476.0</ele><time>2026-04-16T14:15:54Z</time></trkpt><trkpt lat="43.077537016812954" lon="12.186970962228012"><ele>475.99999999999994</ele><time>2026-04-16T14:15:56Z</time></trkpt><trkpt lat="43.0774757569438" lon="12.186916833779518"><ele>476.0</ele><time>2026-04-16T14:15:57.999Z</time></trkpt><trkpt lat="43.0773952904525" lon="12.186852753810548"><ele>476.0</ele><time>2026-04-16T14:16:00.999Z</time></trkpt><trkpt lat="43.07733251607219" lon="12.186798726807801"><ele>476.0</ele><time>2026-04-16T14:16:02.999Z</time></trkpt><trkpt lat="43.07728457279044" lon="12.186692857280917"><ele>475.99999999999994</ele><time>2026-04-16T14:16:05.999Z</time></trkpt><trkpt lat="43.07734639396073" lon="12.186635633265954"><ele>476.0</ele><time>2026-04-16T14:16:13.999Z</time></trkpt><trkpt lat="43.07740387641578" lon="12.186559460144137"><ele>476.99999999999994</ele><time>2026-04-16T14:16:16.999Z</time></trkpt><trkpt lat="43.077406197234836" lon="12.186457239826858"><ele>478.0</ele><time>2026-04-16T14:16:18.999Z</time></trkpt><trkpt lat="43.077379063716535" lon="12.186371743004718"><ele>479.0</ele><time>2026-04-16T14:16:20.999Z</time></trkpt><trkpt lat="43.07735399170499" lon="12.18627360764604"><ele>480.0</ele><time>2026-04-16T14:16:22.999Z</time></trkpt><trkpt lat="43.077347575740504" lon="12.18616999421588"><ele>480.99999999999994</ele><time>2026-04-16T14:16:24.999Z</time></trkpt><trkpt lat="43.0773818664506" lon="12.186043153694353"><ele>482.0</ele><time>2026-04-16T14:16:26.999Z</time></trkpt><trkpt lat="43.07744394543949" lon="12.185958397787038"><ele>482.0</ele><time>2026-04-16T14:16:28.999Z</time></trkpt><trkpt lat="43.077513249955096" lon="12.185893395666703"><ele>482.00000000000006</ele><time>2026-04-16T14:16:30.999Z</time></trkpt><trkpt lat="43.07757223146952" lon="12.18576119285416"><ele>482.00000000000006</ele><time>2026-04-16T14:16:32.999Z</time></trkpt><trkpt lat="43.07760785307836" lon="12.185638513502456"><ele>482.0</ele><time>2026-04-16T14:16:35Z</time></trkpt><trkpt lat="43.07765013147408" lon="12.185527761629261"><ele>482.0</ele><time>2026-04-16T14:16:37Z</time></trkpt><trkpt lat="43.07769595575904" lon="12.185433776033344"><ele>480.8</ele><time>2026-04-16T14:16:39Z</time></trkpt><trkpt lat="43.07777043502206" lon="12.18533486037264"><ele>479.6</ele><time>2026-04-16T14:16:41Z</time></trkpt><trkpt lat="43.07786296544964" lon="12.18523857901331"><ele>478.40000000000003</ele><time>2026-04-16T14:16:43Z</time></trkpt><trkpt lat="43.07793427979642" lon="12.185165251163152"><ele>477.20000000000005</ele><time>2026-04-16T14:16:45Z</time></trkpt><trkpt lat="43.07800253141162" lon="12.185138362447494"><ele>476.0</ele><time>2026-04-16T14:16:47Z</time></trkpt><trkpt lat="43.07804742896171" lon="12.185049466500296"><ele>476.0</ele><time>2026-04-16T14:16:50Z</time></trkpt><trkpt lat="43.07806980326689" lon="12.185140811120927"><ele>476.0</ele><time>2026-04-16T14:20:42.999Z</time></trkpt><trkpt lat="43.078127535392106" lon="12.185096798886313"><ele>476.0</ele><time>2026-04-16T14:21:04Z</time></trkpt><trkpt lat="43.0780728452835" lon="12.185146657228241"><ele>476.0</ele><time>2026-04-16T14:22:31.999Z</time></trkpt><trkpt lat="43.07804629117604" lon="12.185068418246132"><ele>476.0</ele><time>2026-04-16T14:23:56Z</time></trkpt><trkpt lat="43.07805751640512" lon="12.184962778102175"><ele>476.0</ele><time>2026-04-16T14:25:13Z</time></trkpt><trkpt lat="43.07810014884265" lon="12.184829626338631"><ele>476.0</ele><time>2026-04-16T14:25:16Z</time></trkpt><trkpt lat="43.07815953545983" lon="12.184737098375065"><ele>476.0</ele><time>2026-04-16T14:25:18Z</time></trkpt><trkpt lat="43.07822016820718" lon="12.184680641541133"><ele>476.0</ele><time>2026-04-16T14:25:20Z</time></trkpt><trkpt lat="43.078298677559104" lon="12.18460904983282"><ele>476.0</ele><time>2026-04-16T14:25:22Z</time></trkpt><trkpt lat="43.078380487150355" lon="12.184518302897212"><ele>476.0</ele><time>2026-04-16T14:25:24Z</time></trkpt><trkpt lat="43.07843219008226" lon="12.184398036809652"><ele>476.0</ele><time>2026-04-16T14:25:26Z</time></trkpt><trkpt lat="43.07847445653668" lon="12.184287072262189"><ele>475.8333333333333</ele><time>2026-04-16T14:25:28Z</time></trkpt><trkpt lat="43.07850257499358" lon="12.184206759742294"><ele>475.66666666666663</ele><time>2026-04-16T14:25:30Z</time></trkpt><trkpt lat="43.07851956761817" lon="12.184101293977223"><ele>475.5</ele><time>2026-04-16T14:25:33Z</time></trkpt><trkpt lat="43.078515232879354" lon="12.184004618637282"><ele>475.33333333333337</ele><time>2026-04-16T14:25:36Z</time></trkpt><trkpt lat="43.078494193964055" lon="12.183888735473763"><ele>475.1666666666667</ele><time>2026-04-16T14:25:45Z</time></trkpt><trkpt lat="43.07846213246879" lon="12.183807100929265"><ele>475.0</ele><time>2026-04-16T14:25:47Z</time></trkpt><trkpt lat="43.078424749298605" lon="12.183708455945851"><ele>475.00000000000006</ele><time>2026-04-16T14:25:49Z</time></trkpt><trkpt lat="43.078388732282114" lon="12.183622272368922"><ele>475.0</ele><time>2026-04-16T14:25:51Z</time></trkpt><trkpt lat="43.078359683443736" lon="12.18349034860968"><ele>475.0</ele><time>2026-04-16T14:25:53Z</time></trkpt><trkpt lat="43.078307098567905" lon="12.18335741638035"><ele>475.0</ele><time>2026-04-16T14:25:55Z</time></trkpt><trkpt lat="43.07827959228374" lon="12.183265507997094"><ele>475.00000000000006</ele><time>2026-04-16T14:25:57Z</time></trkpt><trkpt lat="43.07824340345497" lon="12.183194586337505"><ele>475.0</ele><time>2026-04-16T14:26:07Z</time></trkpt><trkpt lat="43.07816107547986" lon="12.183230894270919"><ele>475.00000000000006</ele><time>2026-04-16T14:26:09Z</time></trkpt><trkpt lat="43.07809677681992" lon="12.183300992338607"><ele>475.0</ele><time>2026-04-16T14:26:11Z</time></trkpt><trkpt lat="43.07801993271579" lon="12.183329174458049"><ele>475.0</ele><time>2026-04-16T14:26:13Z</time></trkpt><trkpt lat="43.07793231370215" lon="12.183298448488912"><ele>475.0</ele><time>2026-04-16T14:26:16Z</time></trkpt><trkpt lat="43.07786645716645" lon="12.183255817001928"><ele>475.00000000000006</ele><time>2026-04-16T14:26:18Z</time></trkpt><trkpt lat="43.07776834603983" lon="12.183209350447493"><ele>475.0</ele><time>2026-04-16T14:26:20Z</time></trkpt><trkpt lat="43.077690428899786" lon="12.183169439242427"><ele>475.00000000000006</ele><time>2026-04-16T14:26:22Z</time></trkpt><trkpt lat="43.07763070962927" lon="12.183103400303356"><ele>475.0</ele><time>2026-04-16T14:26:24Z</time></trkpt><trkpt lat="43.077547838796214" lon="12.183035330308142"><ele>475.0</ele><time>2026-04-16T14:26:25.999Z</time></trkpt><trkpt lat="43.07747526842882" lon="12.182919092399533"><ele>475.0</ele><time>2026-04-16T14:26:27.999Z</time></trkpt><trkpt lat="43.077428731316964" lon="12.182830567337263"><ele>475.00000000000006</ele><time>2026-04-16T14:26:29.999Z</time></trkpt><trkpt lat="43.07739965016293" lon="12.182748983045734"><ele>475.0</ele><time>2026-04-16T14:26:30.999Z</time></trkpt><trkpt lat="43.07736555007225" lon="12.182648541280857"><ele>475.0</ele><time>2026-04-16T14:26:32.999Z</time></trkpt><trkpt lat="43.077352504841656" lon="12.182553330699898"><ele>475.00000000000006</ele><time>2026-04-16T14:26:40.999Z</time></trkpt><trkpt lat="43.07742823663095" lon="12.182559248228053"><ele>475.0</ele><time>2026-04-16T14:26:50.999Z</time></trkpt><trkpt lat="43.077498301170586" lon="12.1826077275254"><ele>475.0</ele><time>2026-04-16T14:26:52.999Z</time></trkpt><trkpt lat="43.077556207494645" lon="12.18267140371825"><ele>475.00000000000006</ele><time>2026-04-16T14:26:54.999Z</time></trkpt><trkpt lat="43.07761035029036" lon="12.18272319725544"><ele>475.0</ele><time>2026-04-16T14:26:56.999Z</time></trkpt><trkpt lat="43.07755536374282" lon="12.182663824669747"><ele>475.0</ele><time>2026-04-16T14:27:05Z</time></trkpt><trkpt lat="43.0774645309281" lon="12.182587839374335"><ele>475.0</ele><time>2026-04-16T14:27:07Z</time></trkpt><trkpt lat="43.07745739947237" lon="12.182482985577359"><ele>475.0</ele><time>2026-04-16T14:27:10Z</time></trkpt><trkpt lat="43.07755040380591" lon="12.182404622240519"><ele>475.0</ele><time>2026-04-16T14:27:12Z</time></trkpt><trkpt lat="43.07763218381905" lon="12.182332209065416"><ele>475.0</ele><time>2026-04-16T14:27:14Z</time></trkpt><trkpt lat="43.07770215311291" lon="12.182258983474433"><ele>475.0</ele><time>2026-04-16T14:27:16Z</time></trkpt><trkpt lat="43.07775721892945" lon="12.182149459726068"><ele>476.8</ele><time>2026-04-16T14:27:18Z</time></trkpt><trkpt lat="43.07776673508349" lon="12.181997567058342"><ele>478.6</ele><time>2026-04-16T14:27:20Z</time></trkpt><trkpt lat="43.07775968813494" lon="12.181886289683003"><ele>480.4</ele><time>2026-04-16T14:27:22Z</time></trkpt><trkpt lat="43.07775262259224" lon="12.181759291253076"><ele>482.2</ele><time>2026-04-16T14:27:25Z</time></trkpt><trkpt lat="43.0777732695764" lon="12.18162692545252"><ele>484.0</ele><time>2026-04-16T14:27:27Z</time></trkpt><trkpt lat="43.07781661152129" lon="12.18151259749997"><ele>486.0</ele><time>2026-04-16T14:27:29Z</time></trkpt><trkpt lat="43.07784330204368" lon="12.18140846511542"><ele>488.0</ele><time>2026-04-16T14:27:30Z</time></trkpt><trkpt lat="43.07787398561452" lon="12.181299050618145"><ele>490.0</ele><time>2026-04-16T14:27:31Z</time></trkpt><trkpt lat="43.07789865079073" lon="12.181202416401947"><ele>492.0</ele><time>2026-04-16T14:27:32Z</time></trkpt><trkpt lat="43.07793253206333" lon="12.181128588517678"><ele>494.0</ele><time>2026-04-16T14:27:34Z</time></trkpt><trkpt lat="43.078004291544445" lon="12.1809357162742"><ele>494.0</ele><time>2026-04-16T14:27:39Z</time></trkpt><trkpt lat="43.07803519404802" lon="12.180855155744135"><ele>494.0</ele><time>2026-04-16T14:27:40Z</time></trkpt><trkpt lat="43.07811046971991" lon="12.1807346479364"><ele>494.0</ele><time>2026-04-16T14:27:42Z</time></trkpt><trkpt lat="43.07815359962174" lon="12.180602388642935"><ele>494.0</ele><time>2026-04-16T14:27:44Z</time></trkpt><trkpt lat="43.07818245647408" lon="12.18043422815862"><ele>494.0</ele><time>2026-04-16T14:27:46Z</time></trkpt><trkpt lat="43.07817031803109" lon="12.180307010971156"><ele>495.0</ele><time>2026-04-16T14:27:48Z</time></trkpt><trkpt lat="43.078145966224035" lon="12.180226127599056"><ele>496.0</ele><time>2026-04-16T14:27:49Z</time></trkpt><trkpt lat="43.07814148950306" lon="12.18004643760834"><ele>497.0</ele><time>2026-04-16T14:27:51Z</time></trkpt><trkpt lat="43.078137634464724" lon="12.179951214941157"><ele>498.0</ele><time>2026-04-16T14:27:52Z</time></trkpt><trkpt lat="43.07813616696812" lon="12.179806916811671"><ele>499.0</ele><time>2026-04-16T14:27:54Z</time></trkpt><trkpt lat="43.07816074729691" lon="12.179661834851439"><ele>499.00000000000006</ele><time>2026-04-16T14:27:56Z</time></trkpt><trkpt lat="43.078172677535264" lon="12.17957088213683"><ele>499.0</ele><time>2026-04-16T14:27:57Z</time></trkpt><trkpt lat="43.07820383015295" lon="12.179494482204943"><ele>499.0</ele><time>2026-04-16T14:27:58Z</time></trkpt><trkpt lat="43.078238929154445" lon="12.179410924866435"><ele>499.0</ele><time>2026-04-16T14:27:59Z</time></trkpt><trkpt lat="43.078275214504046" lon="12.17934028949641"><ele>499.00000000000006</ele><time>2026-04-16T14:28:00Z</time></trkpt><trkpt lat="43.07837458853061" lon="12.179232323601807"><ele>499.0</ele><time>2026-04-16T14:28:02Z</time></trkpt><trkpt lat="43.07843438147562" lon="12.17919357365335"><ele>495.4</ele><time>2026-04-16T14:28:03Z</time></trkpt><trkpt lat="43.07850592227398" lon="12.179068362752519"><ele>491.79999999999995</ele><time>2026-04-16T14:28:05Z</time></trkpt><trkpt lat="43.07856170880532" lon="12.178929685595325"><ele>488.20000000000005</ele><time>2026-04-16T14:28:07Z</time></trkpt><trkpt lat="43.07862379232795" lon="12.178822801159303"><ele>484.6</ele><time>2026-04-16T14:28:09Z</time></trkpt><trkpt lat="43.0786442337838" lon="12.178670246002358"><ele>481.0</ele><time>2026-04-16T14:28:11Z</time></trkpt><trkpt lat="43.07864178443754" lon="12.178538539787372"><ele>479.83333333333337</ele><time>2026-04-16T14:28:13Z</time></trkpt><trkpt lat="43.07863371378492" lon="12.178412229128476"><ele>478.6666666666667</ele><time>2026-04-16T14:28:15Z</time></trkpt><trkpt lat="43.07859837083188" lon="12.178305730940936"><ele>477.5</ele><time>2026-04-16T14:28:17Z</time></trkpt><trkpt lat="43.07855915678953" lon="12.178225288547862"><ele>476.33333333333337</ele><time>2026-04-16T14:28:19Z</time></trkpt><trkpt lat="43.07849725777355" lon="12.178151959861157"><ele>475.1666666666667</ele><time>2026-04-16T14:28:21Z</time></trkpt><trkpt lat="43.078427096231316" lon="12.17808705520335"><ele>474.0</ele><time>2026-04-16T14:28:23Z</time></trkpt><trkpt lat="43.07833224523405" lon="12.177994695258375"><ele>475.4</ele><time>2026-04-16T14:28:25Z</time></trkpt><trkpt lat="43.078245600554354" lon="12.177907229977624"><ele>476.79999999999995</ele><time>2026-04-16T14:28:27Z</time></trkpt><trkpt lat="43.07817899568776" lon="12.177853378371529"><ele>478.20000000000005</ele><time>2026-04-16T14:28:29Z</time></trkpt><trkpt lat="43.07810320932516" lon="12.177762735814362"><ele>479.6</ele><time>2026-04-16T14:28:32Z</time></trkpt><trkpt lat="43.078052629094316" lon="12.177645012994168"><ele>481.0</ele><time>2026-04-16T14:28:34Z</time></trkpt><trkpt lat="43.078037016722064" lon="12.177511463493852"><ele>481.00000000000006</ele><time>2026-04-16T14:28:37Z</time></trkpt><trkpt lat="43.078024399186695" lon="12.177414457856296"><ele>481.0</ele><time>2026-04-16T14:28:39.999Z</time></trkpt><trkpt lat="43.077990504475565" lon="12.177331674507252"><ele>481.0</ele><time>2026-04-16T14:28:56.999Z</time></trkpt><trkpt lat="43.077940242279475" lon="12.177262829754339"><ele>481.0</ele><time>2026-04-16T14:29:02.999Z</time></trkpt><trkpt lat="43.077888257460664" lon="12.177178818441252"><ele>481.00000000000006</ele><time>2026-04-16T14:29:07.999Z</time></trkpt><trkpt lat="43.077827180786365" lon="12.177091081589566"><ele>481.0</ele><time>2026-04-16T14:29:10Z</time></trkpt><trkpt lat="43.07775722126658" lon="12.176986291964818"><ele>479.6666666666667</ele><time>2026-04-16T14:29:13Z</time></trkpt><trkpt lat="43.07770314566018" lon="12.176913053151306"><ele>478.33333333333337</ele><time>2026-04-16T14:29:15Z</time></trkpt><trkpt lat="43.07765056609784" lon="12.176832154450395"><ele>477.0</ele><time>2026-04-16T14:29:17Z</time></trkpt><trkpt lat="43.07758619100528" lon="12.17679953219539"><ele>475.66666666666663</ele><time>2026-04-16T14:29:19Z</time></trkpt><trkpt lat="43.07748892236805" lon="12.176736920132724"><ele>474.3333333333333</ele><time>2026-04-16T14:29:21Z</time></trkpt><trkpt lat="43.07743086645664" lon="12.176699498738223"><ele>473.0</ele><time>2026-04-16T14:29:22Z</time></trkpt><trkpt lat="43.07735613527246" lon="12.176669979792843"><ele>472.99999999999994</ele><time>2026-04-16T14:29:24Z</time></trkpt><trkpt lat="43.077252147164884" lon="12.176612382378321"><ele>473.0</ele><time>2026-04-16T14:29:27Z</time></trkpt><trkpt lat="43.07718393566815" lon="12.176534000390665"><ele>473.0</ele><time>2026-04-16T14:29:29Z</time></trkpt><trkpt lat="43.077119212281055" lon="12.176496320698082"><ele>473.0</ele><time>2026-04-16T14:29:31Z</time></trkpt><trkpt lat="43.077045447981604" lon="12.176453241624358"><ele>472.99999999999994</ele><time>2026-04-16T14:29:33Z</time></trkpt><trkpt lat="43.07698314722462" lon="12.176429237481495"><ele>473.0</ele><time>2026-04-16T14:29:34Z</time></trkpt><trkpt lat="43.07689906244063" lon="12.176388765894002"><ele>470.16666666666663</ele><time>2026-04-16T14:29:36Z</time></trkpt><trkpt lat="43.07682463246909" lon="12.176330680127569"><ele>467.3333333333333</ele><time>2026-04-16T14:29:39Z</time></trkpt><trkpt lat="43.07676174320814" lon="12.176267005262858"><ele>464.5</ele><time>2026-04-16T14:29:41Z</time></trkpt><trkpt lat="43.0766999806733" lon="12.176247934557283"><ele>461.66666666666663</ele><time>2026-04-16T14:29:43Z</time></trkpt><trkpt lat="43.076632313311656" lon="12.176199261365127"><ele>458.8333333333333</ele><time>2026-04-16T14:29:45Z</time></trkpt><trkpt lat="43.076545896088085" lon="12.176130594872262"><ele>456.0</ele><time>2026-04-16T14:29:47Z</time></trkpt><trkpt lat="43.07646721303803" lon="12.176081406904707"><ele>456.0</ele><time>2026-04-16T14:29:49Z</time></trkpt><trkpt lat="43.07638139793271" lon="12.176035056374628"><ele>456.0</ele><time>2026-04-16T14:29:51Z</time></trkpt><trkpt lat="43.076278207248606" lon="12.175985357234982"><ele>456.0</ele><time>2026-04-16T14:29:53Z</time></trkpt><trkpt lat="43.07615505411382" lon="12.17593306282583"><ele>456.0</ele><time>2026-04-16T14:29:55Z</time></trkpt><trkpt lat="43.07608380699654" lon="12.175899020352238"><ele>456.0</ele><time>2026-04-16T14:29:56Z</time></trkpt><trkpt lat="43.0759795678231" lon="12.175876358440803"><ele>456.0</ele><time>2026-04-16T14:29:58Z</time></trkpt><trkpt lat="43.07590491613243" lon="12.17586697692675"><ele>456.0</ele><time>2026-04-16T14:29:59Z</time></trkpt><trkpt lat="43.07581711359581" lon="12.175845320281814"><ele>456.0</ele><time>2026-04-16T14:30:01Z</time></trkpt><trkpt lat="43.07574488836186" lon="12.175808196954941"><ele>456.0</ele><time>2026-04-16T14:30:03Z</time></trkpt><trkpt lat="43.07568135273514" lon="12.175748997873573"><ele>456.0</ele><time>2026-04-16T14:30:05Z</time></trkpt><trkpt lat="43.07579358445606" lon="12.175580539192405"><ele>455.6</ele><time>2026-04-16T14:30:09Z</time></trkpt><trkpt lat="43.07587842610515" lon="12.17554457762261"><ele>455.20000000000005</ele><time>2026-04-16T14:30:10Z</time></trkpt><trkpt lat="43.0759597872263" lon="12.175511773899961"><ele>454.79999999999995</ele><time>2026-04-16T14:30:11Z</time></trkpt><trkpt lat="43.07603653860753" lon="12.175438808032926"><ele>454.4</ele><time>2026-04-16T14:30:13Z</time></trkpt><trkpt lat="43.076166016321494" lon="12.175400157709712"><ele>454.0</ele><time>2026-04-16T14:30:15Z</time></trkpt><trkpt lat="43.076235730170986" lon="12.175380077999648"><ele>454.00000000000006</ele><time>2026-04-16T14:30:16Z</time></trkpt><trkpt lat="43.07631014145963" lon="12.175359356085625"><ele>454.0</ele><time>2026-04-16T14:30:17Z</time></trkpt><trkpt lat="43.07638628556701" lon="12.17533899670073"><ele>454.0</ele><time>2026-04-16T14:30:18Z</time></trkpt><trkpt lat="43.07646284595931" lon="12.175318526012319"><ele>454.0</ele><time>2026-04-16T14:30:19Z</time></trkpt><trkpt lat="43.07654119748949" lon="12.175296592181372"><ele>454.00000000000006</ele><time>2026-04-16T14:30:20Z</time></trkpt><trkpt lat="43.076615715652295" lon="12.175277399594556"><ele>454.0</ele><time>2026-04-16T14:30:21Z</time></trkpt><trkpt lat="43.076685058424474" lon="12.17526872453566"><ele>450.2</ele><time>2026-04-16T14:30:22Z</time></trkpt><trkpt lat="43.07675574514319" lon="12.17527036147194"><ele>446.4</ele><time>2026-04-16T14:30:23Z</time></trkpt><trkpt lat="43.076841416132645" lon="12.175279564330701"><ele>442.6</ele><time>2026-04-16T14:30:24Z</time></trkpt><trkpt lat="43.07693828269602" lon="12.175291135570887"><ele>438.8</ele><time>2026-04-16T14:30:25Z</time></trkpt><trkpt lat="43.07703972655121" lon="12.1753028665313"><ele>435.0</ele><time>2026-04-16T14:30:26Z</time></trkpt><trkpt lat="43.07713814293957" lon="12.175273449099434"><ele>435.0</ele><time>2026-04-16T14:30:27Z</time></trkpt><trkpt lat="43.077235333115716" lon="12.175249803444988"><ele>435.0</ele><time>2026-04-16T14:30:28Z</time></trkpt><trkpt lat="43.07733368024406" lon="12.175237097884363"><ele>435.0</ele><time>2026-04-16T14:30:29Z</time></trkpt><trkpt lat="43.07742824269267" lon="12.175220690824064"><ele>435.0</ele><time>2026-04-16T14:30:30Z</time></trkpt><trkpt lat="43.077520409917554" lon="12.175212896718488"><ele>435.0</ele><time>2026-04-16T14:30:31Z</time></trkpt><trkpt lat="43.077606983401665" lon="12.175206390358275"><ele>433.0</ele><time>2026-04-16T14:30:32Z</time></trkpt><trkpt lat="43.07769596749385" lon="12.175192926932144"><ele>431.0</ele><time>2026-04-16T14:30:33Z</time></trkpt><trkpt lat="43.07777446738078" lon="12.175157360931134"><ele>429.0</ele><time>2026-04-16T14:30:34Z</time></trkpt><trkpt lat="43.077849162108556" lon="12.175116589390582"><ele>427.0</ele><time>2026-04-16T14:30:35Z</time></trkpt><trkpt lat="43.077924588826" lon="12.175083283111043"><ele>425.0</ele><time>2026-04-16T14:30:36Z</time></trkpt><trkpt lat="43.078001438548014" lon="12.175029927330012"><ele>423.0</ele><time>2026-04-16T14:30:37Z</time></trkpt><trkpt lat="43.078072805414884" lon="12.174973124856026"><ele>423.0</ele><time>2026-04-16T14:30:38Z</time></trkpt><trkpt lat="43.07813883174279" lon="12.174936033778538"><ele>423.0</ele><time>2026-04-16T14:30:39Z</time></trkpt><trkpt lat="43.078213188785256" lon="12.174908286131346"><ele>423.0</ele><time>2026-04-16T14:30:40Z</time></trkpt><trkpt lat="43.07829572863245" lon="12.174880388979114"><ele>423.0</ele><time>2026-04-16T14:30:41Z</time></trkpt><trkpt lat="43.07838686487264" lon="12.17485150204971"><ele>423.0</ele><time>2026-04-16T14:30:41.999Z</time></trkpt><trkpt lat="43.078463587818774" lon="12.174828663947519"><ele>423.0</ele><time>2026-04-16T14:30:42.999Z</time></trkpt><trkpt lat="43.07853966817039" lon="12.1747848437655"><ele>420.4285714285714</ele><time>2026-04-16T14:30:43.999Z</time></trkpt><trkpt lat="43.07860995480297" lon="12.174763735981937"><ele>417.8571428571429</ele><time>2026-04-16T14:30:44.999Z</time></trkpt><trkpt lat="43.07867136109086" lon="12.174728127441352"><ele>415.2857142857143</ele><time>2026-04-16T14:30:45.999Z</time></trkpt><trkpt lat="43.078738022446416" lon="12.174711260747939"><ele>412.71428571428567</ele><time>2026-04-16T14:30:46.999Z</time></trkpt><trkpt lat="43.07880763296351" lon="12.17468008472146"><ele>410.1428571428571</ele><time>2026-04-16T14:30:47.999Z</time></trkpt><trkpt lat="43.07887062806464" lon="12.174657441060258"><ele>407.57142857142856</ele><time>2026-04-16T14:30:48.999Z</time></trkpt><trkpt lat="43.07894864798033" lon="12.174647400374702"><ele>405.0</ele><time>2026-04-16T14:30:49.999Z</time></trkpt><trkpt lat="43.07903233397327" lon="12.174649535076723"><ele>402.6666666666667</ele><time>2026-04-16T14:30:50.999Z</time></trkpt><trkpt lat="43.07910932955212" lon="12.174663023211755"><ele>400.33333333333337</ele><time>2026-04-16T14:30:51.999Z</time></trkpt><trkpt lat="43.0791881948695" lon="12.174683934142736"><ele>398.0</ele><time>2026-04-16T14:30:52.999Z</time></trkpt><trkpt lat="43.07926639707729" lon="12.174714625480904"><ele>395.6666666666667</ele><time>2026-04-16T14:30:53.999Z</time></trkpt><trkpt lat="43.079341615949566" lon="12.174750000356912"><ele>393.33333333333337</ele><time>2026-04-16T14:30:54.999Z</time></trkpt><trkpt lat="43.079419668802046" lon="12.174783863894346"><ele>391.0</ele><time>2026-04-16T14:30:55.999Z</time></trkpt><trkpt lat="43.07949283985637" lon="12.174790012996926"><ele>391.0</ele><time>2026-04-16T14:30:56.999Z</time></trkpt><trkpt lat="43.07958122981809" lon="12.17478098908741"><ele>391.0</ele><time>2026-04-16T14:30:57.999Z</time></trkpt><trkpt lat="43.079690840840115" lon="12.174760242335452"><ele>391.0</ele><time>2026-04-16T14:30:58.999Z</time></trkpt><trkpt lat="43.07979606235351" lon="12.174751846366584"><ele>391.0</ele><time>2026-04-16T14:30:59.999Z</time></trkpt><trkpt lat="43.0798939631152" lon="12.174754134853435"><ele>391.0</ele><time>2026-04-16T14:31:00.999Z</time></trkpt><trkpt lat="43.07998664665608" lon="12.174723021211344"><ele>389.6</ele><time>2026-04-16T14:31:01.999Z</time></trkpt><trkpt lat="43.08008648050429" lon="12.174734982795686"><ele>388.20000000000005</ele><time>2026-04-16T14:31:02.999Z</time></trkpt><trkpt lat="43.08017696321867" lon="12.17472887690583"><ele>386.79999999999995</ele><time>2026-04-16T14:31:03.999Z</time></trkpt><trkpt lat="43.08026552807032" lon="12.174715100379096"><ele>385.4</ele><time>2026-04-16T14:31:04.999Z</time></trkpt><trkpt lat="43.080346121724816" lon="12.17464376653524"><ele>384.0</ele><time>2026-04-16T14:31:05.999Z</time></trkpt><trkpt lat="43.08039656965291" lon="12.174539665187202"><ele>384.0</ele><time>2026-04-16T14:31:06.999Z</time></trkpt><trkpt lat="43.08043782667354" lon="12.17443714340546"><ele>384.0</ele><time>2026-04-16T14:31:07.999Z</time></trkpt><trkpt lat="43.08048512226585" lon="12.174359417720249"><ele>384.0</ele><time>2026-04-16T14:31:08.999Z</time></trkpt><trkpt lat="43.08053266485469" lon="12.174294670532158"><ele>384.0</ele><time>2026-04-16T14:31:09.999Z</time></trkpt><trkpt lat="43.08059939365763" lon="12.174264000847993"><ele>384.0</ele><time>2026-04-16T14:31:10.999Z</time></trkpt><trkpt lat="43.08068780823239" lon="12.174246066271005"><ele>384.0</ele><time>2026-04-16T14:31:11.999Z</time></trkpt><trkpt lat="43.08081333672617" lon="12.174235183054932"><ele>383.2</ele><time>2026-04-16T14:31:12.999Z</time></trkpt><trkpt lat="43.08092600979872" lon="12.174239408277254"><ele>382.4</ele><time>2026-04-16T14:31:13.999Z</time></trkpt><trkpt lat="43.08102471003445" lon="12.17426076440961"><ele>381.6</ele><time>2026-04-16T14:31:14.999Z</time></trkpt><trkpt lat="43.08112736774839" lon="12.174283901101752"><ele>380.8</ele><time>2026-04-16T14:31:16Z</time></trkpt><trkpt lat="43.081245127773194" lon="12.174290615387457"><ele>380.0</ele><time>2026-04-16T14:31:17Z</time></trkpt><trkpt lat="43.081367692027996" lon="12.174221375093353"><ele>380.0</ele><time>2026-04-16T14:31:18Z</time></trkpt><trkpt lat="43.08147367802837" lon="12.174197290200865"><ele>380.0</ele><time>2026-04-16T14:31:19Z</time></trkpt><trkpt lat="43.081545215341706" lon="12.17419129053792"><ele>380.0</ele><time>2026-04-16T14:31:20Z</time></trkpt><trkpt lat="43.08162523163395" lon="12.174145445605966"><ele>380.0</ele><time>2026-04-16T14:31:21Z</time></trkpt><trkpt lat="43.081709132863466" lon="12.174109876176619"><ele>380.0</ele><time>2026-04-16T14:31:22Z</time></trkpt><trkpt lat="43.08179222513206" lon="12.174062901696306"><ele>380.0</ele><time>2026-04-16T14:31:23Z</time></trkpt><trkpt lat="43.08186469731727" lon="12.173958605585135"><ele>379.0</ele><time>2026-04-16T14:31:24Z</time></trkpt><trkpt lat="43.08194740936368" lon="12.173879687957099"><ele>378.0</ele><time>2026-04-16T14:31:25Z</time></trkpt><trkpt lat="43.08201467097442" lon="12.17384161651682"><ele>377.0</ele><time>2026-04-16T14:31:26Z</time></trkpt><trkpt lat="43.082096014641294" lon="12.173820164765864"><ele>376.0</ele><time>2026-04-16T14:31:27Z</time></trkpt><trkpt lat="43.08216465867414" lon="12.173798723802959"><ele>375.0</ele><time>2026-04-16T14:31:28Z</time></trkpt><trkpt lat="43.082234455844514" lon="12.173779708351972"><ele>374.0</ele><time>2026-04-16T14:31:29Z</time></trkpt><trkpt lat="43.08229799646914" lon="12.173763448147145"><ele>374.0</ele><time>2026-04-16T14:31:30Z</time></trkpt><trkpt lat="43.08236743786013" lon="12.173745677918475"><ele>374.0</ele><time>2026-04-16T14:31:31Z</time></trkpt><trkpt lat="43.082437899730806" lon="12.173721181053073"><ele>374.0</ele><time>2026-04-16T14:31:32Z</time></trkpt><trkpt lat="43.08251480713122" lon="12.173684087485404"><ele>374.0</ele><time>2026-04-16T14:31:33Z</time></trkpt><trkpt lat="43.0825888880351" lon="12.173581603724994"><ele>374.0</ele><time>2026-04-16T14:31:34Z</time></trkpt><trkpt lat="43.08267091742296" lon="12.173456568835952"><ele>373.6666666666667</ele><time>2026-04-16T14:31:35Z</time></trkpt><trkpt lat="43.08276349389923" lon="12.173389516989594"><ele>373.33333333333337</ele><time>2026-04-16T14:31:36Z</time></trkpt><trkpt lat="43.0828393153542" lon="12.173320481398877"><ele>373.0</ele><time>2026-04-16T14:31:37Z</time></trkpt><trkpt lat="43.08291799407624" lon="12.173257400003196"><ele>372.6666666666667</ele><time>2026-04-16T14:31:38Z</time></trkpt><trkpt lat="43.082991362184785" lon="12.173210778475816"><ele>372.3333333333333</ele><time>2026-04-16T14:31:39Z</time></trkpt><trkpt lat="43.083061020340956" lon="12.173169061062525"><ele>372.0</ele><time>2026-04-16T14:31:40Z</time></trkpt><trkpt lat="43.08314737213846" lon="12.173103586026594"><ele>372.0</ele><time>2026-04-16T14:31:41Z</time></trkpt><trkpt lat="43.083216000040885" lon="12.172976532929631"><ele>372.0</ele><time>2026-04-16T14:31:42Z</time></trkpt><trkpt lat="43.08332815091935" lon="12.172850832453431"><ele>372.0</ele><time>2026-04-16T14:31:43Z</time></trkpt><trkpt lat="43.08344844970923" lon="12.172681735504275"><ele>372.0</ele><time>2026-04-16T14:31:44Z</time></trkpt><trkpt lat="43.08354884178179" lon="12.17254886523652"><ele>372.8</ele><time>2026-04-16T14:31:45Z</time></trkpt><trkpt lat="43.08362853654422" lon="12.172451467965297"><ele>373.6</ele><time>2026-04-16T14:31:46Z</time></trkpt><trkpt lat="43.08369700198735" lon="12.17237389093058"><ele>374.40000000000003</ele><time>2026-04-16T14:31:47Z</time></trkpt><trkpt lat="43.08376821665503" lon="12.172302793780313"><ele>375.20000000000005</ele><time>2026-04-16T14:31:48Z</time></trkpt><trkpt lat="43.08386243617497" lon="12.172240461589634"><ele>376.0</ele><time>2026-04-16T14:31:49Z</time></trkpt><trkpt lat="43.08400843233747" lon="12.1721417584426"><ele>374.25</ele><time>2026-04-16T14:31:50Z</time></trkpt><trkpt lat="43.08415636668621" lon="12.172019539210913"><ele>372.5</ele><time>2026-04-16T14:31:51Z</time></trkpt><trkpt lat="43.08427348650612" lon="12.17192496857222"><ele>370.75</ele><time>2026-04-16T14:31:52Z</time></trkpt><trkpt lat="43.08438995948714" lon="12.171834056077188"><ele>369.0</ele><time>2026-04-16T14:31:53Z</time></trkpt><trkpt lat="43.08450307492983" lon="12.171756349192243"><ele>369.0</ele><time>2026-04-16T14:31:54Z</time></trkpt><trkpt lat="43.084595675957985" lon="12.171695948651672"><ele>369.0</ele><time>2026-04-16T14:31:55Z</time></trkpt><trkpt lat="43.08467059064863" lon="12.171643658211547"><ele>369.0</ele><time>2026-04-16T14:31:56Z</time></trkpt><trkpt lat="43.08471684411652" lon="12.171574697963276"><ele>369.0</ele><time>2026-04-16T14:31:57Z</time></trkpt><trkpt lat="43.08477315823746" lon="12.171531883608347"><ele>369.0</ele><time>2026-04-16T14:31:58Z</time></trkpt><trkpt lat="43.08480989021914" lon="12.171428922516391"><ele>369.0</ele><time>2026-04-16T14:31:59Z</time></trkpt><trkpt lat="43.08482035471146" lon="12.171272643901306"><ele>367.25</ele><time>2026-04-16T14:32:00Z</time></trkpt><trkpt lat="43.08486870852903" lon="12.171102811710877"><ele>365.5</ele><time>2026-04-16T14:32:01Z</time></trkpt><trkpt lat="43.08492054437331" lon="12.170901386840132"><ele>363.75</ele><time>2026-04-16T14:32:02Z</time></trkpt><trkpt lat="43.0849622857341" lon="12.170742506512106"><ele>362.0</ele><time>2026-04-16T14:32:03Z</time></trkpt><trkpt lat="43.08499757106598" lon="12.170640660312289"><ele>361.5</ele><time>2026-04-16T14:32:04Z</time></trkpt><trkpt lat="43.08502503453688" lon="12.170529628181496"><ele>361.0</ele><time>2026-04-16T14:32:05Z</time></trkpt><trkpt lat="43.08504657501268" lon="12.170432527870675"><ele>360.5</ele><time>2026-04-16T14:32:06Z</time></trkpt><trkpt lat="43.085057456263286" lon="12.17031234263982"><ele>360.0</ele><time>2026-04-16T14:32:08Z</time></trkpt><trkpt lat="43.085256989007526" lon="12.170113007321083"><ele>360.0</ele><time>2026-04-16T14:32:11Z</time></trkpt><trkpt lat="43.08535234699022" lon="12.17004264097896"><ele>360.0</ele><time>2026-04-16T14:32:12Z</time></trkpt><trkpt lat="43.08544217682577" lon="12.169977651201217"><ele>360.0</ele><time>2026-04-16T14:32:13Z</time></trkpt><trkpt lat="43.085515885703366" lon="12.169909938124057"><ele>360.0</ele><time>2026-04-16T14:32:14Z</time></trkpt><trkpt lat="43.08558792849542" lon="12.169880816808964"><ele>360.0</ele><time>2026-04-16T14:32:15Z</time></trkpt><trkpt lat="43.08569184468545" lon="12.169840923935425"><ele>361.4</ele><time>2026-04-16T14:32:16Z</time></trkpt><trkpt lat="43.08578859896694" lon="12.169774212784784"><ele>362.8</ele><time>2026-04-16T14:32:17Z</time></trkpt><trkpt lat="43.085860695570766" lon="12.169730256440863"><ele>364.20000000000005</ele><time>2026-04-16T14:32:18Z</time></trkpt><trkpt lat="43.085923862376006" lon="12.169690144377116"><ele>365.6</ele><time>2026-04-16T14:32:19Z</time></trkpt><trkpt lat="43.086032811466865" lon="12.169583913966294"><ele>367.0</ele><time>2026-04-16T14:32:21Z</time></trkpt><trkpt lat="43.08608406095246" lon="12.169526156372092"><ele>367.0</ele><time>2026-04-16T14:32:22Z</time></trkpt><trkpt lat="43.08616450935937" lon="12.169379810417405"><ele>367.0</ele><time>2026-04-16T14:32:24Z</time></trkpt><trkpt lat="43.08621061491746" lon="12.169290022213131"><ele>367.0</ele><time>2026-04-16T14:32:26Z</time></trkpt><trkpt lat="43.086271864497256" lon="12.169196496517719"><ele>367.0</ele><time>2026-04-16T14:32:41Z</time></trkpt><trkpt lat="43.08633516688053" lon="12.169134822905969"><ele>367.0</ele><time>2026-04-16T14:32:42Z</time></trkpt><trkpt lat="43.086398839076985" lon="12.169058032478539"><ele>365.6</ele><time>2026-04-16T14:32:43Z</time></trkpt><trkpt lat="43.08644120340988" lon="12.168983228426143"><ele>364.20000000000005</ele><time>2026-04-16T14:32:44Z</time></trkpt><trkpt lat="43.08647510528684" lon="12.16889030705947"><ele>362.8</ele><time>2026-04-16T14:32:45Z</time></trkpt><trkpt lat="43.086502921349975" lon="12.168726936798585"><ele>361.4</ele><time>2026-04-16T14:32:47Z</time></trkpt><trkpt lat="43.086500580853624" lon="12.168583008277254"><ele>360.0</ele><time>2026-04-16T14:32:49Z</time></trkpt><trkpt lat="43.08646943544323" lon="12.168399779390898"><ele>360.0</ele><time>2026-04-16T14:32:51Z</time></trkpt><trkpt lat="43.08647151008922" lon="12.168256186201802"><ele>360.0</ele><time>2026-04-16T14:32:53Z</time></trkpt><trkpt lat="43.086528526716165" lon="12.168124144477389"><ele>360.0</ele><time>2026-04-16T14:32:55Z</time></trkpt><trkpt lat="43.086574470190264" lon="12.168043349975335"><ele>360.0</ele><time>2026-04-16T14:32:56Z</time></trkpt><trkpt lat="43.086621178365206" lon="12.16796308276547"><ele>360.0</ele><time>2026-04-16T14:32:57Z</time></trkpt><trkpt lat="43.08665432229713" lon="12.167858624608371"><ele>360.2</ele><time>2026-04-16T14:32:58Z</time></trkpt><trkpt lat="43.08669651774864" lon="12.167726595501225"><ele>360.4</ele><time>2026-04-16T14:33:00Z</time></trkpt><trkpt lat="43.08676412195794" lon="12.167632505329612"><ele>360.6</ele><time>2026-04-16T14:33:02Z</time></trkpt><trkpt lat="43.08684319345705" lon="12.167563533043076"><ele>360.8</ele><time>2026-04-16T14:33:04Z</time></trkpt><trkpt lat="43.08692627687106" lon="12.167456539048574"><ele>361.0</ele><time>2026-04-16T14:33:06Z</time></trkpt><trkpt lat="43.08701661440388" lon="12.16737458743018"><ele>358.66666666666663</ele><time>2026-04-16T14:33:08Z</time></trkpt><trkpt lat="43.08707395875959" lon="12.1673250849787"><ele>356.3333333333333</ele><time>2026-04-16T14:33:09Z</time></trkpt><trkpt lat="43.08712730792252" lon="12.167276563739279"><ele>354.0</ele><time>2026-04-16T14:33:10Z</time></trkpt><trkpt lat="43.087227519585745" lon="12.167191503505173"><ele>351.6666666666667</ele><time>2026-04-16T14:33:12Z</time></trkpt><trkpt lat="43.087312912834804" lon="12.167134149311988"><ele>349.33333333333337</ele><time>2026-04-16T14:33:14Z</time></trkpt><trkpt lat="43.0873888101404" lon="12.167066467736664"><ele>347.0</ele><time>2026-04-16T14:33:17Z</time></trkpt><trkpt lat="43.08743840411778" lon="12.16697122444041"><ele>347.0</ele><time>2026-04-16T14:33:19Z</time></trkpt><trkpt lat="43.08750804749221" lon="12.166886678543813"><ele>347.0</ele><time>2026-04-16T14:33:21Z</time></trkpt><trkpt lat="43.08754637622605" lon="12.166788216781892"><ele>347.0</ele><time>2026-04-16T14:33:23Z</time></trkpt><trkpt lat="43.08758530376546" lon="12.166694014590778"><ele>347.0</ele><time>2026-04-16T14:33:25Z</time></trkpt><trkpt lat="43.08761917758266" lon="12.166606970245754"><ele>347.0</ele><time>2026-04-16T14:33:27Z</time></trkpt><trkpt lat="43.087651015143685" lon="12.166463400116747"><ele>347.0</ele><time>2026-04-16T14:33:29Z</time></trkpt><trkpt lat="43.08767163175254" lon="12.166298051332818"><ele>345.83333333333337</ele><time>2026-04-16T14:33:31Z</time></trkpt><trkpt lat="43.087696461536915" lon="12.166170023865579"><ele>344.6666666666667</ele><time>2026-04-16T14:33:33Z</time></trkpt><trkpt lat="43.08772808704871" lon="12.16603900301139"><ele>343.5</ele><time>2026-04-16T14:33:35Z</time></trkpt><trkpt lat="43.08776165795588" lon="12.165920512615003"><ele>342.3333333333333</ele><time>2026-04-16T14:33:37Z</time></trkpt><trkpt lat="43.087797413871535" lon="12.165835441879434"><ele>341.16666666666663</ele><time>2026-04-16T14:33:39Z</time></trkpt><trkpt lat="43.08781393176809" lon="12.165750780634118"><ele>340.0</ele><time>2026-04-16T14:33:40Z</time></trkpt><trkpt lat="43.0878428314605" lon="12.165626249265175"><ele>338.8</ele><time>2026-04-16T14:33:41Z</time></trkpt><trkpt lat="43.0878684541593" lon="12.16552074056181"><ele>337.6</ele><time>2026-04-16T14:33:42Z</time></trkpt><trkpt lat="43.087880458194476" lon="12.165359464066965"><ele>336.4</ele><time>2026-04-16T14:33:44Z</time></trkpt><trkpt lat="43.087864043424936" lon="12.165271552735113"><ele>335.2</ele><time>2026-04-16T14:33:45Z</time></trkpt><trkpt lat="43.08784963968721" lon="12.1651092688006"><ele>334.0</ele><time>2026-04-16T14:33:47Z</time></trkpt><trkpt lat="43.087839532427154" lon="12.164959275252878"><ele>332.4</ele><time>2026-04-16T14:33:49Z</time></trkpt><trkpt lat="43.08781517677076" lon="12.16483622888759"><ele>330.79999999999995</ele><time>2026-04-16T14:33:51Z</time></trkpt><trkpt lat="43.087788110684706" lon="12.164676935721253"><ele>329.20000000000005</ele><time>2026-04-16T14:33:53Z</time></trkpt><trkpt lat="43.08775304505133" lon="12.164520176622045"><ele>327.6</ele><time>2026-04-16T14:33:55Z</time></trkpt><trkpt lat="43.08772455392829" lon="12.1643890087997"><ele>326.0</ele><time>2026-04-16T14:33:57Z</time></trkpt><trkpt lat="43.0876687836864" lon="12.16424612474652"><ele>326.0</ele><time>2026-04-16T14:33:59Z</time></trkpt><trkpt lat="43.087640214093824" lon="12.164153023572291"><ele>326.0</ele><time>2026-04-16T14:34:00Z</time></trkpt><trkpt lat="43.087610948219755" lon="12.164069700559986"><ele>326.0</ele><time>2026-04-16T14:34:01Z</time></trkpt><trkpt lat="43.08756943335801" lon="12.163921300093667"><ele>326.0</ele><time>2026-04-16T14:34:03Z</time></trkpt><trkpt lat="43.08751139854166" lon="12.163815323576578"><ele>326.0</ele><time>2026-04-16T14:34:05Z</time></trkpt><trkpt lat="43.08745984831165" lon="12.163727140545877"><ele>326.0</ele><time>2026-04-16T14:34:07Z</time></trkpt><trkpt lat="43.08739248982559" lon="12.163660625204226"><ele>323.2</ele><time>2026-04-16T14:34:09Z</time></trkpt><trkpt lat="43.08732482746179" lon="12.163594074904369"><ele>320.40000000000003</ele><time>2026-04-16T14:34:11Z</time></trkpt><trkpt lat="43.087235692622215" lon="12.163557211916267"><ele>317.6</ele><time>2026-04-16T14:34:13Z</time></trkpt><trkpt lat="43.087147731078986" lon="12.163527302539173"><ele>314.8</ele><time>2026-04-16T14:34:15Z</time></trkpt><trkpt lat="43.087041329345524" lon="12.1635243619222"><ele>312.0</ele><time>2026-04-16T14:34:17Z</time></trkpt><trkpt lat="43.08695164221938" lon="12.16351515912269"><ele>312.0</ele><time>2026-04-16T14:34:19Z</time></trkpt><trkpt lat="43.08689215544917" lon="12.163421184334588"><ele>312.0</ele><time>2026-04-16T14:34:21Z</time></trkpt><trkpt lat="43.08696522726328" lon="12.163271601313143"><ele>312.0</ele><time>2026-04-16T14:34:23Z</time></trkpt><trkpt lat="43.08701557704331" lon="12.16321524386075"><ele>312.0</ele><time>2026-04-16T14:34:24Z</time></trkpt><trkpt lat="43.08706422465337" lon="12.163154123821567"><ele>312.0</ele><time>2026-04-16T14:34:25Z</time></trkpt><trkpt lat="43.087126207998566" lon="12.163042345238315"><ele>310.2</ele><time>2026-04-16T14:34:27Z</time></trkpt><trkpt lat="43.0870688832395" lon="12.162886679793214"><ele>308.4</ele><time>2026-04-16T14:34:30Z</time></trkpt><trkpt lat="43.0869901677935" lon="12.162901322363945"><ele>306.6</ele><time>2026-04-16T14:34:31Z</time></trkpt><trkpt lat="43.08690693889351" lon="12.162914735151054"><ele>304.8</ele><time>2026-04-16T14:34:32Z</time></trkpt><trkpt lat="43.086808375327514" lon="12.162942670839563"><ele>303.0</ele><time>2026-04-16T14:34:33Z</time></trkpt><trkpt lat="43.08672033339786" lon="12.162977604852138"><ele>303.0</ele><time>2026-04-16T14:34:34Z</time></trkpt><trkpt lat="43.08661232325735" lon="12.163054326695534"><ele>303.0</ele><time>2026-04-16T14:34:36Z</time></trkpt><trkpt lat="43.08655573047584" lon="12.163148528694444"><ele>303.0</ele><time>2026-04-16T14:34:38Z</time></trkpt><trkpt lat="43.08649037894653" lon="12.16313934245551"><ele>303.0</ele><time>2026-04-16T14:34:40Z</time></trkpt><trkpt lat="43.0865074036626" lon="12.162954838271855"><ele>303.0</ele><time>2026-04-16T14:34:42Z</time></trkpt><trkpt lat="43.08654580390324" lon="12.16284712279725"><ele>303.0</ele><time>2026-04-16T14:34:43Z</time></trkpt><trkpt lat="43.08660535065325" lon="12.162748052601653"><ele>303.0</ele><time>2026-04-16T14:34:44Z</time></trkpt><trkpt lat="43.08668202164102" lon="12.162628323764284"><ele>303.0</ele><time>2026-04-16T14:34:45Z</time></trkpt><trkpt lat="43.08673294750803" lon="12.162517236822511"><ele>303.0</ele><time>2026-04-16T14:34:46Z</time></trkpt><trkpt lat="43.08678585078313" lon="12.162431780684653"><ele>303.0</ele><time>2026-04-16T14:34:47Z</time></trkpt><trkpt lat="43.086848908013124" lon="12.162363018675569"><ele>300.6</ele><time>2026-04-16T14:34:48Z</time></trkpt><trkpt lat="43.08691120481855" lon="12.162239984967286"><ele>298.20000000000005</ele><time>2026-04-16T14:34:50Z</time></trkpt><trkpt lat="43.086908923015" lon="12.16215147002161"><ele>295.8</ele><time>2026-04-16T14:34:51Z</time></trkpt><trkpt lat="43.0868424873827" lon="12.162095902060658"><ele>293.40000000000003</ele><time>2026-04-16T14:34:52Z</time></trkpt><trkpt lat="43.08672134472623" lon="12.16210784246528"><ele>291.0</ele><time>2026-04-16T14:34:54Z</time></trkpt><trkpt lat="43.08663891626279" lon="12.162147328303769"><ele>289.6666666666667</ele><time>2026-04-16T14:34:55Z</time></trkpt><trkpt lat="43.08655849270861" lon="12.162190182501705"><ele>288.3333333333333</ele><time>2026-04-16T14:34:56Z</time></trkpt><trkpt lat="43.08649742750849" lon="12.162222411657876"><ele>287.0</ele><time>2026-04-16T14:34:57Z</time></trkpt><trkpt lat="43.0863921871562" lon="12.16227169143544"><ele>285.66666666666663</ele><time>2026-04-16T14:34:59Z</time></trkpt><trkpt lat="43.08634352483955" lon="12.1621607464964"><ele>284.3333333333333</ele><time>2026-04-16T14:35:01Z</time></trkpt><trkpt lat="43.086368636142794" lon="12.162065510217793"><ele>283.0</ele><time>2026-04-16T14:35:02Z</time></trkpt><trkpt lat="43.08644213105573" lon="12.161967222081103"><ele>283.0</ele><time>2026-04-16T14:35:03Z</time></trkpt><trkpt lat="43.086483991174674" lon="12.161803177853198"><ele>283.0</ele><time>2026-04-16T14:35:04Z</time></trkpt><trkpt lat="43.08652898497188" lon="12.16167085222142"><ele>283.0</ele><time>2026-04-16T14:35:05Z</time></trkpt><trkpt lat="43.08656162759884" lon="12.16158142560051"><ele>283.0</ele><time>2026-04-16T14:35:06Z</time></trkpt><trkpt lat="43.086559699143166" lon="12.161415351927696"><ele>283.0</ele><time>2026-04-16T14:35:08Z</time></trkpt><trkpt lat="43.08650714720977" lon="12.161361798155413"><ele>281.4</ele><time>2026-04-16T14:35:09Z</time></trkpt><trkpt lat="43.08645784857229" lon="12.16124129602667"><ele>279.8</ele><time>2026-04-16T14:35:13Z</time></trkpt><trkpt lat="43.08631180563162" lon="12.161305047841362"><ele>278.2</ele><time>2026-04-16T14:35:14Z</time></trkpt><trkpt lat="43.08621309151615" lon="12.161339567223836"><ele>276.6</ele><time>2026-04-16T14:35:15Z</time></trkpt><trkpt lat="43.086133509678056" lon="12.161369436969593"><ele>275.0</ele><time>2026-04-16T14:35:16Z</time></trkpt><trkpt lat="43.08605523464348" lon="12.161381127355892"><ele>275.0</ele><time>2026-04-16T14:35:17Z</time></trkpt><trkpt lat="43.08598327649141" lon="12.161387484380665"><ele>275.0</ele><time>2026-04-16T14:35:18Z</time></trkpt><trkpt lat="43.08589744310395" lon="12.16139476251842"><ele>275.0</ele><time>2026-04-16T14:35:19Z</time></trkpt><trkpt lat="43.08582373496506" lon="12.161392794580838"><ele>275.0</ele><time>2026-04-16T14:35:20Z</time></trkpt><trkpt lat="43.085751263455364" lon="12.161401242425523"><ele>275.0</ele><time>2026-04-16T14:35:21Z</time></trkpt><trkpt lat="43.08568184234903" lon="12.161416466913888"><ele>275.0</ele><time>2026-04-16T14:35:22Z</time></trkpt><trkpt lat="43.08557167642583" lon="12.161453060741652"><ele>274.0</ele><time>2026-04-16T14:35:24Z</time></trkpt><trkpt lat="43.0855577059007" lon="12.161228815703845"><ele>273.0</ele><time>2026-04-16T14:35:28Z</time></trkpt><trkpt lat="43.08560628932043" lon="12.161078817007956"><ele>272.0</ele><time>2026-04-16T14:35:29Z</time></trkpt><trkpt lat="43.085627736727695" lon="12.160916850900351"><ele>271.0</ele><time>2026-04-16T14:35:30Z</time></trkpt><trkpt lat="43.08565836359636" lon="12.160778982482187"><ele>270.6</ele><time>2026-04-16T14:35:31Z</time></trkpt><trkpt lat="43.08569454804499" lon="12.160662865263728"><ele>270.20000000000005</ele><time>2026-04-16T14:35:32Z</time></trkpt><trkpt lat="43.085720165582586" lon="12.160561663362504"><ele>269.79999999999995</ele><time>2026-04-16T14:35:33Z</time></trkpt><trkpt lat="43.085769125043356" lon="12.160446917923192"><ele>269.4</ele><time>2026-04-16T14:35:35Z</time></trkpt><trkpt lat="43.08577249215793" lon="12.160335223488259"><ele>269.0</ele><time>2026-04-16T14:35:38Z</time></trkpt><trkpt lat="43.08565495858808" lon="12.16032055718103"><ele>269.0</ele><time>2026-04-16T14:35:39Z</time></trkpt><trkpt lat="43.085581038142166" lon="12.160357334553902"><ele>269.0</ele><time>2026-04-16T14:35:40Z</time></trkpt><trkpt lat="43.08550060813926" lon="12.160340918496717"><ele>269.0</ele><time>2026-04-16T14:35:42Z</time></trkpt><trkpt lat="43.085651160841465" lon="12.160312659052105"><ele>269.0</ele><time>2026-04-16T14:35:47Z</time></trkpt><trkpt lat="43.08577217812483" lon="12.160294884821198"><ele>269.0</ele><time>2026-04-16T14:35:48Z</time></trkpt><trkpt lat="43.085900736384346" lon="12.16025325839094"><ele>268.6666666666667</ele><time>2026-04-16T14:35:49Z</time></trkpt><trkpt lat="43.08604056698973" lon="12.160217916646985"><ele>268.3333333333333</ele><time>2026-04-16T14:35:50Z</time></trkpt><trkpt lat="43.08619338554938" lon="12.160179292227571"><ele>268.0</ele><time>2026-04-16T14:35:51Z</time></trkpt><trkpt lat="43.086360952376864" lon="12.160182492906607"><ele>268.0</ele><time>2026-04-16T14:35:52Z</time></trkpt><trkpt lat="43.08650303022843" lon="12.160140978365112"><ele>268.0</ele><time>2026-04-16T14:35:53Z</time></trkpt><trkpt lat="43.086637491406385" lon="12.160097661086553"><ele>268.0</ele><time>2026-04-16T14:35:54Z</time></trkpt><trkpt lat="43.08677938019875" lon="12.160193912415089"><ele>268.0</ele><time>2026-04-16T14:35:55Z</time></trkpt><trkpt lat="43.0868968890451" lon="12.160307019901943"><ele>267.5</ele><time>2026-04-16T14:35:56Z</time></trkpt><trkpt lat="43.08700885748815" lon="12.160434524858276"><ele>267.0</ele><time>2026-04-16T14:35:57Z</time></trkpt><trkpt lat="43.087114149051324" lon="12.160547167233426"><ele>266.5</ele><time>2026-04-16T14:35:58Z</time></trkpt><trkpt lat="43.08719160093096" lon="12.160619411284634"><ele>266.0</ele><time>2026-04-16T14:35:59Z</time></trkpt><trkpt lat="43.087250190246365" lon="12.160690738190594"><ele>266.0</ele><time>2026-04-16T14:36:01Z</time></trkpt><trkpt lat="43.08718966201254" lon="12.160616166079112"><ele>266.0</ele><time>2026-04-16T14:36:04Z</time></trkpt><trkpt lat="43.08720934913791" lon="12.160507426764648"><ele>266.0</ele><time>2026-04-16T14:36:05Z</time></trkpt><trkpt lat="43.087142147412244" lon="12.160440777357138"><ele>266.0</ele><time>2026-04-16T14:36:08Z</time></trkpt><trkpt lat="43.087078118786614" lon="12.160387248503243"><ele>266.0</ele><time>2026-04-16T14:36:11Z</time></trkpt><trkpt lat="43.08702171800812" lon="12.16032999684247"><ele>266.0</ele><time>2026-04-16T14:36:12Z</time></trkpt><trkpt lat="43.086947369481905" lon="12.160252252268075"><ele>266.0</ele><time>2026-04-16T14:36:13Z</time></trkpt><trkpt lat="43.08688162989536" lon="12.160189600519958"><ele>266.0</ele><time>2026-04-16T14:36:14Z</time></trkpt><trkpt lat="43.086829841663025" lon="12.16013835866498"><ele>266.0</ele><time>2026-04-16T14:36:15Z</time></trkpt><trkpt lat="43.0867683688817" lon="12.160084531364522"><ele>266.0</ele><time>2026-04-16T14:36:17Z</time></trkpt><trkpt lat="43.086736245755354" lon="12.160163261128941"><ele>266.0</ele><time>2026-04-16T14:36:24Z</time></trkpt><trkpt lat="43.08688030568857" lon="12.16032647272382"><ele>266.0</ele><time>2026-04-16T14:36:26Z</time></trkpt><trkpt lat="43.08701606882156" lon="12.160462891718801"><ele>266.0</ele><time>2026-04-16T14:36:27Z</time></trkpt><trkpt lat="43.08715288178927" lon="12.160586788548544"><ele>266.0</ele><time>2026-04-16T14:36:28Z</time></trkpt><trkpt lat="43.087268950111444" lon="12.16068608679259"><ele>266.0</ele><time>2026-04-16T14:36:29Z</time></trkpt><trkpt lat="43.08735673681731" lon="12.160796342668542"><ele>277.0</ele><time>2026-04-16T14:36:30Z</time></trkpt></trkseg></trk></gpx>